     2.11           OBSERVATION DATA    G (GPS)             RINEX VERSION / TYPE
teqc 2010Oct21 OPUS Account 20111028 22:14:40UTC            PGM / RUN BY / DATE
N0280045                                                    MARKER NAME
1117                                                        MARKER NUMBER
CSMIDDLETON NGS                                             OBSERVER / AGENCY
0220320139 TRIMBLE 5700 2.01                                REC # / TYPE / VERS
12696910 TRM41249.00 NONE                                   ANT # / TYPE
  -739371.1125 -5484471.5750  3160543.5491                  APPROX POSITION XYZ
        2.0000        0.0000        0.0000                  ANTENNA: DELTA H/E/N
     1     1                                                WAVELENGTH FACT L1/2
     5    L1    L2    C1    P1    P2                        # / TYPES OF OBSERV
    15                                                      LEAP SECONDS
  2011     9    22     0     0   30.0000000     GPS         TIME OF FIRST OBS
                                                            END OF HEADER
 11  9 22  0  0 30.0000000  0  8G02G05G12G10G30G25G26G29
 -34266730.45358 -26695135.33256  21581585.7424                   21581584.8244
 -33602458.47358 -26171590.00857  20348518.6644                   20348518.9614
 -29392680.87157 -22888319.73456  21555113.3444                   21555114.2234
 -18664290.32057 -14471001.81653  23566813.8134                   23566817.0594
 -12685638.27357  -9873657.44154  22702386.9694                   22702387.7074
 -24245088.33258 -18880154.96556  21569496.6804                   21569499.2734
  -5675362.81256  -4760447.76252  23830346.7114                   23830349.9774
 -14803387.87157 -11524925.41455  22581025.4844                   22581027.8714
 11  9 22  0  1  0.0000000  0  8G02G05G12G10G30G25G26G29
 -34253845.09448 -26685094.77346  21584037.7974                   21584035.8674
 -33608689.16448 -26176445.06647  20347332.8984                   20347333.1844
 -29354274.67247 -22858392.82846  21562421.6804                   21562422.2894
 -18586775.03947 -14410600.32843  23581564.7424                   23581566.7584
 -12744445.09047  -9919480.85945  22691196.1564                   22691198.1954
 -24265629.91848 -18896161.37546  21565587.7274                   21565590.3794
  -5798478.49646  -4856381.80543  23806918.3204                   23806921.7274
 -14911953.44547 -11609521.82845  22560366.0394                   22560367.4414
 11  9 22  0  1 30.0000000  0  8G02G05G12G10G30G25G26G29
 -34240830.00848 -26674953.14546  21586514.6954                   21586513.2774
 -33614360.73448 -26180864.44147  20346253.7974                   20346253.4574
 -29315418.87547 -22828115.61746  21569815.9064                   21569816.6844
 -18509062.75047 -14350045.37143  23596353.3834                   23596355.0904
 -12802645.26247  -9964831.61344  22680120.6094                   22680122.8794
 -24285565.19148 -18911695.34046  21561794.2664                   21561797.0864
  -5921510.62946  -4952250.72343  23783505.9844                   23783508.8284
 -15020402.19146 -11694027.25045  22539729.2814                   22539730.5164
 11  9 22  0  2  0.0000000  0  8G02G05G12G10G30G25G26G29
 -34227684.88348 -26664710.16446  21589016.1884                   21589014.2584
 -33619474.43048 -26184849.09447  20345280.4534                   20345280.1564
 -29276115.31647 -22797489.47746  21577295.2424                   21577295.6414
 -18431155.39147 -14289338.40643  23611178.9774                   23611180.3874
 -12860237.38747 -10009708.54345  22669161.7894                   22669163.0704
 -24304894.09448 -18926756.80946  21558116.0314                   21558118.5594
  -6044455.00346  -5048051.29743  23760110.5164                   23760113.4734
 -15128731.54747 -11778439.60945  22519114.6564                   22519116.7194
 11  9 22  0  2 30.0000000  0  8G02G05G12G10G30G25G26G29
 -34214410.79747 -26654366.70346  21591541.7974                   21591540.2274
 -33624032.17648 -26188400.55147  20344413.1644                   20344413.6604
 -29236367.86347 -22766517.45746  21584859.1414                   21584859.3284
 -18353056.67646 -14228482.30143  23626040.8594                   23626041.8364
 -12917221.79747 -10054111.93445  22658317.8524                   22658319.8674
 -24323618.31648 -18941347.10246  21554552.9454                   21554556.0784
  -6167309.56646  -5143781.78143  23736731.4304                   23736737.0274
 -15236940.65647 -11862758.27045  22498523.1884                   22498524.6094
 11  9 22  0  3  0.0000000  0  8G02G05G12G10G30G25G26G29
 -34201007.61347 -26643922.65246  21594092.6954                   21594090.6914
 -33628035.64548 -26191520.10947  20343651.2424                   20343651.6484
 -29196178.73447 -22735201.25846  21592507.0004                   21592507.7664
 -18274768.93446 -14167478.94543  23640938.6804                   23640939.9144
 -12973597.50847 -10098041.02045  22647589.8524                   22647592.3284
 -24341738.43748 -18955466.65246  21551104.5084                   21551107.6484
  -6290070.19145  -5239439.11343  23713369.3594                   23713376.5594
 -15345027.49247 -11946981.66445  22477954.5634                   22477956.6884
 11  9 22  0  3 30.0000000  0  8G02G05G12G10G30G25G26G29
 -34187475.47747 -26633378.10246  21596667.2424                   21596666.4224
 -33631485.98848 -26194208.64847  20342994.7034                   20342994.6684
 -29155550.28947 -22703542.75446  21600238.0474                   21600238.7384
 -18196294.71946 -14106330.27343  23655872.6954                   23655873.6174
 -13029363.69147 -10141495.12544  22636978.2734                   22636980.1604
 -24359254.88348 -18969115.80546  21547771.4384                   21547774.4264
  -6412733.49245  -5335020.60243  23690027.4924                   23690032.5554
 -15452989.98047 -12031108.16845  22457409.8984                   22457412.1024
 11  9 22  0  4  0.0000000  0  8G02G05G12G10G30G25G26G29
 -34173815.14147 -26622733.67646  21599266.9304                   21599265.5044
 -33634385.23048 -26196467.77747  20342443.2584                   20342442.9264
 -29114485.85547 -22671544.51246  21608052.0634                   21608053.1764
 -18117637.43746 -14045038.99243  23670839.5784                   23670841.8594
 -13084520.35547 -10184474.29745  22626482.1804                   22626484.4694
 -24376169.03548 -18982295.64146  21544552.6254                   21544555.8164
  -6535296.52046  -5430523.95343  23666705.1414                   23666709.7894
 -15560826.65247 -12115136.66045  22436889.6334                   22436890.6374
 11  9 22  0  4 30.0000000  0  8G02G05G12G10G30G25G26G29
 -34160030.18048 -26611992.14546  21601890.0234                   21601888.6454
 -33636738.52748 -26198301.48047  20341995.2344                   20341994.9144
 -29072991.29748 -22639211.11346  21615948.3284                   21615949.0474
 -18038802.99646 -13983609.56242  23685841.2814                   23685844.1054
 -13139070.37947 -10226980.76245  22616101.6484                   22616103.3524
 -24392485.15248 -18995009.47746  21541448.1484                   21541450.9264
  -6657759.17246  -5525949.12143  23643401.0554                   23643405.9304
 -15668539.15247 -12199068.37945  22416392.4694                   22416393.9344
 11  9 22  0  5  0.0000000  0  8G02G05G12G10G30G25G26G29
 -34146128.54347 -26601159.67646  21604535.1484                   21604533.5944
 -33638555.20748 -26199717.04747  20341649.4774                   20341649.1214
 -29031076.99248 -22606550.62946  21623924.1724                   21623924.3134
 -17959802.35246 -13922050.67642  23700874.8754                   23700876.9964
 -13193020.97347 -10269020.13745  22605834.6954                   22605836.4844
 -24408211.87148 -19007264.04746  21538455.2114                   21538458.5044
  -6780125.81246  -5621299.47743  23620115.9774                   23620118.5664
 -15776133.56247 -12282908.07845  22395917.6644                   22395918.8954
 11  9 22  0  5 30.0000000  0  8G02G05G12G10G30G25G26G29
 -34132111.89147 -26590237.58646  21607202.5004                   21607201.0234
 -33639838.40648 -26200716.92247  20341405.6954                   20341405.3054
 -28988747.88748 -22573566.91446  21631979.2734                   21631980.4494
 -17880639.29346 -13860365.25043  23715939.5164                   23715942.5164
 -13246373.10947 -10310593.18745  22595682.0474                   22595683.5044
 -24423351.65648 -19019061.25846  21535574.0864                   21535577.3364
  -6902394.38346  -5716573.44943  23596848.8054                   23596851.4494
 -15883609.42247 -12366655.42245  22375465.8984                   22375466.2934
 11  9 22  0  6  0.0000000  0  8G02G05G12G10G30G25G26G29
 -34117980.92247 -26579226.43446  21609891.4694                   21609890.1524
 -33640589.68448 -26201302.30547  20341262.2664                   20341261.6414
 -28946006.44947 -22540261.93046  21640112.7114                   21640114.0354
 -17801316.94946 -13798555.64143  23731033.5704                   23731036.9264
 -13299126.53147 -10351699.71945  22585643.5634                   22585645.1954
 -24437905.52748 -19030401.91446  21532804.7584                   21532808.1214
  -7024561.61346  -5811768.46143  23573600.4614                   23573605.0084
 -15990965.03947 -12450309.06645  22355036.4454                   22355037.1294
 11  9 22  0  6 30.0000000  0  8G02G05G12G10G30G25G26G29
 -34103732.06647 -26568123.41046  21612603.3914                   21612601.9264
 -33640807.07848 -26201471.67247  20341220.8284                   20341220.1914
 -28902851.74247 -22506634.91446  21648324.8914                   21648325.9414
 -17721834.35246 -13736621.23443  23746158.7344                   23746161.8284
 -13351277.25447 -10392336.57845  22575719.1954                   22575721.9414
 -24451870.86348 -19041283.96146  21530147.1174                   21530150.3014
  -7146620.52746  -5906879.10543  23550374.3134                   23550377.9614
 -16098195.04347 -12533864.82845  22334631.2114                   22334632.0634
 11  9 22  0  7  0.0000000  0  8G02G05G12G10G30G25G26G29
 -34089361.26247 -26556925.37546  21615337.6484                   21615336.2704
 -33640488.30148 -26201223.25047  20341281.5314                   20341281.4344
 -28859282.04347 -22472684.53146  21656615.9064                   21656616.1884
 -17642189.89546 -13674560.62543  23761314.0864                   23761317.3134
 -13402820.60247 -10432500.19145  22565911.5084                   22565913.7034
 -24465244.46148 -19051704.91846  21527601.7974                   21527604.7464
  -7268563.70746  -6001899.48043  23527167.5704                   23527171.5164
 -16205293.19947 -12617317.85545  22314250.9694                   22314252.1294
 11  9 22  0  7 30.0000000  0  8G02G05G12G10G30G25G26G29
 -34074866.22347 -26545630.51646  21618096.3054                   21618094.9264
 -33639632.39148 -26200556.28147  20341444.3754                   20341444.0554
 -28815298.06647 -22438411.30146  21664985.6954                   21664986.0784
 -17562384.04345 -13612374.24242  23776499.7194                   23776504.2154
 -13453753.66847 -10472188.26645  22556219.4924                   22556221.1564
 -24478024.78948 -19061663.59046  21525169.9614                   21525173.6054
  -7390384.76646  -6096824.73843  23503985.4774                   23503989.3874
 -16312254.93747 -12700664.59845  22293896.9224                   22293898.7304
 11  9 22  0  8  0.0000000  0  8G02G05G12G10G30G25G26G29
 -34060246.02047 -26534238.13346  21620878.6724                   21620877.5004
 -33638240.14848 -26199471.38747  20341709.4304                   20341709.2464
 -28770901.37548 -22403816.50446  21673434.4144                   21673434.8484
 -17482418.11745 -13550063.26642  23791717.3594                   23791721.1994
 -13504075.06247 -10511399.69145  22546642.7274                   22546644.9184
 -24490211.77348 -19071159.91446  21522851.1414                   21522853.8204
  -7512079.40646  -6191651.51643  23480827.6644                   23480832.4884
 -16419077.50047 -12783902.89145  22273569.4454                   22273571.1914
 11  9 22  0  8 30.0000000  0  8G02G05G12G10G30G25G26G29
 -34045500.48047 -26522748.09046  21623684.3834                   21623683.1054
 -33636313.00848 -26197969.68447  20342076.0394                   20342075.8364
 -28726094.57048 -22368902.12146  21681960.4694                   21681961.8484
                                  23806964.7194                   23806967.7074
 -13553784.22747 -10550134.07845  22537183.9304                   22537185.4844
 -24501806.33648 -19080194.60546  21520644.8674                   21520647.2704
  -7633643.70347  -6286376.73844  23457695.0164                   23457700.3204
 -16525758.89147 -12867031.17645  22253268.2814                   22253270.3674
 11  9 22  0  9  0.0000000  0  8G02G05G12G10G30G25G26G29
 -34030628.71947 -26511159.69146  21626514.3364                   21626513.4614
 -33633851.43048 -26196051.54747  20342544.5314                   20342544.3954
 -28680879.06247 -22333669.28146  21690564.8984                   21690566.4574
                                  23822239.359
 -13602879.62547 -10588390.18745  22527841.0164                   22527842.7504
 -24512808.30948 -19088767.53946  21518550.8674                   21518553.2154
  -7755073.02047  -6380996.82043  23434587.5394                   23434591.7114
 -16632295.74647 -12950046.84046  22232995.1254                   22232997.2384
 11  9 22  0  9 30.0000000  0  7G02G05G12G30G25G26G29
 -34015632.25847 -26499474.12946  21629367.8134                   21629366.5044
 -33630858.16848 -26193719.10547  20343114.1954                   20343114.0434
 -28635258.93448 -22298121.15646  21699246.3594                   21699247.1174
 -13651362.21547 -10626168.78145  22518614.9614                   22518617.2344
 -24523219.99648 -19096880.52346  21516569.6254                   21516572.8674
  -7876365.12146  -6475509.95743  23411506.5864                   23411507.4304
 -16738687.44147 -13032949.39146  22212749.1644                   22212750.9414
 11  9 22  0 10  0.0000000  0  7G02G05G12G30G25G26G29
 -34000510.84447 -26487691.20346  21632245.7734                   21632243.8054
 -33627335.30148 -26190973.97347  20343784.0634                   20343784.3714
 -28589236.82047 -22262259.78546  21708004.2344                   21708004.9734
 -13699231.71147 -10663469.65245  22509505.6884                   22509507.7504
 -24533042.60248 -19104534.47746  21514700.5634                   21514703.3134
  -7997516.47346  -6569913.41442  23388451.4924                   23388452.4614
 -16844931.93747 -13115737.25446  22192531.8674                   22192533.3794
 11  9 22  0 10 30.0000000  0  8G02G05G12G15G30G25G26G29
 -33985266.49247 -26475812.47746  21635146.4384                   21635144.5704
 -33623286.21148 -26187818.80947  20344554.8754                   20344554.9304
 -28542817.47747 -22226088.89846  21716837.2814                   21716838.1994
   -267172.05115                  24302181.805
 -13746489.55147 -10700293.91045  22500513.1724                   22500515.0084
 -24542278.77048 -19111731.48046  21512942.9144                   21512945.7774
  -8118525.22746  -6664205.70743  23365424.3364                   23365426.2544
 -16951029.02747 -13198410.24245  22172342.4774                   22172343.0744
 11  9 22  0 11  0.0000000  0  8G02G05G12G15G30G25G26G29
 -33969900.66047 -26463839.09845  21638070.4694                   21638068.3444
 -33618714.09048 -26184256.09847  20345424.9844                   20345424.5944
 -28496005.00448 -22189611.68046  21725745.4144                   21725746.5204
   -389448.172 5                  24278913.391
 -13793136.87947 -10736642.43445  22491636.1174                   22491638.3484
 -24550931.17648 -19118473.59846  21511296.2814                   21511298.9414
  -8239389.19546  -6758385.20743  23342424.7734                   23342425.5314
 -17056978.10947 -13280967.90646  22152180.3754                   22152182.2194
 11  9 22  0 11 30.0000000  0  9G02G05G12G15G10G30G25G26G29
 -33954415.06647 -26451772.41446  21641017.3594                   21641015.8204
 -33613621.84048 -26180288.07447  20346393.5944                   20346393.7704
 -28448803.52048 -22152831.32046  21734727.8834                   21734728.1174
   -511788.766 5                  24255636.211
                                  23899046.828
 -13839174.90247 -10772516.16845  22482875.6954                   22482877.0984
 -24559002.30948 -19124762.77746  21509760.4844                   21509763.3094
  -8360106.21947  -6852450.22343  23319453.3754                   23319453.8364
 -17162778.52747 -13363409.70746  22132047.2734                   22132049.4494
 11  9 22  0 12  0.0000000  0  7G02G05G12G30G25G26G29
 -33938806.61348 -26439609.96946  21643987.7734                   21643986.3834
 -33608008.53948 -26175914.03947  20347461.9774                   20347461.4264
 -28401212.88748 -22115747.74246  21743783.5234                   21743785.1174
 -13884600.36747 -10807912.55945  22474230.9304                   22474232.8634
 -24566490.29748 -19130597.54746  21508335.4774                   21508338.5124
  -8480669.57847  -6946395.44543  23296510.0784                   23296512.6954
 -17268425.34047 -13445731.80946  22111943.5394                   22111945.3794
 11  9 22  0 12 30.0000000  0  7G02G05G12G30G25G26G29
 -33923077.72347 -26427353.70746  21646980.5704                   21646979.2894
 -33601878.25048 -26171137.16847  20348628.6564                   20348628.4264
 -28353238.14148 -22078364.85546  21752913.1094                   21752913.2894
 -13929415.45747 -10842833.37144  22465702.8284                   22465704.5354
 -24573398.75848 -19135980.76646  21507020.7894                   21507023.6954
  -8601078.27747  -7040220.19143  23273597.1644                   23273599.4184
 -17373918.62147 -13527934.28546  22091868.7504                   22091870.3404
 11  9 22  0 13  0.0000000  0  9G02G05G12G15G10G30G25G26G29
 -33907226.44547 -26415002.08646  21649996.6724                   21649995.3164
 -33595230.69148 -26165957.23047  20349893.6024                   20349892.9884
 -28304880.61348 -22040683.68046  21762115.4384                   21762115.9344
    -36042.31215                  24185724.023
    490709.72315                  23945443.547
 -13973618.40247 -10877277.18045  22457291.8364                   22457293.4024
 -24579727.17248 -19140911.99646  21505816.6884                   21505819.3094
  -8721326.76647  -7133920.09444  23250714.0234                   23250717.7154
 -17479254.99247 -13610014.48846  22071823.9534                   22071825.4804
 11  9 22  0 13 30.0000000  0  8G02G05G12G15G30G25G26G29
 -33891251.14147 -26402553.80146  21653036.6094                   21653035.6644
 -33588066.29348 -26160374.56247  20351257.2194                   20351257.2304
 -28256141.09048 -22002704.87146  21771389.7814                   21771390.8244
   -158603.566 5                  24162401.164
 -14017207.13347 -10911242.37545  22448996.8284                   22448998.7344
 -24585475.05948 -19145390.85946  21504722.9384                   21504725.9184
  -8841409.94947  -7227491.20344  23227862.5864                   23227866.6524
 -17584430.45747 -13691969.27346  22051809.4454                   22051810.7894
 11  9 22  0 14  0.0000000  0  8G02G05G12G15G30G25G26G29
 -33875153.16447 -26390009.93746  21656100.5004                   21656099.1954
 -33580387.96548 -26154391.44147  20352718.1724                   20352717.8674
 -28207023.27048 -21964431.28146  21780737.2894                   21780738.6334
   -281212.648 5                  24139068.156
 -14060182.42247 -10944729.53545  22440818.5394                   22440820.9104
 -24590644.39848 -19149418.91446  21503738.8594                   21503742.2274
  -8961324.78147  -7320931.10244  23205043.2894                   23205049.2304
 -17689443.66447 -13773797.66045  22031825.8594                   22031826.8834
 11  9 22  0 14 30.0000000  0  8G02G05G12G15G30G25G26G29
 -33858935.26247 -26377372.63346  21659186.2034                   21659185.0904
 -33572200.03148 -26148011.21147  20354276.5314                   20354276.0004
 -28157533.24248 -21925867.66846  21790154.3834                   21790155.8244
   -403869.750 5                  24115726.969
 -14102547.28147 -10977741.06645  22432757.3134                   22432758.6604
 -24595239.55548 -19152999.55546  21502864.9384                   21502867.9414
  -9081070.61747  -7414239.35944  23182256.7274                   23182262.1334
 -17794295.66047 -13855500.41445  22011873.1804                   22011874.2854
 11  9 22  0 15  0.0000000  0  8G02G05G12G15G30G25G26G29
 -33842593.16047 -26364638.53546  21662295.9614                   21662295.6174
 -33563500.16448 -26141232.07847  20355931.9614                   20355931.5204
 -28107669.54748 -21887012.84846  21799643.4694                   21799644.4344
                                  24092375.609
 -14144297.46547 -11010273.62945  22424812.5704                   22424814.3754
 -24599257.57448 -19156130.48046  21502100.0634                   21502103.0594
  -9200639.73447  -7507409.85544  23159503.6254                   23159507.6884
 -17898980.06647 -13937072.56645  21991952.5004                   21991953.4694
 11  9 22  0 15 30.0000000  0  8G02G05G12G15G30G25G26G29
 -33826131.07847 -26351810.96146  21665428.9304                   21665427.4734
 -33554294.67648 -26134058.93047  20357683.5474                   20357682.9414
 -28057439.13747 -21847872.30546  21809202.1174                   21809203.2624
   -649308.50815                  24069020.695
 -14185437.09047 -11042330.40645  22416982.8134                   22416985.3714
 -24602704.09448 -19158816.09046  21501444.2424                   21501447.4844
  -9320032.69147  -7600443.11344  23136783.6954                   23136787.3954
 -18003499.04347 -14018515.83246  21972062.7974                   21972064.5044
 11  9 22  0 16  0.0000000  0  8G02G05G12G15G30G25G26G29
 -33809549.44547 -26338890.22746  21668584.6024                   21668583.5704
 -33544586.03548 -26126493.73447  20359530.9304                   20359530.7974
 -28006845.54748 -21808448.76646  21818829.4224                   21818830.5634
   -772089.773 5                  24045655.539
 -14225966.77347 -11073911.90245  22409271.1254                   22409272.3364
 -24605580.93748 -19161057.79346  21500896.9384                   21500900.2584
  -9439246.32847  -7693336.63744  23114097.8914                   23114100.9064
 -18107851.18047 -14099829.08646  21952205.3984                   21952206.8674
 11  9 22  0 16 30.0000000  0  8G02G05G12G15G30G25G26G29
 -33792848.99648 -26325876.89546  21671762.3524                   21671761.0274
 -33534376.53148 -26118538.26647  20361473.4694                   20361473.3984
 -27955891.72748 -21768744.53546  21828525.6644                   21828527.1374
                                  24022281.195
 -14265886.98447 -11105018.51645  22401674.0474                   22401675.5944
 -24607890.02048 -19162857.08246  21500457.6644                   21500460.7424
  -9558277.55947  -7786088.03944  23091447.2894                   23091449.7934
 -18212034.89148 -14181011.09446  21932379.9304                   21932380.6294
 11  9 22  0 17  0.0000000  0  8G02G05G12G15G30G25G26G29
 -32200607.19147 -25085169.00445  21974755.9844                   21974753.8674
 -31948245.44148 -24882591.93747  20663304.2344                   20663304.1294
 -26329159.66048 -20501161.15246  22138082.2424                   22138083.2344
                                  24298695.313
 -12729773.35947  -9908046.80545  22693987.3594                   22693988.6414
 -23034209.60248 -17936612.62146  21799918.8594                   21799922.3134
  -8101695.66847  -6651088.92644  23368624.5004                   23368626.0864
 -16740621.33247 -13034454.97746  22212380.3524                   22212381.0664
 11  9 22  0 17 30.0000000  0  8G02G05G12G15G30G25G26G29
 -32183663.79747 -25071966.34846  21977980.2504                   21977978.8794
 -31937035.12548 -24873856.60547  20665437.9064                   20665437.3754
 -26277489.82448 -20460898.98046  22147915.3984                   22147916.2774
                                  24275310.805
 -12768470.13347  -9938200.07845  22686623.4144                   22686625.2304
 -23035382.59048 -17937526.65246  21799695.8054                   21799698.9104
  -8220346.67247  -6743544.03944  23346045.7814                   23346046.0944
 -16844456.74648 -13115365.58646  22192621.1884                   22192621.6334
 11  9 22  0 18  0.0000000  0  8G02G05G12G15G30G25G26G29
 -32166600.07047 -25058669.93745  21981226.7274                   21981226.1484
 -31925328.23848 -24864734.33247  20667665.2344                   20667664.5044
 -26225467.41048 -20420362.06646  22157814.6724                   22157816.0554
    311869.188 5                  24251921.289
 -12806556.09047  -9967877.41045  22679376.1024                   22679377.4454
 -23035990.56648 -17938000.41446  21799580.3204                   21799583.1294
  -8338802.40647  -6835847.03144  23323504.6094                   23323505.9224
 -16948115.67247 -13196138.68046  22172895.3594                   22172896.3794
 11  9 22  0 18 30.0000000  0  8G02G05G12G15G30G25G26G29
 -32149415.71547 -25045279.51645  21984497.0944                   21984495.4224
 -31913126.29748 -24855226.29347  20669987.2344                   20669987.2074
 -26173094.51247 -20379552.04746  22167781.0234                   22167782.2194
    188932.469 5                  24228529.148
 -12844031.11747  -9997078.68745  22672244.5704                   22672246.7234
 -23036034.59448 -17938034.73446  21799571.8834                   21799575.0434
  -8457059.30946  -6927995.07044  23301001.0004                   23301002.9144
 -17051595.55148 -13276772.26646  22153203.9224                   22153205.1094
 11  9 22  0 19  0.0000000  0  8G02G05G12G15G30G25G26G29
 -32132109.17247 -25031793.87945  21987790.7274                   21987789.2114
 -31900429.60548 -24845332.75847  20672403.2894                   20672402.9184
 -26120372.98447 -20338470.37946  22177813.7114                   22177814.5824
     65974.56646   -602042.60553  24205131.6644                   24205136.4414
 -12880893.85547 -10025802.84845  22665229.5234                   22665231.8484
 -23035514.75848 -17937629.68046  21799670.2274                   21799673.8524
  -8575112.10246  -7019984.06244  23278535.9694                   23278538.2734
 -17154892.93448 -13357263.64846  22133546.8134                   22133547.8524
 11  9 22  0 19 30.0000000  0  8G02G05G12G15G30G25G26G29
 -32114680.64848 -25018213.19946  21991107.2664                   21991106.1334
 -31887241.29748 -24835056.11746  20674912.9694                   20674912.6174
 -26067305.87148 -20297119.40646  22187912.7194                   22187913.0314
    -57002.03946   -697868.14843  24181729.9064                   24181735.8754
 -12917145.17247 -10054050.59045  22658331.3054                   22658332.5354
 -23034433.23448 -17936786.93746  21799876.2734                   21799879.4064
  -8692957.93446  -7111811.75444  23256109.3674                   23256113.1684
 -17258006.20348 -13437611.55946  22113925.2274                   22113926.3914
 11  9 22  0 20  0.0000000  0  8G02G05G12G15G30G25G26G29
 -32097130.42647 -25004537.67245  21994446.6564                   21994445.8404
 -31873562.84448 -24824397.55547  20677515.8444                   20677515.4304
 -26013896.58647 -20255501.80146  22198075.5474                   22198076.5044
   -179994.76646   -793706.20343  24158324.7974                   24158330.1294
 -12952785.41847 -10081822.15245  22651549.1414                   22651550.6884
 -23032791.61748 -17935507.76646  21800189.0784                   21800191.7584
  -8810593.11746  -7203475.35944  23233724.9224                   23233728.9884
 -17360933.41448 -13517814.48846  22094338.6254                   22094338.8634
 11  9 22  0 20 30.0000000  0  8G02G05G12G15G30G25G26G29
 -32079459.61747 -24990768.19945  21997809.0704                   21997807.7894
 -31859397.87548 -24813359.89847  20680211.0474                   20680210.8094
 -25960148.72348 -20213620.37546  22208303.4844                   22208303.9774
   -303001.97346   -889555.59443  24134916.4064                   24134923.0204
 -12987815.84447 -10109118.57045  22644883.5944                   22644885.0864
 -23030592.52048 -17933794.18446  21800607.1564                   21800609.9144
  -8928014.96546  -7294972.73044  23211381.0004                   23211382.9414
 -17463673.55548 -13597871.66846  22074787.7504                   22074788.2504
 11  9 22  0 21  0.0000000  0  8G02G05G12G15G30G25G26G29
 -32061668.62147 -24976905.07046  22001194.9694                   22001192.7114
 -31844748.70348 -24801944.93447  20682998.8364                   20682998.3324
 -25906066.13348 -20171478.13346  22218595.1724                   22218596.0784
   -426021.55146   -985414.59043  24111506.6254                   24111512.7304
 -13022237.31647 -10135940.43445  22638332.9694                   22638333.8524
 -23027838.12148 -17931647.91046  21801131.8134                   21801134.3954
  -9045220.42246  -7386301.47744  23189077.1484                   23189079.2344
 -17566224.77748 -13677781.62546  22055272.5634                   22055274.0044
 11  9 22  0 21 30.0000000  0  8G02G05G12G15G30G25G26G29
 -32043757.98047 -24962948.69945  22004603.0944                   22004600.9064
 -31829618.25848 -24790154.96147  20685878.3134                   20685878.1334
 -25851652.35948 -20129077.80946  22228949.8594                   22228950.7274
   -549051.53546  -1081281.69543  24088094.3284                   24088100.3364
 -13056050.93447 -10162288.66445  22631897.8594                   22631899.9104
 -23024530.80948 -17929070.79346  21801761.0314                   21801764.0354
  -9162206.63746  -7477459.40644  23166815.1094                   23166816.6054
 -17668585.93747 -13757543.48846  22035794.0084                   22035795.4694
 11  9 22  0 22  0.0000000  0  8G02G05G12G15G30G25G26G29
 -32025727.40648 -24948898.86745  22008034.3444                   22008031.8674
 -31814007.82448 -24777990.96547  20688848.9454                   20688848.6994
 -25796910.14548 -20086421.55945  22239366.4304                   22239367.5204
   -672088.18746  -1177154.05943  24064681.0314                   24064685.7154
 -13089256.48847 -10188163.10945  22625579.5704                   22625580.9224
 -23020671.72348 -17926063.71146  21802495.5164                   21802497.7274
  -9278969.26647  -7568443.13344  23144596.4144                   23144598.0664
 -17770754.35548 -13837155.16846  22016352.0474                   22016353.3054
 11  9 22  0 22 30.0000000  0  8G02G05G12G15G30G25G26G29
 -32007574.82048 -24934753.94145  22011488.6484                   22011486.5634
 -31797917.56648 -24765453.07847  20691910.7034                   20691910.4144
 -25741840.58647 -20043510.24646  22249845.8754                   22249847.5824
   -795127.44546  -1273028.46143  24041267.9924                   24041270.3204
 -13121852.65247 -10213562.68445  22619376.3444                   22619377.7034
 -23016260.77748 -17922626.61346  21803334.6724                   21803337.2464
  -9395502.97347  -7659248.45344  23122420.1414                   23122422.6684
 -17872726.05547 -13916613.57046  21996947.2584                   21996948.5904
 11  9 22  0 23  0.0000000  0  8G02G05G12G15G30G25G26G29
 -31989303.43448 -24920516.46945  22014965.3754                   22014964.3134
 -31781352.90248 -24752545.52747  20695062.5084                   20695062.3674
 -25686448.89848 -20000347.91846  22260386.8444                   22260387.6094
   -918169.04746  -1368904.68043  24017853.1884                   24017856.4064
 -13153842.59847 -10238489.87145  22613288.8524                   22613290.4734
 -23011302.54348 -17918763.05146  21804278.4064                   21804281.3984
  -9511806.96946  -7749874.79744  23100288.4454                   23100290.3244
 -17974501.38747 -13995918.95746  21977580.2664                   21977581.2384
 11  9 22  0 23 30.0000000  0  8G02G05G12G15G30G25G26G29
 -31970913.91048 -24906186.96545  22018464.8594                   22018464.1024
 -31764316.52048 -24739270.39547  20698304.8364                   20698304.5234
 -25630739.64547 -19956938.12945  22270987.4924                   22270988.1214
  -1041211.06246  -1464781.21943  23994438.3984                   23994442.4104
 -13185227.71947 -10262945.77345  22607316.5474                   22607318.3364
 -23005799.57448 -17914475.02046  21805325.2194                   21805328.0434
  -9627878.32846  -7840319.82844  23078200.6644                   23078202.3134
 -18076079.34847 -14075070.54346  21958250.8054                   21958251.4494
 11  9 22  0 24  0.0000000  0  8G02G05G12G15G30G25G26G29
 -31952404.68448 -24891764.17245  22021987.0704                   22021985.9694
 -31746809.30548 -24725628.39147  20701636.1334                   20701635.7274
 -25574714.22748 -19913281.98845  22281649.5864                   22281649.3484
  -1164249.00446  -1560654.59043  23971025.0864                   23971028.8094
 -13216006.97747 -10286929.57845  22601459.6954                   22601460.8984
 -22999752.23848 -17909762.80546  21806476.0704                   21806478.7734
  -9743712.10246  -7930579.71144  23056156.9454                   23056160.7544
 -18177456.23447 -14154065.44546  21938959.0864                   21938959.6764
 11  9 22  0 24 30.0000000  0  8G02G05G12G15G30G25G26G29
 -31933773.87148 -24877246.63345  22025532.3364                   22025531.1294
 -31728831.46548 -24711619.66047  20705057.1564                   20705057.1954
 -25518373.86748 -19869380.42245  22292370.7344                   22292370.7424
  -1287278.76646  -1656521.58243  23947612.4774                   23947615.9414
 -13246179.24647 -10310440.40645  22595717.8914                   22595720.2034
 -22993160.53548 -17904626.41046  21807730.3284                   21807733.4924
  -9859302.79747  -8020650.21544  23034160.8284                   23034164.6524
 -18278628.28547 -14232900.75046  21919706.6174                   21919706.9224
 11  9 22  0 25  0.0000000  0  9G02G05G12G15G30G25G26G29G21
 -31915029.70347 -24862640.76645  22029098.9614                   22029098.2814
 -31710393.34448 -24697252.27347  20708565.9924                   20708565.9574
 -25461729.57847 -19825242.06245  22303149.5164                   22303151.3674
  -1410305.43446  -1752386.18443  23924201.8524                   23924204.4614
 -13275753.11347 -10333484.94945  22590090.5394                   22590092.2154
 -22986034.50848 -17899073.68046  21809086.4144                   21809089.2974
  -9974655.07847  -8110534.94944  23012210.1094                   23012213.1884
 -18379601.37548 -14311581.00446  21900491.9694                   21900492.6054
   1446694.81616                  25245925.031
 11  9 22  0 25 30.0000000  0  9G02G05G12G15G30G25G26G29G21
 -31896174.66847 -24847948.51645  22032686.9144                   22032686.3094
 -31691499.73848 -24682529.96546  20712161.0704                   20712160.8324
 -25404787.33248 -19780871.50445  22313985.2034                   22313986.5234
  -1533328.81646  -1848248.23043  23900790.4454                   23900793.5394
 -13304731.71547 -10356065.65245  22584575.7664                   22584577.0434
 -22978378.53148 -17893107.98446  21810543.4924                   21810546.2194
 -10089767.61347  -8200232.83645  22990304.6174                   22990307.6174
 -18480375.78148 -14390106.45746  21881314.9774                   21881315.2234
   1362544.801 6                  25229910.984
 11  9 22  0 26  0.0000000  0  9G02G05G12G15G30G25G26G29G21
 -31877211.96947 -24833172.37545  22036295.4614                   22036294.3484
 -31672155.88348 -24667456.80946  20715842.4694                   20715841.9884
 -25347552.78148 -19736273.19545  22324877.1024                   22324878.1174
  -1656349.10246  -1944107.87143  23877379.9384                   23877383.2974
 -13333118.77347 -10378185.41845  22579173.6644                   22579175.3054
 -22970197.52748 -17886733.18446  21812099.9534                   21812102.8984
 -10204639.84047  -8289743.46145  22968444.9844                   22968448.4614
 -18580952.66448 -14468478.00046  21862175.8914                   21862176.9384
   1278412.59045   1008244.85952  25213900.7894                   25213907.7974
 11  9 22  0 26 30.0000000  0  9G02G05G12G15G30G25G26G29G21
 -31858140.24247 -24818311.27745  22039924.5554                   22039923.7504
 -31652362.48848 -24652033.37147  20719608.7424                   20719608.3754
 -25290028.30548 -19691448.94545  22335823.3524                   22335824.2344
  -1779362.32046  -2039961.96943  23853971.8054                   23853974.3244
 -13360913.85547 -10399843.90245  22573884.2894                   22573886.8244
 -22961492.27048 -17879949.87946  21813756.6484                   21813760.0004
 -10319267.21147  -8379063.31645  22946632.9534                   22946634.5354
 -18681328.71948 -14546693.04746  21843074.8984                   21843074.9614
   1194299.37145    942702.25043  25197894.3524                   25197899.4774
 11  9 22  0 27  0.0000000  0  9G02G05G12G15G30G25G26G29G21
 -31838949.88747 -24803357.76245  22043576.5164                   22043575.0164
 -31632112.96548 -24636254.51246  20723462.2034                   20723461.2734
 -25232207.13348 -19646393.51245  22346826.3054                   22346826.8094
  -1902356.30146  -2135801.09843  23830565.6954                   23830568.2734
 -13388108.02047 -10421034.12545  22568709.8204                   22568711.4734
 -22952255.23448 -17872752.19946  21815514.7274                   21815517.8914
 -10433636.66847  -8468182.23444  22924869.0864                   22924870.3954
 -18781492.24248 -14624742.48446  21824014.3594                   21824015.0554
   1110214.17245    877181.42642  25181894.7584                   25181897.4654
 11  9 22  0 27 30.0000000  0  9G02G05G12G15G30G25G26G29G21
 -31819633.28547 -24788305.85945  22047252.7974                   22047250.7154
 -31611401.36348 -24620115.58646  20727403.4064                   20727402.7664
 -25174085.14147 -19601103.68045  22357886.5394                   22357887.8324
  -2025320.94946  -2231617.35943  23807166.7114                   23807169.4534
 -13414694.67247 -10441750.96545  22563650.2584                   22563650.9534
 -22942480.93048 -17865135.86746  21817374.6094                   21817377.5634
 -10547736.97346  -8557091.37144  22903155.2344                   22903157.1884
 -18881433.37547 -14702618.64146  21804996.4694                   21804996.0084
   1026163.66045    811687.71943  25165898.9614                   25165902.6134
 11  9 22  0 28  0.0000000  0  9G02G05G12G15G30G25G26G29G21
 -31800189.04347 -24773154.52345  22050952.9454                   22050950.9654
 -31590228.89548 -24603617.53546  20731431.8674                   20731431.8054
 -25115663.64147 -19555580.47745  22369003.6414                   22369004.5314
  -2148251.57446  -2327407.12943  23783773.4144                   23783776.7734
 -13440672.91447 -10461993.73445  22558706.7974                   22558708.5824
 -22932169.78548 -17857101.21546  21819336.7664                   21819339.8674
 -10661563.02346  -8645786.82444  22881494.4224                   22881496.1844
 -18981148.71547 -14780318.85246  21786021.0234                   21786022.2034
    942148.89545    746221.80543  25149912.0634                   25149916.0234
 11  9 22  0 28 30.0000000  0  9G02G05G12G15G30G25G26G29G21
 -31780618.73847 -24757904.94945  22054676.9694                   22054675.4924
 -31568599.46148 -24586763.43747  20735548.1644                   20735547.9384
 -25056947.53947 -19509827.69145  22380176.6484                   22380178.0824
  -2271146.78546  -2423169.25843  23760386.8984                   23760390.1564
 -13466045.12547 -10481764.26645  22553879.1094                   22553880.6094
 -22921325.26248 -17848650.95346  21821400.2424                   21821403.5904
 -10775112.58647  -8734266.82844  22859887.3674                   22859888.4574
 -19080637.33647 -14857842.40246  21767089.3134                   21767089.5864
    858167.69946    680782.05143  25133930.5944                   25133935.1024
 11  9 22  0 29  0.0000000  0  9G02G05G12G15G30G25G26G29G21
 -31760927.87947 -24742561.42245  22058423.9614                   22058421.2154
 -31546520.71947 -24569559.20746  20739749.8834                   20739749.0044
 -24997945.16447 -19463851.88345  22391404.7194                   22391406.0314
  -2394009.56246  -2518906.13343  23737006.8594                   23737010.1804
 -13490817.61347 -10501067.47745  22549164.6804                   22549166.4144
 -22909955.11748 -17839791.11346  21823564.1954                   21823567.0274
 -10888387.71947  -8822533.00844  22838331.5164                   22838333.9804
 -19179903.00047 -14935192.22346  21748199.4144                   21748200.4064
    774213.58646    615363.38743  25117954.8054                   25117959.2234
 11  9 22  0 29 30.0000000  0  9G02G05G12G15G30G25G26G29G21
 -31741116.88747 -24727124.30545  22062193.7734                   22062192.6914
 -31523995.57848 -24552007.15646  20744035.9534                   20744035.5744
 -24938660.89547 -19417656.37945  22402685.9614                   22402687.4694
  -2516837.77346  -2614616.09044  23713632.8204                   23713635.9024
 -13514991.91847 -10519904.58245  22544564.9064                   22544565.9304
 -22898061.98048 -17830523.75446  21825826.9534                   21825830.0904
 -11001385.45347  -8910583.03145  22816829.1954                   22816830.9264
 -19278943.99647 -15012366.97346  21729352.1334                   21729353.1454
    690285.80546    549965.23843  25101985.1564                   25101987.5354
 11  9 22  0 30  0.0000000  0  9G02G05G12G15G30G25G26G29G21
 -31721183.24647 -24711591.61745  22065987.1174                   22065985.8484
 -31501023.70748 -24534106.98046  20748407.7114                   20748406.8134
 -24879094.77047 -19371241.27345  22414021.3914                   22414022.8484
  -2639625.84847  -2710294.77344  23690267.4304                   23690270.4654
 -13538566.15647 -10538274.10245  22540078.3594                   22540080.4654
 -22885645.21148 -17820848.35546  21828189.8204                   21828192.8554
 -11114099.55547  -8998412.02745  22795380.2584                   22795382.1604
 -19377755.51247 -15089362.90246  21710549.1334                   21710550.0704
    606386.32846    484589.18043  25086017.7504                   25086022.0704
 11  9 22  0 30 30.0000000  0  9G02G05G12G15G30G25G26G29G21
 -31701130.07447 -24695965.77045  22069802.6414                   22069801.4384
 -31477610.74648 -24515863.10546  20752862.9454                   20752862.7154
 -24819253.04747 -19324611.37945  22425408.7814                   22425409.8484
  -2762374.32047  -2805942.58244  23666908.4454                   23666911.7664
 -13561544.56247 -10556179.33645  22535705.6414                   22535707.5434
 -22872710.28148 -17810769.20346  21830651.3914                   21830654.5514
 -11226529.65647  -9086019.75045  22773985.0474                   22773987.5634
 -19476338.77047 -15166180.95746  21691789.1254                   21691790.1884
    522510.93846    419231.89843  25070057.2034                   25070060.9844
 11  9 22  0 31  0.0000000  0  9G02G05G12G15G30G25G26G29G21
 -31680955.19547 -24680245.07445  22073641.9144                   22073640.5474
 -31453756.67248 -24497275.51646  20757401.7344                   20757401.5234
 -24759136.72347 -19277767.52045  22436848.7424                   22436849.8094
  -2885077.87547  -2901555.41843  23643557.8134                   23643561.6954
 -13583925.82447 -10573619.26645  22531446.8834                   22531448.0744
 -22859256.98848 -17800286.14546  21833211.5164                   21833214.6334
 -11338669.97347  -9173401.70345  22752645.7734                   22752647.8054
 -19574689.15247 -15242817.58246  21673073.6564                   21673075.0314
    438661.74646    353894.99643  25054100.0944                   25054102.8834
 11  9 22  0 31 30.0000000  0  9G02G05G12G15G30G25G26G29G21
 -31660661.40647 -24664431.74245  22077503.7894                   22077501.5274
 -31429466.98048 -24478348.48846  20762024.4144                   20762023.6764
 -24698752.26647 -19230714.75045  22448339.4454                   22448341.2974
  -3007736.93446  -2997133.56643  23620216.7194                   23620220.0204
 -13605713.82847 -10590596.91445  22527301.1564                   22527302.4964
 -22845290.54748 -17789403.21546  21835869.1954                   21835872.1764
 -11450519.90647  -9260557.36344  22731360.6484                   22731362.6454
 -19672807.72747 -15319273.54346  21654402.3204                   21654403.4454
    354834.88346    288575.50043  25038149.0394                   25038150.5634
 11  9 22  0 32  0.0000000  0  9G02G05G12G15G30G25G26G29G21
 -31640247.14147 -24648524.52345  22081388.6334                   22081386.7504
 -31404741.87548 -24459082.17246  20766729.4614                   20766728.8404
 -24638100.81247 -19183453.92645  22459881.4384                   22459882.3834
  -3130346.69947  -3092673.35943  23596884.9614                   23596886.4924
 -13626907.97747 -10607111.82445  22523267.3134                   22523269.4024
 -22830811.44148 -17778120.80946  21838624.5394                   21838627.0354
 -11562074.37947  -9347482.78544  22710132.5784                   22710132.7114
 -19770690.36748 -15395545.67246  21635775.8984                   21635776.6254
    271031.21946    223274.12143  25022200.9454                   25022203.2624
 11  9 22  0 32 30.0000000  0  9G02G05G12G15G30G25G26G29G21
 -31619712.26647 -24632523.33645  22085296.9534                   22085295.0234
 -31379584.64848 -24439479.12146  20771516.9224                   20771515.8324
 -24577185.64847 -19135987.60245  22471472.7114                   22471474.4144
  -3252904.97747  -3188173.01244  23573562.8594                   23573565.0314
 -13647509.61747 -10623165.05145  22519347.1644                   22519348.4144
 -22815822.26248 -17766440.95346  21841477.0864                   21841479.6954
 -11673329.79747  -9434175.21944  22688961.1564                   22688960.7584
 -19868335.58648 -15471632.78146  21617194.2194                   21617195.2274
    187250.03146    157990.22743  25006258.3364                   25006259.9494
 11  9 22  0 33  0.0000000  0  9G02G05G12G15G30G25G26G29G21
 -31599059.44148 -24616430.21545  22089226.3204                   22089225.5984
 -31353999.90248 -24419542.94546  20776385.1174                   20776385.2194
 -24516012.73047 -19088320.43045  22483114.1564                   22483114.8954
  -3375411.25047  -3283632.16444  23550250.2584                   23550251.9264
 -13667522.06247 -10638759.16845  22515538.7114                   22515541.2114
 -22800327.40648 -17754367.05946  21844425.4844                   21844428.4924
 -11784285.11347  -9520633.78144  22667847.4224                   22667847.8134
 -19965743.32048 -15547534.84446  21598658.3914                   21598658.6954
    103488.54746     92721.67643  24990318.9534                   24990319.5084
 11  9 22  0 33 30.0000000  0  9G02G05G12G15G30G25G26G29G21
 -31578282.95348 -24600240.73845  22093180.1414                   22093178.0944
 -31327984.65648 -24399271.32446  20781335.7114                   20781335.6884
 -24454579.79347 -19040450.63345  22494804.2424                   22494805.0514
  -3497857.06647  -3379044.22344  23526949.4694                   23526951.4104
 -13686941.15647 -10653890.93445  22511843.2424                   22511845.0904
 -22784323.98448 -17741896.87946  21847470.8524                   21847474.0824
 -11894931.52347  -9606851.66445  22646791.9064                   22646792.9104
 -20062905.92648 -15623245.90246  21580169.1334                   21580169.4264
     19751.13346     27471.84043  24974384.1724                   24974385.0784
 11  9 22  0 34  0.0000000  0  9G02G05G12G15G30G25G26G29G21
 -31557390.52747 -24583960.92645  22097156.3134                   22097154.3714
 -31301548.46948 -24378671.69546  20786366.2584                   20786366.1054
 -24392897.32847 -18992386.41445  22506541.6884                   22506543.6214
  -3620247.00847  -3474412.71144  23503659.7974                   23503661.7704
 -13705775.22347 -10668566.80145  22508259.2504                   22508261.2274
 -22767821.42248 -17729037.75446  21850611.2424                   21850614.3164
 -12005272.50447  -9692831.56245  22625795.5164                   22625795.9574
 -20159828.88748 -15698770.21546  21561725.2974                   21561725.2854
    -63969.82846    -37765.14543  24958452.0164                   24958453.3364
 11  9 22  0 34 30.0000000  0  9G02G05G12G15G30G25G26G29G21
 -31536376.25448 -24567586.13745  22101155.2274                   22101152.9224
 -31274687.96148 -24357741.42646  20791477.8134                   20791477.6564
 -24330962.26247 -18944125.36345  22518328.3284                   22518328.1764
  -3742572.49247  -3569730.99244  23480380.8674                   23480384.4694
 -13724019.46947 -10682783.09445  22504787.4064                   22504788.2274
 -22750816.16448 -17715786.91846  21853847.2734                   21853850.4384
 -12115298.59847  -9778566.03545  22604857.1954                   22604858.8484
 -20256503.99648 -15774101.37946  21543328.4844                   21543328.8444
   -147669.20746   -102985.35243  24942524.2424                   24942526.1564
 11  9 22  0 35  0.0000000  0  9G02G05G12G15G30G25G26G29G21
 -31515243.00848 -24551118.67245  22105176.2114                   22105174.8164
 -31247408.89548 -24336484.99646  20796668.7814                   20796668.4534
 -24268781.69147 -18895672.99645  22530160.0944                   22530161.2774
  -3864833.69547  -3664999.18444  23457115.6484                   23457119.4454
 -13741678.58247 -10696543.43045  22501427.2814                   22501427.7464
 -22733313.92248 -17702148.82046  21857177.7344                   21857181.2274
 -12225009.71147  -9864055.11345  22583979.9774                   22583981.8484
 -20352932.31648 -15849240.24646  21524978.7034                   21524978.9654
   -231351.10946   -168191.92643  24926600.6724                   24926601.4144
 11  9 22  0 35 30.0000000  0  9G02G05G12G15G30G25G26G29G21
 -31493988.85547 -24534556.96945  22109220.8444                   22109219.2544
 -31219711.75848 -24314902.80946  20801939.4844                   20801938.8484
 -24206356.54747 -18847030.08645  22542039.9384                   22542041.0864
  -3987026.12547  -3760213.82044  23433862.6954                   23433865.8984
 -13758751.61747 -10709847.09845  22498178.7734                   22498179.1054
 -22715314.96148 -17688123.66846  21860602.8444                   21860605.8324
 -12334400.46547  -9949294.53945  22563163.2584                   22563165.4924
 -20449109.80948 -15924183.66046  21506676.6094                   21506676.9614
   -315014.21546   -233383.86343  24910680.0944                   24910680.9614
 11  9 22  0 36  0.0000000  0  9G02G05G12G15G30G25G26G29G21
 -31472613.71147 -24517900.99245  22113288.1804                   22113286.6564
 -31191598.96548 -24292996.73446  20807289.0164                   20807288.4224
 -24143690.02347 -18798199.07845  22553964.4384                   22553965.1174
  -4109146.78547  -3855372.51644  23410624.0554                   23410626.5314
 -13775239.85247 -10722695.07445  22495041.1094                   22495042.0554
 -22696821.69148 -17673713.34846  21864121.9224                   21864125.1174
 -12443467.07447 -10034281.37144  22542408.2114                   22542410.4884
 -20545034.40248 -15998930.01246  21488423.1254                   21488422.7814
   -398659.05946   -298561.57043  24894763.0554                   24894765.1054
 11  9 22  0 36 30.0000000  0  9G02G05G12G15G30G25G26G29G21
 -31451116.57847 -24501149.96145  22117378.9304                   22117377.0004
 -31163071.93048 -24270767.85546  20812717.3524                   20812717.3714
 -24080784.54747 -18749181.85245  22565935.3594                   22565935.3484
  -4231191.92247  -3950472.38344  23387399.0864                   23387402.4024
 -13791143.57047 -10735087.56645  22492014.2344                   22492016.1054
 -22677835.50848 -17658918.92246  21867734.9614                   21867738.1644
 -12552205.23047 -10119012.28544  22521715.7344                   22521717.7774
 -20640702.90648 -16073476.79746  21470217.4534                   21470217.7304
   -482285.20346   -363724.70743  24878849.8754                   24878852.2194
 11  9 22  0 37  0.0000000  0  9G02G05G12G15G30G25G26G29G21
 -31429498.56247 -24484304.72745  22121492.5084                   22121490.8914
 -31134134.40248 -24248219.11746  20818224.0554                   20818223.7194
 -24017644.34447 -18699981.72745  22577950.2974                   22577951.2734
  -4353159.69547  -4045511.97344  23364189.3444                   23364192.9414
 -13806465.13347 -10747026.46545  22489099.0704                   22489099.8054
 -22658359.91448 -17643743.14546  21871441.0314                   21871444.0164
 -12660612.37947 -10203485.27745  22501086.9224                   22501087.7154
 -20736114.16448 -16147823.14146  21452061.2584                   21452061.6914
   -565894.15646   -428874.50043  24862939.5784                   24862941.7814
 11  9 22  0 37 30.0000000  0  9G02G05G12G15G30G25G26G29G21
 -31407760.78147 -24467366.18045  22125629.2194                   22125627.5314
 -31104789.70348 -24225353.12946  20823808.0554                   20823808.0514
 -23954273.73447 -18650602.08645  22590009.7974                   22590009.9024
  -4475048.54347  -4140490.03544  23340994.1884                   23340997.6804
 -13821207.16447 -10758513.75845  22486293.5004                   22486293.9144
 -22638398.54748 -17628188.85246  21875239.4384                   21875243.0634
 -12768686.20347 -10287698.55145  22480522.2034                   22480522.3984
 -20831267.07448 -16221968.15646  21433954.2114                   21433954.6524
   -649488.24246   -494012.67243  24847032.1414                   24847035.0434
 11  9 22  0 38  0.0000000  0  9G02G05G12G15G30G25G26G29G21
 -31385902.41047 -24450333.64545  22129788.5084                   22129787.8284
 -31075039.81648 -24202171.39546  20829469.1804                   20829469.0124
 -23890674.97747 -18601044.64145  22602112.2274                   22602113.6524
  -4596854.72347  -4235403.68044  23317815.1024                   23317818.5514
 -13835370.03147 -10769549.75045  22483598.1024                   22483599.7154
 -22617953.00447 -17612257.27046  21879130.3204                   21879133.9844
 -12876422.56247 -10371648.87545  22460020.0704                   22460020.8674
 -20926158.77048 -16295909.64146  21415896.6724                   21415897.1604
   -733067.18746   -559139.03543  24831128.0944                   24831131.6954
 11  9 22  0 38 30.0000000  0  9G02G05G12G15G30G25G26G29G21
 -31363923.05948 -24433206.85945  22133971.2034                   22133970.2974
 -31044887.10948 -24178675.75846  20835207.0084                   20835206.9774
 -23826851.04347 -18551311.76245  22614257.0474                   22614259.5664
  -4718575.17247  -4330250.57045  23294652.5634                   23294655.6134
 -13848955.10947 -10780135.52745  22481012.9454                   22481014.6174
 -22597025.68048 -17595950.26646  21883112.8674                   21883115.6884
 -12983817.55947 -10455333.19545  22439583.0864                   22439584.2074
 -21020787.10548 -16369645.90646  21397889.5084                   21397889.7624
   -816631.50846   -624254.05943  24815226.3594                   24815229.4804
 11  9 22  0 39  0.0000000  0  9G02G05G12G15G30G25G26G29G21
 -31341820.37547 -24415983.96145  22138177.1334                   22138175.3134
 -31014331.66048 -24154866.30546  20841021.7734                   20841020.9844
 -23762803.52047 -18501404.63745  22626445.0634                   22626447.0004
  -4840204.54747  -4425026.50044  23271507.2584                   23271510.1564
 -13861961.34047 -10790270.22745  22478538.2504                   22478540.0394
 -22575616.63348 -17579267.89846  21887186.6254                   21887190.4184
 -13090865.57047 -10538747.11345  22419211.8444                   22419213.5274
 -21115147.48848 -16443173.36346  21379933.4614                   21379934.0274
   -900179.14846   -689356.09443  24799326.9534                   24799330.0274
 11  9 22  0 39 30.0000000  0  9G02G05G12G15G30G25G26G29G21
 -31319597.14147 -24398667.12545  22142405.7344                   22142403.5744
 -30983378.82848 -24130747.20346  20846911.9924                   20846911.3714
 -23698538.07847 -18451327.69945  22638674.1094                   22638676.5084
  -4961743.39147  -4519731.83644  23248378.6644                   23248381.9064
 -13874392.97347 -10799957.22745  22476172.3984                   22476174.7384
 -22553731.14848 -17562214.29346  21891351.3284                   21891354.1724
 -13197565.71947 -10621889.96945  22398907.3364                   22398909.8914
 -21209240.39848 -16516492.41446  21362027.8984                   21362028.4574
   -983713.84046   -754448.04743  24783430.1954                   24783433.2154
 11  9 22  0 40  0.0000000  0  9G02G05G12G15G30G25G26G29G21
 -31297251.91847 -24381255.25445  22146658.4454                   22146656.8444
 -30952029.78148 -24106319.36346  20852877.3984                   20852876.7624
 -23634056.68047 -18401082.53145  22650945.5944                   22650947.3134
  -5083187.05947  -4614363.05544  23225268.3834                   23225271.1024
 -13886250.25047 -10809196.65645  22473915.8594                   22473917.7194
 -22531370.60548 -17544790.48846  21895606.3054                   21895609.2344
 -13303913.14147 -10704758.00445  22378670.8134                   22378672.6094
 -21303062.55948 -16589600.50046  21344174.0634                   21344174.7894
  -1067234.81646   -819529.33243  24767536.3444                   24767539.9144
 11  9 22  0 40 30.0000000  0  9G02G05G12G15G30G25G26G29G21
 -31274786.60547 -24363749.81245  22150933.5234                   22150931.6884
 -30920288.53148 -24081585.91446  20858917.7194                   20858917.0274
 -23569364.35547 -18350672.96545  22663255.6334                   22663257.4264
  -5204534.21547  -4708919.07045  23202177.5784                   23202179.6914
 -13897536.33247 -10817991.00445  22471768.2664                   22471770.7934
 -22508539.14848 -17526999.75446  21899950.7664                   21899954.0944
 -13409906.28547 -10787349.96945  22358500.6094                   22358502.6524
 -21396613.60948 -16662497.33246  21326371.9144                   21326372.2664
  -1150744.29746   -884601.63743  24751645.6954                   24751648.4844
 11  9 22  0 41  0.0000000  0  9G02G05G12G15G30G25G26G29G21
 -31252199.12548 -24346149.16445  22155231.7584                   22155229.8364
 -30888156.21148 -24056547.73846  20865032.1484                   20865031.0514
 -23504462.48447 -18300100.11345  22675606.5864                   22675607.8284
  -5325780.37947  -4803396.37945  23179104.6644                   23179107.1914
 -13908250.84047 -10826339.97345  22469729.1414                   22469730.9884
 -22485237.53948 -17508842.66846  21904384.9384                   21904388.8364
 -13515539.73847 -10869661.65645  22338399.3754                   22338399.9384
 -21489889.40248 -16735179.65646  21308621.9224                   21308621.8984
  -1234241.26646   -949664.16843  24735756.2584                   24735759.3484
 11  9 22  0 41 30.0000000  0  9G02G05G12G15G30G25G26G29G21
 -31229490.93047 -24328454.42645  22159552.6334                   22159550.5664
 -30855636.66448 -24031207.80546  20871220.4224                   20871219.6684
 -23439355.61747 -18249367.54745  22687995.1564                   22687997.3364
  -5446924.32447  -4897794.05145  23156051.5634                   23156053.7584
 -13918396.91047 -10834246.00845  22467798.5554                   22467800.3754
 -22461469.84047 -17490322.39146  21908907.9144                   21908911.6414
 -13620811.67647 -10951691.65645  22318366.7274                   22318366.7934
 -21582889.23048 -16807646.98446  21290924.2974                   21290925.1524
  -1317728.05546  -1014718.77743  24719869.2584                   24719871.9534
 11  9 22  0 42  0.0000000  0  9G02G05G12G15G30G25G26G29G21
 -31206659.73047 -24310663.88345  22163897.1174                   22163895.3674
 -30822730.21548 -24005566.39846  20877482.3524                   20877481.7974
 -23374044.78547 -18198476.02345  22700423.7664                   22700424.8714
  -5567961.13747  -4992108.23845  23133019.0634                   23133021.1884
 -13927973.94147 -10841708.61745  22465976.5004                   22465977.9734
 -22437236.60948 -17471439.36346  21913519.6804                   21913522.4304
 -13725716.43047 -11033435.52345  22298404.1414                   22298404.4774
 -21675608.96148 -16879896.03146  21273280.4774                   21273281.0434
  -1401203.04746  -1079764.16443  24703984.8444                   24703987.0664
 11  9 22  0 42 30.0000000  0  9G02G05G12G15G30G25G26G29G21
 -31183707.01647 -24292778.65245  22168265.1414                   22168262.7624
 -30789440.82448 -23979626.58246  20883816.9454                   20883816.5824
 -23308535.00447 -18147429.49645  22712890.5554                   22712891.5634
  -5688889.01247  -5086337.53944  23110006.7584                   23110008.5084
 -13936984.85547 -10848730.10545  22464261.4454                   22464262.9804
 -22412541.73048 -17452196.62546  21918218.8444                   21918221.8634
 -13830251.79747 -11114891.57845  22278510.8054                   22278512.5824
 -21768047.62948 -16951926.08646  21255690.0554                   21255690.0314
  -1484668.03146  -1144801.75043  24688101.5234                   24688102.6294
 11  9 22  0 43  0.0000000  0  9G02G05G12G15G30G25G26G29G21
 -31160632.42647 -24274798.42645  22172656.1254                   22172654.2624
 -30755771.03948 -23953390.35546  20890223.9534                   20890223.4344
 -23242829.09447 -18096230.15245  22725392.8834                   22725394.9414
  -5809705.04347  -5180479.68744  23087016.0784                   23087017.1254
 -13945431.26647 -10855311.71545  22462654.3594                   22462654.8204
 -22387387.80948 -17432596.18046  21923005.6334                   21923007.9844
 -13934414.32447 -11196057.09844  22258689.5474                   22258689.4614
 -21860203.14148 -17023735.50046  21238153.4774                   21238153.9304
  -1568123.58246  -1209831.96943  24672221.0554                   24672221.0084
 11  9 22  0 43 30.0000000  0  9G02G05G12G15G30G25G26G29G21
 -31137435.54347 -24256722.91845  22177069.7274                   22177068.9924
 -30721723.03947 -23926859.41046  20896703.1484                   20896702.8134
 -23176930.52747 -18044880.68445  22737933.4774                   22737934.8984
  -5930406.05147  -5274532.23444  23064047.0864                   23064048.8164
 -13953314.34847 -10861454.38345  22461154.8054                   22461155.1914
 -22361777.06648 -17412639.76646  21927879.3204                   21927882.3914
 -14038200.23047 -11276929.13745  22238940.2114                   22238940.2384
 -21952072.87948 -17095322.23446  21220670.9694                   21220672.0004
  -1651570.23446  -1274855.27043  24656341.5394                   24656340.4654
 11  9 22  0 44  0.0000000  0  9G02G05G12G15G30G25G26G29G21
 -31114116.68047 -24238552.36345  22181507.7424                   22181506.9104
 -30687299.96547 -23900036.19946  20903253.6884                   20903253.5044
 -23110842.41047 -17993383.50445  22750509.5944                   22750511.3484
  -6050989.52747  -5368493.19944  23041101.4844                   23041102.8324
 -13960636.11747 -10867159.65245  22459761.0704                   22459762.1604
 -22335712.52748 -17392329.77046  21932839.1804                   21932842.4844
 -14141606.36747 -11357505.27345  22219262.0084                   22219263.6054
 -22043654.87548 -17166684.75046  21203243.3834                   21203243.6374
  -1735008.89146  -1339872.27043  24640463.8284                   24640462.9804
 11  9 22  0 44 30.0000000  0  9G02G05G12G15G30G25G26G29G21
 -31090673.34848 -24220284.82445  22185969.3914                   22185967.6804
 -30652501.59047 -23872920.55146  20909875.6564                   20909875.3714
 -23044565.30547 -17941739.09045  22763122.0164                   22763123.4734
  -6171449.93447  -5462358.25444  23018177.7894                   23018179.8134
 -13967395.91447 -10872427.02345  22458474.4304                   22458475.0634
 -22309194.46148 -17371666.37146  21937885.4534                   21937888.7894
 -14244627.05947 -11437781.08245  22199658.0944                   22199659.3794
 -22134944.77748 -17237819.68446  21185871.4694                   21185871.8204
  -1818437.65246  -1404881.54343  24624586.9924                   24624587.6604
 11  9 22  0 45  0.0000000  0  9G02G05G12G15G30G25G26G29G21
 -31067105.65247 -24201920.37545  22190453.7734                   22190452.2154
 -30617330.83248 -23845514.73846  20916568.1334                   20916567.4494
 -22978103.16847 -17889950.47345  22775769.5554                   22775771.0354
  -6291784.89147  -5556125.59044  22995277.9844                   22995279.8984
 -13973595.65247 -10877257.99645  22457294.8134                   22457296.0594
 -22282225.84048 -17350651.87946  21943017.2974                   21943020.2934
 -14347258.91448 -11517753.89145  22180128.7584                   22180129.9844
 -22225940.57048 -17308725.41846  21168555.6804                   21168556.1214
  -1901857.35846  -1469883.82843  24608713.0164                   24608713.9454
 11  9 22  0 45 30.0000000  0  9G02G05G12G15G30G25G26G29G21
 -31043414.11747 -24183459.44145  22194961.6414                   22194959.6374
 -30581790.71547 -23817821.10246  20923331.3134                   20923330.9224
 -22911459.74247 -17838020.60245  22788450.9064                   22788452.7664
  -6411991.96547  -5649793.30545  22972403.6724                   22972405.5594
 -13979237.66047 -10881654.36745  22456221.6254                   22456223.0474
 -22254810.01648 -17329288.92246  21948234.3754                   21948236.9414
 -14449499.28947 -11597421.60545  22160672.2344                   22160673.6414
 -22316640.46947 -17379400.59446  21151295.7814                   21151296.0984
  -1985269.32446  -1534879.98444  24592840.7424                   24592842.7344
 11  9 22  0 46  0.0000000  0  9G02G05G12G15G30G25G26G29G21
 -31019600.20347 -24164903.13745  22199494.0784                   22199491.8714
 -30545885.89548 -23789843.29746  20930163.8984                   20930163.0704
 -22844640.03547 -17785953.40245  22801166.7424                   22801168.5664
  -6532069.78547  -5743360.28545  22949553.8524                   22949555.1334
 -13984325.34047 -10885618.81245  22455253.0704                   22455254.6214
 -22226951.23448 -17307580.82046  21953535.6094                   21953539.0864
 -14551346.35547 -11676782.87945  22141290.9774                   22141293.0984
 -22407044.18448 -17449844.97346  21134092.6804                   21134092.5864
  -2068675.95746  -1599872.05143  24576968.7584                   24576970.8134
 11  9 22  0 46 30.0000000  0 10G02G05G12G15G18G30G25G26G29G21
 -30995663.88747 -24146251.44545  22204048.0234                   22204046.8914
 -30509618.78148 -23761583.18746  20937065.6954                   20937064.3364
 -22777647.27047 -17733751.32445  22813915.0864                   22813916.4184
  -6652015.99647  -5836824.71945  22926729.0784                   22926729.6604
   1430088.38756   1124944.51653  24546058.2814                   24546064.9264
 -13988860.60247 -10889152.76645  22454390.0164                   22454390.9344
 -22198652.34848 -17285529.77746  21958920.9224                   21958923.9224
 -14652796.79747 -11755835.09445  22121986.1804                   22121987.5314
 -22497149.60547 -17520056.92646  21116945.9064                   21116945.6764
  -2152078.00046  -1664860.54744  24561097.4384                   24561100.8874
 11  9 22  0 47  0.0000000  0 10G02G05G12G15G18G30G25G26G29G21
 -30971609.83647 -24127508.05145  22208625.8594                   22208625.0004
 -30472996.96948 -23733046.68746  20944034.3134                   20944033.3714
 -22710489.77047 -17681420.87945  22826695.0944                   22826696.9414
  -6771832.53947  -5930188.08645  22903928.1414                   22903928.9224
   1315102.77046   1035345.76643  24524177.1884                   24524183.9804
 -13992850.13747 -10892261.51645  22453631.1094                   22453631.7384
 -22169921.12147 -17263141.84446  21964388.7274                   21964391.7234
 -14753851.96947 -11834579.27745  22102755.0864                   22102756.1524
 -22586959.36747 -17590038.50446  21099855.5474                   21099855.6884
  -2235480.88346  -1729849.69544  24545226.6174                   24545229.4734
 11  9 22  0 47 30.0000000  0 10G02G05G12G15G18G30G25G26G29G21
 -30947444.21947 -24108677.67645  22213224.6564                   22213222.9384
 -30436028.64547 -23704240.18746  20951068.8524                   20951068.0944
 -22643176.21547 -17628968.83645  22839504.1884                   22839505.7074
  -6891522.07847  -6023452.50045  22881151.8834                   22881153.0824
   1200280.59446    945874.40643  24502327.5004                   24502333.3984
 -13996301.66447 -10894951.02045  22452974.0164                   22452975.7464
 -22140766.07047 -17240423.67646  21969936.1484                   21969939.7584
 -14854514.39147 -11913017.46545  22083600.0554                   22083600.6294
 -22676477.30548 -17659792.67646  21082821.0944                   21082820.9654
  -2318890.83646  -1794844.34444  24529353.2814                   24529356.4614
 11  9 22  0 48  0.0000000  0 10G02G05G12G15G18G30G25G26G29G21
 -30923166.14848 -24089759.67245  22217844.3594                   22217841.7854
 -30398716.22748 -23675165.56646  20958169.0394                   20958168.7704
 -22575709.65647 -17576397.57845  22852342.9534                   22852343.5164
  -7011081.14547  -6116615.27045  22858400.4064                   22858401.3794
   1085623.63746    856531.71943  24480508.6094                   24480514.3874
 -13999216.60547 -10897222.41045  22452419.1254                   22452421.3714
 -22111189.62147 -17217377.14146  21975564.1644                   21975567.1524
 -14954780.53147 -11991146.85245  22064519.9384                   22064520.4494
 -22765700.64548 -17729317.29346  21065842.3444                   21065842.1954
  -2402308.35546  -1859844.92644  24513478.9614                   24513482.9454
 11  9 22  0 48 30.0000000  0 10G02G05G12G15G18G30G25G26G29G21
 -29323351.90247 -22843151.17245  22522278.9064                   22522276.8674
 -28785638.62948 -22418221.96146  21265127.8054                   21265127.2034
 -20932670.71947 -16296107.55945  23165002.9924                   23165003.7734
  -5555078.08647  -4982067.27745  23135469.2114                   23135469.3284
   2546561.83246   1994925.57843  24758515.5084                   24758522.2194
 -12426171.83247  -9671473.25845  22751759.8524                   22751761.3164
 -20505770.73447 -15966401.41046  22281065.6564                   22281068.4884
 -13479218.53147 -10841358.21545  22345310.3134                   22345311.0084
 -21279199.56647 -16571004.70346  21348713.9694                   21348713.8014
   -910306.09046   -697245.66043  24797397.5784                   24797400.5204
 11  9 22  0 49  0.0000000  0 10G02G05G12G15G18G30G25G26G29G21
 -29298837.06247 -22824048.68445  22526944.3364                   22526942.3794
 -28747633.96148 -22388607.91846  21272359.7894                   21272359.2114
 -20864896.34847 -16243296.44545  23177899.7114                   23177900.8874
  -5674355.70347  -5075010.73845  23112771.0634                   23112771.2384
   2432250.96546   1905852.67643  24736762.8524                   24736768.7664
 -12428007.35947  -9672903.53945  22751410.4304                   22751412.6604
 -20475347.93747 -15942695.38346  22286854.8524                   22286858.2034
 -13578669.61747 -10918852.49645  22326385.0474                   22326385.4264
 -21367815.32847 -16640055.89146  21331851.3284                   21331850.9184
   -993728.44946   -762250.04343  24781522.9144                   24781525.8324
 11  9 22  0 49 30.0000000  0 10G02G05G12G15G18G30G25G26G29G21
 -29274201.61347 -22804852.21145  22531632.2504                   22531629.8674
 -28709285.08248 -22358725.63746  21279657.4304                   21279657.0784
 -20796971.00047 -16190367.69545  23190825.6724                   23190826.4694
  -5793486.46147  -5167839.78945  23090101.3754                   23090101.0944
   2318116.81346   1816917.41043  24715043.2274                   24715047.1724
 -12429304.12147  -9673914.01645  22751163.9844                   22751164.7584
 -20444504.35547 -15918661.47746  22292723.8284                   22292728.0314
 -13677706.38347 -10996023.93045  22307538.9774                   22307539.2154
 -21456122.45748 -16708866.59446  21315046.6884                   21315046.2974
  -1077152.14146   -827255.44143  24765648.1094                   24765650.5664
 11  9 22  0 50  0.0000000  0 10G02G05G12G15G18G30G25G26G29G21
 -29249444.25447 -22785560.74645  22536343.0634                   22536341.3164
 -28670593.16848 -22328576.07846  21287019.9454                   21287019.9414
 -20728896.19147 -16137322.44544  23203779.8444                   23203780.4734
  -5912465.92247  -5260550.89545  23067459.3204                   23067460.4024
   2204161.61746   1728121.58243  24693357.6804                   24693360.9104
 -12430062.53947  -9674505.02045  22751019.2344                   22751020.4344
 -20413241.28947 -15894300.69546  22298673.6484                   22298677.1254
 -13776323.84447 -11072868.63345  22288772.5234                   22288774.1454
 -21544117.02347 -16777433.73046  21298301.6884                   21298302.0784
  -1160576.46946   -892261.33243  24749772.8054                   24749774.1414
 11  9 22  0 50 30.0000000  0 10G02G05G12G15G18G30G25G26G29G21
 -29224563.11347 -22766172.81645  22541077.8674                   22541076.0944
 -28631559.58648 -22298160.29746  21294447.8594                   21294447.4144
 -20660674.20747 -16084162.55544  23216761.6644                   23216762.9614
  -6031290.13347  -5353141.05545  23044847.7424                   23044849.0744
   2090387.78946   1639467.12543  24671706.7034                   24671709.1414
 -12430283.52347  -9674677.20745  22750977.2424                   22750978.0274
 -20381560.37947 -15869614.29746  22304702.1254                   22304705.4304
 -13874517.59047 -11149383.15245  22270086.8444                   22270088.3754
 -21631795.64548 -16845754.67646  21281616.8984                   21281617.2114
  -1244000.79346   -957267.21543  24733897.6884                   24733899.9654
 11  9 22  0 51  0.0000000  0 10G02G05G12G15G18G30G25G26G29G21
 -29199557.35947 -22746687.75845  22545836.4224                   22545833.6604
 -28592185.91448 -22267479.48846  21301940.2734                   21301939.8954
 -20592307.23847 -16030889.68745  23229771.7194                   23229772.9614
  -6149954.91847  -5445606.99645  23022266.3914                   23022268.0634
   1976797.61746   1550955.71943  24650091.4224                   24650092.3324
 -12429968.00047  -9674431.38345  22751037.5944                   22751039.0124
 -20349463.48847 -15844603.78546  22310809.9924                   22310813.5664
 -13972283.44947 -11225564.22745  22251482.0704                   22251483.8324
 -21719155.32448 -16913827.10946  21264992.9694                   21264993.0824
  -1327424.69546  -1022272.71943  24718023.2894                   24718023.4454
 11  9 22  0 51 30.0000000  0 10G02G05G12G15G18G30G25G26G29G21
 -29174427.90647 -22727106.37545  22550617.6174                   22550616.3324
 -28552475.77348 -22236536.51646  21309497.0164                   21309496.8204
 -20523799.32447 -15977506.98045  23242808.3284                   23242809.5234
  -6268458.21546  -5537947.11345  22999716.5944                   22999717.4534
   1863391.17246   1462587.51643  24628511.3754                   24628511.8754
 -12429118.84047  -9673769.73845  22751199.0234                   22751200.7734
 -20316954.47347 -15819272.11346  22316996.1254                   22316999.1024
 -14069618.80147 -11301409.84845  22232960.2034                   22232961.4414
 -21806194.57048 -16981649.84846  21248429.9774                   21248430.0354
  -1410849.58646  -1087278.99243  24702147.8284                   24702147.8874
 11  9 22  0 52  0.0000000  0 10G02G05G12G15G18G30G25G26G29G21
 -29149173.28147 -22707427.42645  22555423.5084                   22555422.6134
 -28512430.34448 -22205332.27346  21317117.3444                   21317117.3754
 -20455152.70746 -15924016.20345  23255871.9694                   23255873.3914
  -6386796.14547  -5630158.35545  22977196.9614                   22977198.3674
   1750170.45746   1374364.01643  24606965.2664                   24606967.4964
 -12427737.07447  -9672693.05545  22751462.3284                   22751464.1134
 -20284035.05147 -15793620.66446  22323260.5084                   22323263.7114
 -14166519.19947 -11376916.57845  22214520.7664                   22214521.3324
 -21892910.15247 -17049220.39546  21231928.6254                   21231928.3674
  -1494274.73446  -1152285.53143  24686272.1954                   24686273.2734
 11  9 22  0 52 30.0000000  0 10G02G05G12G15G18G30G25G26G29G21
 -29123793.85947 -22687651.21945  22560253.3444                   22560251.5234
 -28472053.05948 -22173869.43746  21324800.9384                   21324801.0044
 -20386370.69947 -15870419.93045  23268960.4774                   23268963.0274
  -6504966.32847  -5722238.89545  22954709.4614                   22954711.9304
   1637136.55146   1286286.02043  24585455.5474                   24585458.6644
 -12425825.08647  -9671203.20345  22751826.3524                   22751827.8634
 -20250708.55147 -15767652.00846  22329602.6094                   22329606.0474
 -14262982.00447 -11452082.32045  22196164.2194                   22196164.9024
 -21979300.22748 -17116537.30146  21215488.9384                   21215488.6374
  -1577701.34046  -1217293.17243  24670396.6804                   24670397.9924
 11  9 22  0 53  0.0000000  0 10G02G05G12G15G18G30G25G26G29G21
 -29098288.73847 -22667777.06245  22565106.3914                   22565104.1024
 -28431345.62148 -22142149.35246  21332547.1174                   21332546.9144
 -20317456.51647 -15816720.66445  23282074.1884                   23282076.9224
  -6622965.09047  -5814185.87545  22932255.5314                   22932256.8984
   1524290.79246   1198354.66043  24563980.7974                   24563985.4144
 -12423384.36747  -9669301.36745  22752290.1564                   22752291.6604
 -20216977.26247 -15741367.91846  22336021.2814                   22336024.6954
 -14359003.04347 -11526903.79345  22177891.8364                   22177892.5904
 -22065362.16448 -17183598.51646  21199112.3364                   21199111.7934
  -1661129.46945  -1282301.98443  24654520.5554                   24654523.0004
 11  9 22  0 53 30.0000000  0 10G02G05G12G15G18G30G25G26G29G21
 -29072658.68047 -22647805.57045  22569983.7664                   22569981.5864
 -28390311.28948 -22110174.53146  21340355.9694                   21340355.1994
 -20248413.84447 -15762921.28545  23295213.4064                   23295215.1604
  -6740789.94947  -5905997.33645  22909834.0704                   22909834.7464
   1411633.28946   1110570.10543  24542542.3444                   24542548.2424
 -12420417.67246  -9666989.69545  22752854.6644                   22752855.8914
 -20182844.75047 -15714771.19546  22342516.3674                   22342520.3594
 -14454579.81247 -11601379.13345  22159704.3524                   22159704.3634
 -22151094.41448 -17250402.83246  21182797.8674                   21182797.7664
  -1744560.41046  -1347312.98043  24638644.1174                   24638645.2504
 11  9 22  0 54  0.0000000  0 10G02G05G12G15G18G30G25G26G29G21
 -29046903.39847 -22627736.50045  22574885.0864                   22574883.0704
 -28348952.96948 -22077947.26646  21348225.8754                   21348225.2234
 -20179245.76247 -15709024.16845  23308375.5314                   23308378.1094
  -6858437.98047  -5997670.99245  22887446.3364                   22887447.3204
   1299165.47346   1022933.21543  24521139.6564                   24521144.8284
 -12416926.98047  -9664269.69945  22753519.3284                   22753521.4844
 -20148313.91447 -15687864.10946  22349087.8134                   22349091.5784
 -14549709.09047 -11675505.76245  22141601.4064                   22141602.3284
 -22236494.70347 -17316948.46146  21166546.4534                   21166546.3364
  -1827994.67246  -1412326.59843  24622766.4304                   24622768.4964
 11  9 22  0 54 30.0000000  0 10G02G05G12G15G18G30G25G26G29G21
 -29021022.81647 -22607569.75845  22579809.5314                   22579808.1214
 -28307273.09448 -22045469.43746  21356157.4224                   21356156.2814
 -20109955.62947 -15655031.95745  23321560.9064                   23321563.6724
  -6975906.42247  -6089204.72345  22865093.2424                   22865093.8444
   1186888.30146    935444.89543  24499774.4694                   24499778.8754
 -12412914.75446  -9661143.30545  22754282.3834                   22754284.7034
 -20113387.93047 -15660649.07046  22355733.6564                   22355737.8094
 -14644387.55947 -11749281.12545  22123584.5864                   22123585.6844
 -22321561.03148 -17383233.87146  21150358.4384                   21150358.3714
  -1911433.02046  -1477343.39843  24606889.0474                   24606890.2274
 11  9 22  0 55  0.0000000  0 10G02G05G12G15G18G30G25G26G29G21
 -28995017.59048 -22587305.92245  22584758.8364                   22584756.8524
 -28265275.05148 -22012743.68046  21364149.5554                   21364147.8674
 -20040547.14547 -15600947.51245  23334769.3054                   23334771.0434
  -7093193.02747  -6180596.77345  22842773.5634                   22842774.2854
   1074801.93446    848105.23443  24478444.7194                   24478449.7424
 -12408383.77046  -9657612.69545  22755144.6954                   22755146.7774
 -20078070.32847 -15633128.89546  22362454.3134                   22362457.6684
 -14738612.91847 -11822703.40645  22105653.9454                   22105655.1054
 -22406291.94948 -17449257.93446  21134235.3364                   21134235.1524
  -1994876.66446  -1542364.33243  24591010.3594                   24591012.1724
 11  9 22  0 55 30.0000000  0 10G02G05G12G15G18G30G25G26G29G21
 -28968886.44947 -22566943.95345  22589731.5944                   22589729.5204
 -28222960.50448 -21979771.29746  21372201.5784                   21372200.5394
 -19971022.80147 -15546772.78145  23347999.7034                   23348000.7304
  -7210294.22347  -6271844.36345  22820490.2034                   22820490.4264
    962908.59446    760915.99643  24457152.2424                   24457155.7384
 -12403335.16847  -9653678.74245  22756105.2894                   22756107.2344
 -20042363.18047 -15605305.17246  22369249.7114                   22369251.8164
 -14832380.77747 -11895769.19145  22087811.0474                   22087811.5864
 -22490684.02348 -17515017.92646  21118175.5554                   21118175.4844
  -2078324.99646  -1607388.81243  24575131.0004                   24575132.2544
 11  9 22  0 56  0.0000000  0 10G02G05G12G15G18G30G25G26G29G21
 -28942630.22347 -22546484.53945  22594727.3754                   22594726.6094
 -28180333.09048 -21946555.12946  21380313.5554                   21380312.8594
 -19901386.93447 -15492511.16045  23361250.0164                   23361252.4384
  -7327207.64547  -6362945.60945  22798241.6024                   22798242.7504
    851208.33646    673877.17643  24435895.8594                   24435898.3554
 -12397772.14547  -9649343.93445  22757163.7664                   22757166.4734
 -20006270.31647 -15577180.90246  22376118.0554                   22376121.0704
 -14925688.84447 -11968476.67245  22070055.0084                   22070055.4734
 -22574736.73447 -17580513.48846  21102181.0554                   21102180.5164
  -2161779.63746  -1672418.27043  24559249.7424                   24559250.0704
 11  9 22  0 56 30.0000000  0 10G02G05G12G15G18G30G25G26G29G21
 -28916246.92647 -22525926.09845  22599747.7974                   22599746.7114
 -28137392.94548 -21913095.28546  21388484.9694                   21388484.0704
 -19831640.52747 -15438163.41045  23374522.8444                   23374525.5164
  -7443928.58647  -6453896.91845  22776030.8674                   22776031.1884
    739703.87546    586990.87543  24414677.4924                   24414679.7504
 -12391695.16047  -9644608.64145  22758321.0944                   22758321.9064
 -19969793.05147 -15548757.07846  22383058.9064                   22383062.6764
 -15018532.27747 -12040822.13745  22052387.6644                   22052388.6254
 -22658445.60947 -17645741.12146  21086252.0084                   21086251.5204
  -2245239.52746  -1737451.78943  24543367.5634                   24543368.2154
 11  9 22  0 57  0.0000000  0 10G02G05G12G15G18G30G25G26G29G21
 -28889737.89147 -22505269.66445  22604792.2974                   22604790.7194
 -28094144.89148 -21879395.49246  21396714.5084                   21396714.1524
 -19761788.45747 -15383733.31244  23387814.9064                   23387817.1294
  -7560455.48447  -6544697.00845  22753856.3674                   22753857.0664
    628394.74246    500256.79343  24393495.7274                   24393496.6914
 -12385107.77747  -9639475.62545  22759573.8984                   22759576.2544
 -19932935.73047 -15520037.13346  22390073.0234                   22390076.4264
 -15110909.17647 -12112804.04345  22034808.8524                   22034810.1024
 -22741809.89147 -17710700.25046  21070388.1564                   21070387.3714
  -2328706.29346  -1802490.66043  24527484.0084                   24527485.3324
 11  9 22  0 57 30.0000000  0 10G02G05G12G15G18G30G25G26G29G21
 -28863101.78147 -22484514.24645  22609861.0314                   22609860.4494
 -28050590.39548 -21845456.90246  21405002.5474                   21405002.2544
 -19691832.83647 -15329222.52344  23401126.9614                   23401130.2234
  -7676784.46547  -6635342.85545  22731719.1254                   22731720.3794
    517283.03546    413676.52343  24372351.5234                   24372351.9224
 -12378011.18747  -9633945.82045  22760925.2194                   22760926.7234
 -19895700.21947 -15491022.47346  22397158.8444                   22397162.3484
 -15202815.26247 -12184419.09845  22017319.7344                   22017320.4844
 -22824826.59847 -17775388.52346  21054590.2504                   21054590.1214
  -2412179.39146  -1867534.50443  24511599.6174                   24511599.4144
 11  9 22  0 58  0.0000000  0 10G02G05G12G15G18G30G25G26G29G21
 -28836338.00847 -22463659.34845  22614954.2734                   22614953.5164
 -28006731.73048 -21811281.30146  21413348.5554                   21413348.1024
 -19621776.48447 -15274633.27744  23414458.3054                   23414461.3634
  -7792911.85247  -6725831.63745  22709621.0164                   22709622.4064
    406370.24246    327251.25043  24351245.0004                   24351245.9534
 -12370407.45347  -9628020.84845  22762371.6954                   22762373.7584
 -19858089.32047 -15461715.30146  22404315.6724                   22404318.8244
 -15294247.09447 -12255664.58245  21999919.9694                   21999920.9414
 -22907493.03548 -17839803.85546  21038859.3204                   21038858.9884
  -2495659.37146  -1932583.71943  24495713.5004                   24495714.1454
 11  9 22  0 58 30.0000000  0 10G02G05G12G15G18G30G25G26G29G21
 -28809445.46947 -22442704.09445  22620071.5704                   22620070.0554
 -27962569.85948 -21776869.44546  21421752.3914                   21421751.4344
 -19551621.39147 -15219967.09844  23427808.6484                   23427811.3444
  -7908833.87147  -6816160.39545  22687561.9064                   22687563.3204
    295658.40646    240982.51643  24330176.8524                   24330179.1334
 -12362297.57447  -9621701.44945  22763915.1644                   22763916.8554
 -19820104.84447 -15432117.03946  22411543.9614                   22411547.1254
 -15385200.46147 -12326537.25045  21982612.0164                   21982612.6174
 -22989805.84848 -17903943.63746  21023195.7584                   21023194.9344
  -2579145.63346  -1997637.80944  24479826.5234                   24479827.1644
 11  9 22  0 59  0.0000000  0 10G02G05G12G15G18G30G25G26G29G21
 -28782423.44547 -22421647.95345  22625213.7894                   22625211.7234
 -27918107.53548 -21742223.44946  21430213.3444                   21430212.5084
 -19481370.63346 -15165226.31244  23441176.6414                   23441178.3134
  -8024547.55947  -6906326.82045  22665542.0784                   22665543.4964
    185148.76645    154871.34843  24309146.8674                   24309151.8554
 -12353683.77747  -9614989.43045  22765554.4694                   22765555.4494
 -19781749.66047 -15402229.90646  22418842.6564                   22418846.9614
 -15475671.85947 -12397034.36345  21965396.1254                   21965396.6604
 -23071762.77348 -17967806.09846  21007600.0084                   21007599.5514
  -2662637.85246  -2062696.56243  24463939.3674                   24463940.2034
 11  9 22  0 59 30.0000000  0 10G02G05G12G15G18G30G25G26G29G21
 -28755271.91847 -22400490.89845  22630380.6414                   22630379.9614
 -27873347.34848 -21707345.36746  21438730.8834                   21438730.0634
 -19411027.24646 -15110413.35944  23454563.1174                   23454564.4104
  -8140049.65647  -6996328.35545  22643563.0004                   22643563.8444
     74841.98846     68918.23443  24288156.6644                   24288161.5434
 -12344568.30947  -9607886.46945  22767288.7424                   22767289.8954
 -19743026.80947 -15372056.30546  22426211.9064                   22426216.0004
 -15565658.14148 -12467153.45345  21948272.6884                   21948272.8054
 -23153361.68048 -18031389.57846  20992072.1564                   20992071.5434
  -2746137.26646  -2127760.92244  24448049.8594                   24448050.7734
 11  9 22  1  0  0.0000000  0 10G02G05G12G15G18G30G25G26G29G21
 -28727993.48847 -22379234.97345  22635571.8284                   22635570.5984
 -27828294.21548 -21672239.00046  21447304.3134                   21447303.5354
 -19340597.07446 -15055532.80544  23467964.8914                   23467967.3554
  -8255339.89847  -7086164.80145  22621624.0704                   22621624.7344
    -35263.04746    -16877.71943  24267204.7974                   24267209.5354
 -12334956.09847  -9600396.44545  22769117.9304                   22769119.5434
 -19703941.77747 -15341600.45745  22433649.1564                   22433653.3914
 -15655158.66848 -12536894.01245  21931240.9454                   21931240.7304
 -23234602.82448 -18094694.28546  20976612.1884                   20976612.3714
  -2829646.59046  -2192833.01244  24432158.4614                   24432159.5514
 11  9 22  1  0 30.0000000  0 10G02G05G12G15G18G30G25G26G29G21
 -28700585.94947 -22357878.42245  22640787.1484                   22640786.0044
 -27782949.30548 -21636905.28946  21455933.1024                   21455932.8754
 -19270081.61346 -15000585.82444  23481383.8444                   23481385.8094
  -8370413.50447  -7175832.44945  22599726.0004                   22599726.8364
   -145163.99246   -102514.64543  24246291.7114                   24246295.8364
 -12324847.79747  -9592519.85945  22771041.5084                   22771042.4694
 -19664495.99247 -15310863.51246  22441155.4384                   22441159.6374
 -15744168.72347 -12606252.41445  21914302.7584                   21914302.4454
 -23315482.32448 -18157717.20746  20961221.5164                   20961220.7274
  -2913164.98446  -2257912.20343  24416264.4694                   24416265.8954
 11  9 22  1  1  0.0000000  0 10G02G05G12G15G18G30G25G26G29G21
 -28673049.26247 -22336421.22745  22646027.1094                   22646024.8484
 -27737315.20348 -21601346.22346  21464616.6254                   21464616.2544
 -19199483.82847 -14945574.67244  23494819.0864                   23494820.8954
  -8485267.51247  -7265328.99245  22577870.3834                   22577871.2584
   -254859.95745   -187991.87543  24225416.1254                   24225420.6254
 -12314245.89147  -9584258.63745  22773058.9924                   22773060.6954
 -19624692.54347 -15279847.87945  22448729.8984                   22448733.1644
 -15832685.21947 -12675226.23445  21897458.7034                   21897458.9454
 -23395998.25048 -18220456.81246  20945899.3674                   20945899.1214
  -2996692.52046  -2322998.48043  24400369.4774                   24400370.7934
 11  9 22  1  1 30.0000000  0 10G02G05G12G15G18G30G25G26G29G21
 -28645381.86747 -22314862.21945  22651292.0864                   22651289.9104
 -27691393.08648 -21565562.72746  21473355.5164                   21473354.8284
 -19128806.00446 -14890501.12544  23508268.3674                   23508270.2544
  -8599897.86747  -7354651.25045  22556056.8444                   22556057.9384
   -364348.75446   -273307.65243  24204581.0314                   24204584.4144
 -12303151.44147  -9575613.63745  22775170.2734                   22775172.6564
 -19584533.28547 -15248554.99245  22456371.9224                   22456375.3984
 -15920703.90647 -12743812.14145  21880709.4924                   21880709.5234
 -23476147.21948 -18282910.49246  20930647.9454                   20930647.4104
  -3080228.78146  -2388091.54744  24384473.1024                   24384473.9964
 11  9 22  1  2  0.0000000  0 10G02G05G12G15G18G30G25G26G29G21
 -28617584.53947 -22293201.93745  22656581.4384                   22656580.0634
 -27645186.43448 -21529557.51646  21482148.2584                   21482147.3674
 -19058051.67647 -14835368.00444  23521732.7664                   23521734.3594
  -8714302.34847  -7443797.49645  22534285.7584                   22534286.3834
   -473630.00846   -358461.71543  24183785.5944                   24183788.5394
 -12291567.73447  -9566587.37545  22777375.0004                   22777375.9264
 -19544022.07447 -15216987.84845  22464080.8444                   22464084.6054
 -16008222.44547 -12812008.31645  21864054.9924                   21864055.2344
 -23555927.80948 -18345077.12546  20915466.1174                   20915465.7034
  -3163775.02746  -2453192.41043  24368573.7034                   24368575.5634
 11  9 22  1  2 30.0000000  0 10G02G05G12G15G18G30G25G26G29G21
 -28589657.11747 -22271440.29345  22661896.1884                   22661894.9534
 -27598697.82048 -21493332.61346  21490994.9224                   21490993.7624
 -18987224.20347 -14780177.87145  23535211.2114                   23535212.3554
  -8828478.14847  -7532765.54745  22512558.6024                   22512559.2814
   -582702.94546   -443453.48043  24163028.6484                   24163031.3634
 -12279497.28147  -9557181.84045  22779671.8524                   22779672.4574
 -19503162.16847 -15185148.98845  22471856.1954                   22471859.3244
 -16095237.73447 -12879812.35945  21847496.2424                   21847496.6174
 -23635337.83648 -18406955.00046  20900354.5234                   20900354.6454
  -3247331.77746  -2518301.45343  24352673.3524                   24352675.2704
 11  9 22  1  3  0.0000000  0 10G02G05G12G15G18G30G25G26G29G21
 -28561600.21947 -22249577.74645  22667235.2424                   22667234.1174
 -27551930.83648 -21456890.77746  21499894.5004                   21499893.3444
 -18916327.97347 -14724934.15245  23548702.5704                   23548703.7774
  -8942423.26647  -7621553.85545  22490875.5944                   22490876.6094
   -691567.96946   -528283.20743  24142312.5164                   24142314.8954
 -12266943.47347  -9547399.66045  22782060.1804                   22782062.0124
 -19461957.52747 -15153041.51645  22479697.6024                   22479701.5984
 -16181748.00047 -12947222.85245  21831033.6644                   21831034.4774
 -23714376.35548 -18468543.38347  20885314.1094                   20885313.9144
  -3330900.40646  -2583419.74643  24336771.5864                   24336772.7114
 11  9 22  1  3 30.0000000  0 10G02G05G12G15G18G30G25G26G29G21
 -28533411.86747 -22227612.77045  22672599.0864                   22672597.5634
 -27504886.09448 -21420232.50846  21508846.6334                   21508845.2034
 -18845364.25447 -14669637.84445  23562206.2344                   23562208.2234
  -9056132.53147  -7710158.38745  22469237.5164                   22469238.7584
   -800221.82446   -612948.39543  24121636.2504                   24121638.2584
 -12253906.92247  -9537241.32445  22784541.4144                   22784542.5634
 -19420409.40247 -15120666.40645  22487604.0474                   22487607.1844
 -16267748.14147 -13014235.85945  21814668.6334                   21814668.6484
 -23793039.10947 -18529838.97346  20870345.0394                   20870344.7424
  -3414479.45346  -2648546.19943  24320867.6564                   24320868.2974
 11  9 22  1  4  0.0000000  0 10G02G05G12G15G18G30G25G26G29G21
 -28505092.00447 -22205545.31245  22677988.4844                   22677986.9884
 -27457566.65248 -21383360.18046  21517851.0234                   21517850.3754
 -18774336.36747 -14614291.56245  23575721.9614                   23575724.8284
  -9169603.44147  -7798577.18745  22447644.5474                   22447646.1954
   -908663.66446   -697448.37943  24101001.3284                   24101001.9064
 -12240390.46147  -9526709.04345  22787113.4844                   22787114.9774
 -19378521.17647 -15088026.26245  22495575.0704                   22495578.4734
 -16353235.39547 -13080849.23445  21798400.8594                   21798401.5314
 -23871324.35948 -18590840.40647  20855447.5474                   20855447.5514
  -3498069.68046  -2713681.34044  24304960.1174                   24304961.9694
 11  9 22  1  4 30.0000000  0 10G02G05G12G15G18G30G25G26G29G21
 -28476640.17247 -22183375.01245  22683402.1954                   22683401.6254
 -27409974.55548 -21346275.40246  21526907.7734                   21526906.8244
 -18703246.78547 -14558897.17645  23589250.1954                   23589252.9144
  -9282832.71947  -7886807.71145  22426097.5634                   22426099.1454
  -1016892.68046   -781782.54343  24080406.4384                   24080407.2154
 -12226396.01647  -9515804.31244  22789776.2344                   22789777.9304
 -19336295.55147 -15055123.21545  22503609.7194                   22503613.2384
 -16438206.46547 -13147060.40245  21782231.3914                   21782232.3754
 -23949229.52748 -18651545.68046  20840623.0634                   20840622.9774
  -3581671.16046  -2778825.23444  24289051.9614                   24289052.8404
 11  9 22  1  5  0.0000000  0 10G02G05G12G15G18G30G25G26G29G21
 -28448059.52347 -22161104.34445  22688840.3284                   22688840.0824
 -27362115.70348 -21308982.75046  21536014.7424                   21536014.2304
 -18632101.85246 -14503459.66444  23602788.7424                   23602790.3954
  -9395820.78947  -7974850.24245  22404596.5004                   22404598.1764
  -1124911.18746   -865952.62943  24059850.1094                   24059853.5044
 -12211929.57847  -9504531.77044  22792529.5394                   22792531.0354
 -19293738.98847 -15021962.29345  22511708.5084                   22511712.3284
 -16522661.66847 -13212869.57445  21766159.7504                   21766160.0864
 -24026756.00048 -18711955.85547  20825869.8834                   20825870.0164
  -3665287.76646  -2843980.91844  24273140.2114                   24273142.0084
 11  9 22  1  5 30.0000000  0 10G02G05G12G15G18G30G25G26G29G21
 -28419349.64847 -22138732.98045  22694304.1174                   22694303.1174
 -27313992.59448 -21271484.19546  21545172.0474                   21545171.5124
 -18560904.77346 -14447981.51644  23616336.2584                   23616338.8094
  -9508564.63347  -8062702.50845  22383142.3674                   22383143.4224
  -1232718.51646   -949958.17243  24039334.1564                   24039338.0514
 -12196993.60947  -9492893.37145  22795371.4844                   22795373.7154
 -19250854.68047 -14988545.99645  22519869.1254                   22519873.1884
 -16606597.94547 -13278274.40245  21750187.2894                   21750188.1994
 -24103901.62148 -18772069.27346  20811189.6644                   20811189.1254
  -3748919.93446  -2909148.74644  24257225.6724                   24257226.4064
 11  9 22  1  6  0.0000000  0 10G02G05G12G15G18G30G25G26G29G21
 -28390509.16047 -22116259.85545  22699792.6724                   22699791.1884
 -27265606.70348 -21233780.88346  21554379.6484                   21554378.9184
 -18489657.73847 -14392464.48444  23629895.0864                   23629897.8984
  -9621059.86747  -8150361.05145  22361735.5554                   22361735.5354
  -1340312.04346  -1033797.12543  24018860.2974                   24018862.4184
 -12181589.46547  -9480890.14845  22798302.3834                   22798304.9924
 -19207644.38747 -14954875.69145  22528091.8914                   22528095.6884
 -16690011.27747 -13343271.69945  21734313.7664                   21734314.7504
 -24180663.02348 -18831883.30147  20796582.1484                   20796582.1564
  -3832566.81246  -2974328.01644  24241308.0864                   24241308.3794
 11  9 22  1  6 30.0000000  0 10G02G05G12G15G18G30G25G26G29G21
 -28361534.49647 -22093682.16845  22705306.1954                   22705305.3484
 -27216956.97748 -21195871.97346  21563637.6094                   21563636.6994
 -18418360.44946 -14336908.22344  23643462.1724                   23643465.0864
  -9733300.39547  -8237821.10945  22340377.0164                   22340377.5704
  -1447687.89846  -1117466.44943  23998427.5554                   23998429.6254
 -12165716.41447  -9468521.55544  22801323.2504                   22801324.7774
 -19164108.00847 -14920951.28145  22536376.4694                   22536379.7424
 -16772895.14547 -13407856.46545  21718541.7194                   21718541.3634
 -24257034.46948 -18891393.45346  20782049.2504                   20782048.9064
  -3916225.57447  -3039516.55143  24225387.8054                   24225387.1334
 11  9 22  1  7  0.0000000  0 10G02G05G12G15G18G30G25G26G29G21
 -28332428.78947 -22071002.37145  22710844.7504                   22710843.9304
 -27168049.35948 -21157762.09446  21572943.9304                   21572944.0234
 -18347019.07446 -14281317.68044  23657038.0554                   23657040.8014
  -9845286.58647  -8325082.95745  22319066.6484                   22319066.4224
  -1554848.50046  -1200968.05943  23978034.4774                   23978037.5944
 -12149380.29347  -9455792.14544  22804432.3984                   22804433.9844
 -19120252.02747 -14886777.85245  22544722.1884                   22544725.9654
 -16855250.17647 -13472029.13745  21702870.3054                   21702870.6094
 -24333017.35948 -18950600.85546  20767590.5554                   20767589.9064
  -3999899.94947  -3104717.27743  24209465.3674                   24209464.2304
 11  9 22  1  7 30.0000000  0 10G02G05G12G15G18G30G25G26G29G21
 -28303191.98047 -22048220.40645  22716408.1024                   22716406.9064
 -27118887.07448 -21119453.77746  21582299.5704                   21582299.2854
 -18275637.37147 -14225695.68044  23670621.7974                   23670624.2774
  -9957015.91047  -8412144.64545  22297804.7894                   22297805.2034
  -1661793.28946  -1284301.49243  23957683.8754                   23957686.1884
 -12132584.09847  -9442704.23045  22807628.6024                   22807629.8524
 -19076080.02047 -14852358.15645  22553128.1484                   22553131.1294
 -16937073.91447 -13535787.81645  21687299.7194                   21687299.2584
 -24408610.05948 -19009504.19546  20753205.1884                   20753205.3164
  -4083590.40647  -3169930.52343  24193539.4064                   24193538.6804
 11  9 22  1  8  0.0000000  0 10G02G05G12G15G18G30G25G26G29G21
 -28273822.60947 -22025335.17245  22721996.5634                   22721996.0594
 -27069470.87148 -21080947.60946  21591703.2034                   21591702.8984
 -18204216.33247 -14170043.02344  23684213.5394                   23684215.2854
 -10068483.95747  -8499002.76645  22276593.1564                   22276593.3984
  -1768520.07046  -1367465.09043  23937374.3524                   23937375.3054
 -12115329.11747  -9429258.78544  22810912.1564                   22810913.1214
 -19031593.56247 -14817693.44545  22561593.1884                   22561597.1024
 -17018361.82847 -13599128.97745  21671831.2734                   21671831.6174
 -24483809.03548 -19068100.75846  20738895.7194                   20738894.5474
  -4167296.66447  -3235156.06243  24177610.1414                   24177609.4884
 11  9 22  1  8 30.0000000  0 10G02G05G12G15G18G30G25G26G29G21
 -28244319.15247 -22002345.43745  22727611.3284                   22727609.5824
 -27019801.71548 -21042244.35246  21601154.9384                   21601154.5234
 -18132758.37947 -14114361.57844  23697811.2734                   23697814.0354
 -10179686.37147  -8585653.89145  22255431.4614                   22255431.7544
  -1875026.97746  -1450457.35243  23917106.3834                   23917107.5784
 -12097616.62547  -9415456.85944  22814282.2114                   22814283.5314
 -18986794.59447 -14782785.22345  22570118.5474                   22570121.7704
 -17099109.82047 -13662049.42645  21656465.2974                   21656465.5084
 -24558610.89148 -19126387.85947  20724660.7974                   20724660.4804
  -4251017.54747  -3300393.00444  24161678.6644                   24161678.5084
 11  9 22  1  9  0.0000000  0 10G02G05G12G15G18G30G25G26G29G21
 -28214681.28947 -21979250.95745  22733250.5784                   22733249.9884
 -26969882.93748 -21003346.59046  21610653.8364                   21610653.4774
 -18061266.79746 -14058653.96944  23711415.4064                   23711416.9064
 -10290620.37147  -8672095.85545  22234321.2274                   22234321.9144
  -1981312.56646  -1533277.13743  23896880.9924                   23896883.4734
 -12079449.31647  -9401300.54345  22817739.6484                   22817740.4614
 -18941686.38747 -14747636.02745  22578702.4844                   22578705.8524
 -17179315.14847 -13724546.99245  21641202.7974                   21641203.2424
 -24633013.52048 -19184363.88346  20710502.4614                   20710501.8754
  -4334753.46547  -3365641.61344  24145744.2274                   24145743.9924
 11  9 22  1  9 30.0000000  0 10G02G05G12G15G18G30G25G26G29G21
 -28184909.20347 -21956051.90245  22738916.0784                   22738915.0394
 -26919716.91048 -20964256.16046  21620200.3674                   21620199.8404
 -17989744.62947 -14002922.50444  23725026.4144                   23725026.7624
 -10401283.24647  -8758326.56245  22213262.5004                   22213263.4104
  -2087376.72346  -1615924.41843  23876698.0554                   23876701.0944
 -12060830.00847  -9386792.00445  22821282.8524                   22821284.4884
 -18896272.24247 -14712248.44145  22587344.3364                   22587348.3914
 -17258975.08647 -13786619.59445  21626043.3524                   21626043.8404
 -24707014.83248 -19242027.20346  20696420.8524                   20696419.9734
  -4418504.89846  -3430902.37543  24129806.0784                   24129807.6844
 11  9 22  1 10  0.0000000  0 10G02G05G12G15G18G30G25G26G29G21
 -28155002.14847 -21932747.68444  22744607.2504                   22744605.6804
 -26869305.76648 -20924974.73846  21629793.4534                   21629792.2734
 -17918194.32047 -13947169.09444  23738641.5004                   23738642.9694
 -10511671.21547  -8844343.04345  22192256.5474                   22192257.2734
  -2193218.00047  -1698398.01244  23856557.0314                   23856560.6214
 -12041760.90247  -9371932.96545  22824911.2344                   22824912.8524
 -18850554.82047 -14676624.53945  22596044.0164                   22596047.3794
 -17338086.25847 -13848264.56645  21610989.4224                   21610989.3324
 -24780612.47348 -19299375.96146  20682415.6254                   20682414.8634
  -4502271.89547  -3496175.24244  24113866.5394                   24113867.2504
 11  9 22  1 10 30.0000000  0 10G02G05G12G15G18G30G25G26G29G21
 -28124959.68447 -21909337.94145  22750324.9224                   22750323.1604
 -26818651.99248 -20885504.25846  21639432.6094                   21639431.6844
 -17846618.69146 -13891395.97744  23752261.9454                   23752264.4574
 -10621781.51647  -8930143.18445  22171303.4384                   22171304.4344
  -2298835.65646  -1780697.35243  23836458.5554                   23836461.7814
 -12022244.69147  -9356725.58245  22828625.3054                   22828627.0784
 -18804537.44547 -14640766.89545  22604800.9924                   22604804.3794
 -17416646.07447 -13909479.91846  21596039.6954                   21596039.8794
 -24853804.51248 -19356408.67247  20668487.5634                   20668487.1724
  -4586054.84446  -3561460.50443  24097921.8284                   24097924.0004
 11  9 22  1 11  0.0000000  0 10G02G05G12G15G18G30G25G26G29G21
 -28094782.13747 -21885822.96545  22756066.9774                   22756065.7194
 -26767758.31248 -20845846.84046  21649117.1724                   21649116.1484
 -17775021.55946 -13835606.15244  23765886.5474                   23765888.5554
 -10731611.64147  -9015724.99245  22150403.3914                   22150404.0594
  -2404229.50847  -1862822.32044  23816402.6884                   23816405.6374
 -12002284.52047  -9341172.23044  22832423.3984                   22832424.9614
 -18758223.55547 -14604678.22745  22613614.5394                   22613618.3134
 -17494652.12147 -13970263.77045  21581195.6484                   21581195.9694
 -24926589.27348 -19413124.02047  20654637.2194                   20654636.8484
  -4669854.04346  -3626758.44143  24081976.3524                   24081976.8874
 11  9 22  1 11 30.0000000  0 10G02G05G12G15G18G30G25G26G29G21
 -28064468.66847 -21862202.09044  22761835.2734                   22761833.0784
 -26716626.67248 -20806003.98846  21658847.2034                   21658845.5044
 -17703405.48847 -13779801.55144  23779514.6024                   23779516.8244
 -10841158.42247  -9101086.04745  22129557.1564                   22129557.4574
  -2509398.08647  -1944771.73044  23796389.2974                   23796392.1724
 -11981882.61347  -9325274.66845  22836305.9694                   22836307.6214
 -18711616.01647 -14568360.72345  22622483.0004                   22622486.7774
 -17572101.16047 -14030613.55945  21566457.1564                   21566457.7704
 -24998964.12948 -19469519.96547  20640864.2424                   20640864.1524
  -4753670.05147  -3692069.53143  24066026.9454                   24066027.7274
 11  9 22  1 12  0.0000000  0 10G02G05G12G15G18G30G25G26G29G21
 -28034020.89547 -21838476.52044  22767628.8834                   22767627.0904
 -26665261.87548 -20765979.44946  21668621.4844                   21668620.1214
 -17631775.38346 -13723985.92643  23793146.0234                   23793145.3794
 -10950420.62947  -9186225.34045  22108765.2894                   22108765.7894
  -2614342.32047  -2026546.34044  23776419.4384                   23776421.5984
 -11961043.62547  -9309036.53145  22840271.5634                   22840272.9614
 -18664719.87147 -14531818.34845  22631407.4924                   22631410.3754
 -17648992.34848 -14090528.69146  21551825.9144                   21551825.9654
 -25070928.84848 -19525596.32847  20627170.3134                   20627169.2114
  -4837505.14547  -3757395.42244  24050072.8444                   24050072.9804
 11  9 22  1 12 30.0000000  0 10G02G05G12G15G18G30G25G26G29G21
 -28003437.85247 -21814645.58244  22773448.7194                   22773445.7734
 -26613665.24648 -20725774.28146  21678439.5234                   21678438.4414
 -17560133.20347 -13668160.96144  23806778.4534                   23806780.5784
 -11059394.33647  -9271139.79345  22088028.4144                   22088028.7704
  -2719060.62946  -2108144.90643  23756491.5164                   23756493.5984
 -11939769.41847  -9292459.27344  22844320.1564                   22844320.1764
 -18617537.44947 -14495052.88745  22640386.2344                   22640389.8554
 -17725321.93747 -14150006.22745  21537300.2894                   21537300.3164
 -25142480.57848 -19581350.86747  20613554.2814                   20613553.5434
  -4921358.71546  -3822735.81643  24034116.0474                   24034116.2274
 11  9 22  1 13  0.0000000  0 10G02G05G12G15G18G30G25G26G29G21
 -27972717.43047 -21790707.55144  22779294.9924                   22779292.5744
 -26561837.68448 -20685389.16846  21688302.1094                   21688300.8484
 -17488480.40646 -13612327.75444  23820413.5084                   23820416.8714
 -11168074.89848  -9355825.84046  22067347.7734                   22067347.6524
  -2823550.68746  -2189565.60943  23736607.7734                   23736609.7664
 -11918061.03947  -9275543.67644  22848451.2814                   22848451.9344
 -18570070.15647 -14458065.46545  22649418.9224                   22649423.3164
 -17801085.85948 -14209042.95345  21522883.1564                   21522882.2154
 -25213615.41848 -19636780.57447  20600017.5944                   20600016.9184
  -5005229.24247  -3888089.33244  24018156.6644                   24018156.8284
 11  9 22  1 13 30.0000000  0 10G02G05G12G15G18G30G25G26G29G21
 -27941860.81247 -21766663.41044  22785165.8594                   22785164.4224
 -26509783.06648 -20644827.13746  21698207.9454                   21698207.1294
 -17416820.93446 -13556489.40644  23834050.3914                   23834052.8834
 -11276460.83648  -9440282.32045  22046721.9144                   22046721.1294
  -2927812.89546  -2270808.73043  23716766.9224                   23716768.5784
 -11895922.54747  -9258292.94545  22852663.9534                   22852665.7074
 -18522322.66047 -14420859.71945  22658505.3594                   22658508.7894
 -17876282.35248 -14267637.52745  21508573.4614                   21508573.8954
 -25284332.87148 -19691885.03547  20586560.6094                   20586559.8594
  -5089118.54747  -3953457.51644  24002192.3524                   24002190.8054
 11  9 22  1 14  0.0000000  0 10G02G05G12G15G18G30G25G26G29G21
 -27910866.33647 -21742511.87944  22791064.3204                   22791062.8404
 -26457502.27348 -20604088.85246  21708156.2424                   21708155.0084
 -17345156.83646 -13500647.33244  23847687.5164                   23847690.1724
 -11384547.73848  -9524505.77345  22026153.3284                   22026153.6954
  -3031845.15246  -2351872.72743  23696970.6884                   23696971.2034
 -11873355.34447  -9240708.15644  22856958.3284                   22856960.2384
 -18474296.65647 -14383436.91445  22667644.3204                   22667647.6684
 -17950907.69548 -14325787.06246  21494373.0164                   21494373.2624
 -25354629.48848 -19746661.56647  20573183.1024                   20573183.2344
  -5173025.61747  -4018839.53543  23986224.9614                   23986224.7544
 11  9 22  1 14 30.0000000  0 10G02G05G12G15G18G30G25G26G29G21
 -27879733.25447 -21718252.32444  22796989.2894                   22796986.2154
 -26404997.39548 -20563175.96146  21718148.3834                   21718147.1724
 -17273490.71546 -13444803.76244  23861324.8284                   23861327.2464
 -11492332.71148  -9608493.96946  22005642.7274                   22005643.4614
  -3135646.44147  -2432756.73843  23677218.0234                   23677217.7274
 -11850361.86347  -9222791.20344  22861333.6884                   22861335.1804
 -18425995.05147 -14345799.37545  22676835.5314                   22676839.6134
 -18024958.74247 -14383489.12146  21480281.7274                   21480281.3094
 -25424502.82848 -19801108.26647  20559886.8134                   20559886.5434
  -5256950.21947  -4084235.22344  23970253.9774                   23970254.7854
 11  9 22  1 15  0.0000000  0 10G02G05G12G15G18G30G25G26G29G21
 -27848465.12147 -21693887.52045  22802939.6724                   22802936.5944
 -26352274.74648 -20522093.35946  21728181.1174                   21728179.9264
 -17201828.84447 -13388963.48044  23874962.1094                   23874964.4184
 -11599816.07848  -9692247.12946  21985188.6484                   21985189.9734
  -3239219.51647  -2513462.89844  23657508.7894                   23657508.9064
 -11826948.61347  -9204547.16044  22865788.9774                   22865789.9694
 -18377424.69947 -14307952.43045  22686077.8674                   22686082.5784
 -18098436.65647 -14440744.53545  21466298.9304                   21466298.5984
 -25493954.47348 -19855226.37547  20546670.5864                   20546669.9734
  -5340896.46547  -4149647.79344  23954279.8984                   23954280.4264
 11  9 22  1 15 30.0000000  0 10G02G05G12G15G18G30G25G26G29G21
 -27817058.27047 -21669414.62145  22808915.5554                   22808913.5474
 -26299333.22747 -20480840.22346  21738255.5084                   21738254.3404
 -17130171.32847 -13333126.56244  23888598.6024                   23888601.0864
 -11706991.44547  -9775760.30945  21964793.6724                   21964794.2894
  -3342560.28547  -2593988.01643  23637844.0164                   23637844.7234
 -11803114.95747  -9185975.50044  22870324.9304                   22870325.4574
 -18328585.39147 -14269895.87945  22695372.3134                   22695375.3914
 -18171335.40248 -14497548.65645  21452426.5234                   21452426.3014
 -25562979.13748 -19909011.78147  20533535.6804                   20533535.2424
  -5424861.05547  -4215074.67244  23938302.2034                   23938303.4494
 11  9 22  1 16  0.0000000  0 10G02G05G12G15G18G30G25G26G29G21
 -27785513.39147 -21644834.18445  22814918.9614                   22814916.6724
 -26246176.30547 -20439419.23046  21748370.8754                   21748369.6604
 -17058521.71147 -13277295.85544  23902233.3134                   23902235.4144
 -11813857.11747  -9859032.18445  21944458.0314                   21944458.6804
  -3445669.32447  -2674332.54343  23618222.9064                   23618223.4064
 -11778864.94947  -9167079.43744  22874939.2034                   22874940.8674
 -18279481.55147 -14231633.23445  22704716.1804                   22704719.9654
 -18243653.48447 -14553900.31645  21438664.6644                   21438664.9964
 -25631576.01648 -19962463.84447  20520481.9844                   20520481.0704
  -5508845.78147  -4280517.20344  23922320.5784                   23922321.7464
 11  9 22  1 16 30.0000000  0 10G02G05G12G15G18G30G25G26G29G21
 -27753829.15247 -21620145.15645  22820948.5164                   22820946.6884
 -26192805.23447 -20397831.37546  21758526.5084                   21758526.1214
 -16986881.89847 -13221472.74644  23915865.8364                   23915867.9224
 -11920408.98048  -9942059.51245  21924181.9614                   21924182.2814
  -3548544.79747  -2754495.11344  23598645.3674                   23598645.9654
 -11754199.93047  -9147860.02044  22879633.0704                   22879634.1174
 -18230114.97347 -14193165.84845  22714110.4384                   22714114.2734
 -18315386.82447 -14609796.35545  21425014.3674                   21425014.3674
 -25699741.61748 -20015579.84047  20507510.4614                   20507509.7424
  -5592849.57047  -4345974.62544  23906335.3444                   23906336.1294
 11  9 22  1 17  0.0000000  0 10G02G05G12G15G18G30G25G26G29G21
 -27722003.84447 -21595346.18445  22827004.4454                   22827002.4064
 -26139221.24647 -20356077.61746  21768723.5314                   21768722.5314
 -16915253.85547 -13165658.82843  23929496.1414                   23929497.7464
 -12026642.58648 -10024838.86746  21903966.1484                   21903966.4304
  -3651184.05546  -2834473.60944  23579113.9144                   23579113.9694
 -11729121.42247  -9128318.38344  22884405.0554                   22884406.2034
 -18180487.54747 -14154495.21545  22723554.4614                   22723558.4774
 -18386531.63348 -14665233.79345  21411475.7664                   21411476.1214
 -25767472.28148 -20068356.93047  20494621.6884                   20494621.2034
  -5676871.14147  -4411445.86344  23890345.9694                   23890347.0784
 11  9 22  1 17 30.0000000  0 10G02G05G12G15G18G30G25G26G29G21
 -27690039.94947 -21570439.23045  22833086.9844                   22833085.3244
 -26085429.30947 -20314161.80546  21778959.8754                   21778959.1524
 -16843643.00447 -13109858.22344  23943124.2194                   23943124.6954
 -12132557.82848 -10107370.12546  21883811.1644                   21883811.6884
  -3753589.37947  -2914269.80943  23559626.5474                   23559626.9804
 -11703635.15247  -9108458.98044  22889255.0704                   22889257.3244
 -18130605.25047 -14115625.96545  22733047.1174                   22733051.4574
 -18457088.30147 -14720212.93445  21398048.9304                   21398049.6604
 -25834769.35248 -20120796.14847  20481815.6644                   20481814.9534
  -5760913.83247  -4476933.55144  23874353.6804                   23874353.6804
 11  9 22  1 18  0.0000000  0 10G02G05G12G15G18G30G25G26G29G21
 -27657934.81647 -21545422.21945  22839196.2194                   22839194.5234
 -26031429.77048 -20272084.21546  21789235.6564                   21789235.7854
 -16772049.75447 -13054071.38344  23956747.3914                   23956748.9304
 -12238149.97747 -10189649.62945  21863717.6254                   21863717.4454
  -3855758.07847  -2993881.64144  23540184.6564                   23540185.8204
 -11677741.81247  -9088282.42644  22894182.7114                   22894184.3754
 -18080469.18047 -14076558.98045  22742587.6174                   22742591.0904
 -18527052.04748 -14774730.05145  21384735.5234                   21384735.4574
 -25901628.48448 -20172894.13347  20469092.8524                   20469091.9964
  -5844975.58647  -4542436.12944  23858356.4064                   23858356.8054
 11  9 22  1 18 30.0000000  0 10G02G05G12G15G18G30G25G26G29G21
 -27625689.83247 -21520296.23045  22845332.2344                   22845330.5234
 -25977226.28147 -20229847.71546  21799550.1254                   21799549.9964
 -16700478.90246 -12998302.02044  23970366.4534                   23970368.7664
 -12343417.31247 -10271676.00845  21843685.9064                   21843686.0514
  -3957690.84847  -3073309.58643  23520787.0234                   23520788.5634
 -11651445.78147  -9067792.07044  22899186.8594                   22899187.4144
 -18030084.06247 -14037297.91445  22752175.4224                   22752178.7974
 -18596422.08248 -14828784.54745  21371535.0234                   21371534.9304
 -25968049.24648 -20224650.52747  20456453.1954                   20456452.1294
  -5929058.18447  -4607954.95344  23842356.6334                   23842356.7384
 11  9 22  1 19  0.0000000  0 10G02G05G12G15G18G30G25G26G29G21
 -27593303.27347 -21495059.92245  22851495.5944                   22851493.3524
 -25922819.96148 -20187453.16046  21809903.0784                   21809902.4884
 -16628931.73446 -12942551.12943  23983981.6254                   23983983.9414
 -12448355.40648 -10353445.85546  21823716.7194                   21823717.1174
  -4059385.47347  -3152551.97744  23501434.9924                   23501437.6214
 -11624748.53147  -9046989.05544  22904266.6644                   22904268.0394
 -17979451.68747 -13997844.18745  22761810.3914                   22761814.9654
 -18665194.25047 -14882373.16045  21358447.7034                   21358447.5944
 -26034028.21148 -20276062.66047  20443897.6254                   20443896.5354
  -6013160.43047  -4673489.08244  23826351.8674                   23826351.5164
 11  9 22  1 19 30.0000000  0 10G02G05G12G15G18G30G25G26G29G21
 -27560775.53547 -21469713.62145  22857684.9534                   22857682.3364
 -25868214.17647 -20144903.17246  21820293.9144                   21820293.8204
 -16557412.02046 -12886821.62943  23997591.0864                   23997593.7424
 -12552962.30548 -10434957.62545  21803810.1334                   21803810.6604
  -4160842.03947  -3231608.88344  23482128.1884                   23482130.4384
 -11597653.56647  -9025876.14544  22909423.0394                   22909424.8554
 -17928575.87147 -13958200.77345  22771492.0554                   22771496.0554
 -18733367.00047 -14935494.70345  21345474.5084                   21345474.8954
 -26099564.28948 -20327129.69947  20431426.7344                   20431426.4064
  -6097283.33647  -4739039.29344  23810343.9694                   23810344.4304
 11  9 22  1 20  0.0000000  0 10G02G05G12G15G18G30G25G26G29G21
 -27528106.64847 -21444257.31244  22863901.4384                   22863899.5704
 -25813411.15647 -20102199.52346  21830723.0234                   21830722.3914
 -16485922.73046 -12831115.80143  24011196.1644                   24011197.7544
 -12657235.30948 -10516209.24245  21783967.8834                   21783967.1914
  -4262060.36747  -3310480.13743  23462866.2344                   23462868.6454
 -11570164.10247  -9004455.82444  22914653.8054                   22914655.8204
 -17877460.18747 -13918370.44145  22781218.9224                   22781223.2034
 -18800938.07847 -14988147.43045  21332616.5944                   21332616.1684
 -26164655.34448 -20377849.96147  20419040.0004                   20419039.6334
  -6181427.29346  -4804605.92644  23794331.9534                   23794331.6844
 11  9 22  1 20 30.0000000  0 10G02G05G12G15G18G30G25G26G29G21
 -27495294.54747 -21418689.44145  22870145.7274                   22870144.2624
 -25758411.87947 -20059342.91846  21841188.8054                   21841187.9494
 -16414465.20746 -12775434.69543  24024793.0784                   24024796.8164
 -12761169.93048 -10597197.16445  21764189.5864                   21764188.4454
  -4363038.07446  -3389163.91443  23443651.9384                   23443653.8014
 -11542281.46147  -8982729.11344  22919960.0554                   22919961.4384
 -17826106.27047 -13878354.48045  22790991.9144                   22790995.9884
 -18867903.61747 -15040328.28145  21319873.0864                   21319872.7664
 -26229297.99648 -20428220.83247  20406739.2114                   20406738.7234
  -6265591.08647  -4870187.99644  23778316.2584                   23778316.5744
 11  9 22  1 21  0.0000000  0 10G02G05G12G15G18G30G25G26G29G21
 -25886924.13347 -20165413.78145  23176208.5944                   23176206.1604
 -24127804.07047 -18788739.41846  22151483.2344                   22151482.6524
 -14767628.26646 -11492185.30943  24338175.3834                   24338179.4654
 -11289343.32448  -9450319.19146  22044269.0164                   22044268.4304
  -2888354.63747  -2240059.78143  23724274.3364                   23724276.1764
  -9938593.09847  -7733101.87944  23225131.8524                   23225132.4344
 -16199102.56247 -12610559.43445  23100599.8524                   23100603.8284
 -17358842.46147 -13864436.39845  21607038.0554                   21607037.6134
 -24718071.92648 -19250642.02747  20694315.7194                   20694315.6954
  -4774355.21946  -3708185.91844  24062088.6564                   24062089.1334
 11  9 22  1 21 30.0000000  0 10G02G05G12G15G18G30G25G26G29G21
 -25853829.65647 -20139625.83644  23182506.2114                   23182503.5314
 -24072423.65647 -18745585.82846  22162022.0704                   22162020.1094
 -14696246.97746 -11436563.69943  24351760.6804                   24351762.2704
 -11392596.80548  -9530776.37146  22024620.5784                   22024621.0044
  -2988853.41847  -2318370.37143  23705150.4304                   23705151.2274
  -9909937.19547  -7710772.63744  23230585.3524                   23230586.4844
 -16147286.09447 -12570183.02045  23110459.8984                   23110463.7344
 -17424593.85947 -13915671.18746  21594525.4694                   21594525.6374
 -24781816.70348 -19300313.26247  20682185.9144                   20682184.5274
  -4858563.48447  -3773802.65244  24046064.2584                   24046064.8874
 11  9 22  1 22  0.0000000  0 10G02G05G12G15G18G30G25G26G29G21
 -25820594.64847 -20113728.41445  23188830.6094                   23188828.9734
 -24016857.50847 -18702287.51246  22172595.9144                   22172594.7074
 -14624909.44147 -11380976.14844  24365335.3204                   24365337.9654
 -11495506.56648  -9610965.69546  22005037.1024                   22005038.3914
  -3089112.80547  -2396494.44544  23686071.3444                   23686072.1524
  -9880900.34047  -7688146.53944  23236110.3754                   23236111.8014
 -16095244.35247 -12529631.07445  23120363.3914                   23120367.4924
 -17489735.87547 -13966431.15246  21582129.5164                   21582129.6374
 -24845110.89148 -19349633.37147  20670140.8594                   20670140.2234
  -4942795.45747  -3839437.84844  24030035.2584                   24030035.6604
 11  9 22  1 22 30.0000000  0 10G02G05G12G15G18G30G25G26G29G21
 -25787216.79747 -20087719.66044  23195181.7194                   23195180.4224
 -23961105.75847 -18658844.57046  22183204.7504                   22183203.7384
 -14553616.88747 -11325423.64144  24378902.1024                   24378905.3524
 -11598067.82448  -9690883.46946  21985520.5634                   21985521.6914
  -3189130.34047  -2474430.06644  23667038.5864                   23667039.3914
  -9851483.44947  -7665224.34844  23241708.3754                   23241709.4734
 -16042978.63747 -12488904.60945  23130309.7504                   23130313.4964
 -17554264.39847 -14016713.03945  21569850.4224                   21569850.4454
 -24907950.30147 -19398599.12147  20658183.1024                   20658182.5594
  -5027049.50047  -3905090.27044  24014002.2344                   24014003.1764
 11  9 22  1 23  0.0000000  0 10G02G05G12G15G18G30G25G26G29G21
 -25753695.59847 -20061599.24245  23201560.9924                   23201559.4414
 -23905170.43747 -18615258.57845  22193849.5234                   22193847.4344
 -14482371.37946 -11269907.81643  24392458.7894                   24392463.7194
 -11700277.32048  -9770527.14146  21966070.6954                   21966071.3444
  -3288904.79347  -2552176.29344  23648052.1024                   23648054.0864
  -9821689.14547  -7642008.06244  23247378.0314                   23247378.8954
 -15990491.74247 -12448005.78145  23140297.0634                   23140301.5394
 -17618176.61348 -14066514.69545  21557688.3364                   21557687.3134
 -24970333.01648 -19447209.00447  20646311.8054                   20646311.1024
  -5111325.37147  -3970759.69144  23997965.1174                   23997965.9024
 11  9 22  1 23 30.0000000  0 10G02G05G12G15G18G30G25G26G29G21
 -25720029.82047 -20035366.14844  23207966.7974                   23207965.4654
 -23849052.56247 -18571530.35546  22204528.4924                   22204527.1214
 -14411174.82047 -11214430.15243  24406007.6884                   24406012.3634
 -11802131.42647  -9849893.89146  21946688.4384                   21946689.3324
  -3388434.94146  -2629732.16044  23629111.8834                   23629113.2584
  -9791519.45747  -7618499.22744  23253118.7424                   23253121.0434
 -15937786.10247 -12406936.51245  23150326.7814                   23150332.6294
 -17681469.45348 -14115833.71946  21545644.1484                   21545643.3554
 -25032255.82448 -19495460.50447  20634528.2894                   20634527.1954
  -5195622.44146  -4036445.64144  23981923.3524                   23981923.2774
 11  9 22  1 24  0.0000000  0 10G02G05G12G15G18G30G25G26G29G21
 -25686220.61747 -20009021.30144  23214401.3054                   23214399.1484
 -23792756.92247 -18527663.60246  22215241.2034                   22215239.7154
 -14340031.80947 -11158994.16044  24419546.9384                   24419550.0434
 -11903628.95748  -9928982.78946  21927374.2504                   21927373.8554
  -3487722.00847  -2707098.58644  23610217.8204                   23610218.8634
  -9760979.24647  -7594701.68744  23258930.4924                   23258933.0824
 -15884866.68048 -12365700.67245  23160397.5704                   23160401.7894
 -17744142.39547 -14164669.71146  21533717.8444                   21533717.3094
 -25093718.98848 -19543353.85547  20622832.4304                   20622831.8794
  -5279942.69946  -4102149.61744  23965877.7814                   23965878.1024
 11  9 22  1 24 30.0000000  0 10G02G05G12G15G18G30G25G26G29G21
 -25652265.86347 -19982563.05144  23220862.5554                   23220860.2114
 -23736283.77747 -18483658.53946  22225987.4384                   22225986.2304
 -14268943.09847 -11103600.43744  24433074.6094                   24433078.7584
 -12004765.05148 -10007790.05546  21908128.5164                   21908128.1684
  -3586763.19946  -2784273.42244  23591371.0314                   23591371.1294
  -9730069.35947  -7570616.05944  23264812.5704                   23264814.5944
 -15831734.65247 -12324299.14145  23170507.9454                   23170511.9734
 -17806191.46547 -14213019.59445  21521909.8204                   21521909.0434
 -25154719.05548 -19590886.33647  20611224.3594                   20611224.2854
  -5364284.25447  -4167870.19944  23949828.5474                   23949827.9534
 11  9 22  1 25  0.0000000  0 10G02G05G12G15G18G30G25G26G29G21
 -25618167.49247 -19955992.87544  23227351.0314                   23227348.4264
 -23679637.24248 -18439518.34846  22236766.8754                   22236765.6294
 -14197913.43747 -11048252.82844  24446590.1094                   24446595.1054
 -12105538.82848 -10086314.97746  21888951.9774                   21888951.1914
  -3685559.99647  -2861257.83643  23572570.5634                   23572570.2584
  -9698794.83247  -7546246.34044  23270764.2814                   23270765.9384
 -15778395.25847 -12282736.04345  23180657.9774                   23180662.0554
 -17867616.31647 -14260883.02345  21510220.7894                   21510220.3754
 -25215255.62547 -19638057.65647  20599704.8914                   20599703.9024
  -5448649.10546  -4233608.93444  23933773.8984                   23933773.8204
 11  9 22  1 25 30.0000000  0 10G02G05G12G15G18G30G25G26G29G21
 -25583923.80947 -19929309.46144  23233867.2274                   23233865.2344
 -23622818.18748 -18395243.73446  22247578.6024                   22247578.0044
 -14126944.19146 -10992952.22744  24460094.7194                   24460098.6804
 -12205946.37148 -10164554.50846  21869844.6884                   21869843.9414
  -3784110.62547  -2938050.43444  23553816.7894                   23553816.3014
  -9667157.52347  -7521593.91844  23276785.0164                   23276786.5864
 -15724850.45747 -12241012.88345  23190847.7194                   23190850.8364
 -17928413.52347 -14308257.43746  21498651.8284                   21498651.3674
 -25275325.10248 -19684864.98847  20588273.7584                   20588273.4574
  -5533036.47346  -4299365.19144  23917715.4144                   23917715.1914
 11  9 22  1 26  0.0000000  0 10G02G05G12G15G18G30G25G26G29G21
 -25549534.90647 -19902512.89544  23240410.9534                   23240409.2384
 -23565829.35248 -18350836.82846  22258423.6174                   22258422.8794
 -14056038.83647 -10937701.46943  24473588.3674                   24473590.7814
 -12305985.00048 -10242506.60246  21850807.9774                   21850807.7234
  -3882414.63746  -3014650.89143  23535110.1094                   23535110.4884
  -9635160.59047  -7496661.27744  23282873.6024                   23282875.0004
 -15671103.73047 -12199132.36345  23201075.4144                   23201078.4574
 -17988581.36347 -14355141.41445  21487202.1414                   21487201.8134
 -25334926.71548 -19731307.76647  20576931.8444                   20576930.9924
  -5617446.52347  -4365139.11744  23901652.7814                   23901652.6884
 11  9 22  1 26 30.0000000  0 10G02G05G12G15G18G30G25G26G29G21
 -25515001.82846 -19875604.01644  23246982.1414                   23246981.0274
 -23508674.59448 -18306300.63346  22269299.9774                   22269298.6564
 -13985201.85947 -10882503.93443  24487068.5314                   24487070.6644
 -12405653.64148 -10320170.37146  21831841.5704                   21831841.1054
  -3980473.25847  -3091060.11744  23516450.3984                   23516451.1844
  -9602808.69146  -7471452.02744  23289029.7194                   23289031.0314
 -15617159.86747 -12157098.26245  23211340.7814                   23211343.5984
 -18048119.29348 -14401534.54745  21475873.0004                   21475871.7704
 -25394060.14548 -19777385.73047  20565679.0704                   20565678.1174
  -5701880.93447  -4430932.02344  23885585.4454                   23885584.4344
 11  9 22  1 27  0.0000000  0 10G02G05G12G15G18G30G25G26G29G21
 -25480323.34846 -19848581.82844  23253581.3594                   23253580.8054
 -23451355.02747 -18261636.00046  22280207.0004                   22280206.1954
 -13914434.80546 -10827360.91843  24500535.1414                   24500538.3914
 -12504948.44948 -10397542.84846  21812946.3754                   21812945.2544
  -4078284.69947  -3167276.71944  23497837.6334                   23497837.4384
  -9570103.81646  -7445967.75044  23295253.0784                   23295254.3444
 -15563021.09047 -12114912.25445  23221643.2814                   23221645.9064
 -18107023.91048 -14447434.18446  21464663.3524                   21464663.0434
 -25452722.41048 -19823096.53547  20554516.0554                   20554514.8054
  -5786338.81247  -4496743.20344  23869513.9304                   23869513.2814
 11  9 22  1 27 30.0000000  0 10G02G05G12G15G18G30G25G26G29G21
 -25445497.16046 -19821444.54344  23260208.9064                   23260207.0354
 -23393870.78548 -18216843.07046  22291146.2894                   22291145.7734
 -13843738.05546 -10772272.60943  24513987.8914                   24513990.9144
 -12603864.32048 -10474620.07046  21794122.6414                   21794122.1914
  -4175846.23847  -3243298.56644  23479271.6954                   23479272.1524
  -9537046.87546  -7420209.12144  23301543.6724                   23301545.3594
 -15508688.44947 -12072575.18445  23231981.7114                   23231984.9804
 -18165291.44548 -14492837.40246  21453575.4384                   21453575.2464
 -25510909.60948 -19868437.16447  20543443.5474                   20543442.6914
  -5870818.24647  -4562571.21544  23853437.9454                   23853437.4844
 11  9 22  1 28  0.0000000  0 10G02G05G12G15G18G30G25G26G29G21
 -25410524.05947 -19794192.76644  23266864.2344                   23266861.0124
 -23336225.00048 -18171924.25846  22302115.8984                   22302115.4844
 -13773115.58646 -10717242.33243  24527426.8594                   24527429.8204
 -12702399.66048 -10551400.73446  21775372.1174                   21775372.6684
  -4273158.59047  -3319126.28944  23460754.1954                   23460753.8244
  -9503641.96546  -7394179.36344  23307900.6334                   23307902.3984
 -15454166.26647 -12030090.41845  23242357.3054                   23242361.0904
 -18222920.71947 -14537743.27346  21442608.5554                   21442608.7304
 -25568620.85248 -19913406.91847  20532461.2734                   20532460.3204
  -5955320.36347  -4628416.87544  23837357.9064                   23837357.5784
 11  9 22  1 28 30.0000000  0 10G02G05G12G15G18G30G25G26G29G21
 -25375405.37147 -19766827.56244  23273546.8984                   23273545.5044
 -23278422.26648 -18126883.13746  22313115.0004                   22313114.6094
 -13702572.04746 -10662273.40243  24540851.8984                   24540853.3164
 -12800553.32848 -10627884.03546  21756693.9844                   21756694.3164
  -4370223.02347  -3394760.81244  23442283.8524                   23442282.8714
  -9469894.08246  -7367882.33644  23314322.2664                   23314324.1604
 -15399459.59847 -11987461.90245  23252767.7424                   23252772.0124
 -18279911.60247 -14582151.67646  21431763.7424                   21431763.6644
 -25625856.25048 -19958005.87547  20521569.5634                   20521568.3444
  -6039847.30147  -4694281.86344  23821272.3984                   23821271.8634
 11  9 22  1 29  0.0000000  0 10G02G05G12G15G18G30G25G26G29G21
 -25340137.65247 -19739346.22744  23280257.8674                   23280256.6604
 -23220461.29347 -18081718.73045  22324144.5164                   22324144.0514
 -13632106.73846 -10607365.54343  24554260.1564                   24554264.5044
 -12898319.57448 -10704065.43046  21738090.3134                   21738090.6174
  -4467035.67247  -3470199.11744  23423859.7194                   23423860.5234
  -9435802.98046  -7341317.87944  23320809.7114                   23320811.2894
 -15344568.37147 -11944689.58645  23263212.8834                   23263217.8554
 -18336259.03547 -14626058.70746  21421041.1804                   21421041.8324
 -25682610.87548 -20002230.23047  20510769.5864                   20510768.1214
  -6124395.97746  -4760163.79744  23805182.5784                   23805182.0984
 11  9 22  1 29 30.0000000  0 10G02G05G12G15G18G30G25G26G29G21
 -25304723.63746 -19711750.88744  23286997.2114                   23286995.5124
 -23162347.27047 -18036435.07045  22335203.4534                   22335203.2854
 -13561725.49246 -10552523.18743  24567653.4384                   24567658.8054
 -12995698.68748 -10779945.15646  21719559.2504                   21719559.6484
  -4563598.74647  -3545442.97744  23405485.0394                   23405485.5164
  -9401374.72747  -7314490.73044  23327361.4454                   23327362.3014
 -15289498.91447 -11901778.35945  23273692.5394                   23273696.4774
 -18391964.06647 -14669465.16446  21410440.4384                   21410440.4924
 -25738885.92248 -20046080.87547  20500060.5554                   20500060.0434
  -6208969.17546  -4826064.86344  23789089.1724                   23789089.3404
 11  9 22  1 30  0.0000000  0 10G02G05G12G15G18G30G25G26G29G21
 -25269161.30546 -19684039.98444  23293764.0864                   23293762.8054
 -23104080.77048 -17991032.59446  22346291.5784                   22346291.3244
 -13491428.96946 -10497746.76643  24581030.7274                   24581034.5864
 -13092686.03548 -10855519.62146  21701103.0234                   21701103.6524
  -4659910.60947  -3620491.07443  23387157.1174                   23387158.4654
  -9366610.73046  -7287401.93744  23333977.2034                   23333979.5394
 -15234252.68447 -11858729.41044  23284206.1024                   23284209.9344
 -18447022.78147 -14712368.00446  21399963.4614                   21399963.5474
 -25794678.44947 -20089555.52747  20489444.0004                   20489442.6134
  -6293565.49646  -4891983.87944  23772990.6414                   23772989.9534
 11  9 22  1 30 30.0000000  0 10G02G05G12G15G18G30G25G26G29G21
 -25233451.21146 -19656213.96144  23300559.5864                   23300558.4694
 -23045664.52348 -17945513.42246  22357407.6644                   22357406.6214
 -13421221.44146 -10443039.75843  24594391.6484                   24594393.2504
 -13189279.41848 -10930787.11346  21682722.0704                   21682721.5864
  -4755971.40647  -3695343.49644  23368877.1024                   23368878.4304
  -9331514.77346  -7260054.50444  23340655.6414                   23340657.4414
 -15178833.50847 -11815545.68744  23294751.5704                   23294756.2624
 -18501434.26647 -14754766.51645  21389609.0784                   21389608.1764
 -25849987.02047 -20132653.08647  20478919.0164                   20478917.7424
  -6378185.37946  -4957921.29344  23756888.0314                   23756887.5864
 11  9 22  1 31  0.0000000  0 10G02G05G12G15G18G30G25G26G29G21
 -25197592.30146 -19628271.97344  23307383.2974                   23307381.4884
 -22987100.26247 -17899878.90245  22368551.9064                   22368550.6374
 -13351104.34446 -10388403.12143  24607734.4454                   24607736.1524
 -13285475.74648 -11005745.19546  21664416.7814                   21664415.2974
  -4851779.82046  -3769999.24644  23350644.8914                   23350646.9494
  -9296089.25046  -7232450.23444  23347396.6174                   23347397.5514
 -15123244.09447 -11772229.30144  23305329.7664                   23305333.8954
 -18555196.14148 -14796658.84046  21379378.9224                   21379378.2624
 -25904809.35548 -20175371.75047  20468486.6724                   20468485.0824
  -6462828.84446  -5023877.07844  23740781.6564                   23740780.7894
 11  9 22  1 31 30.0000000  0 10G02G05G12G15G18G30G25G26G29G21
 -25161582.34446 -19600212.26244  23314236.6334                   23314234.8954
 -22928388.27747 -17854129.27745  22379723.8524                   22379723.1414
 -13281078.40246 -10333837.59844  24621058.8444                   24621063.4454
 -13381270.17248 -11080390.09846  21646187.0474                   21646186.4574
  -4947333.55147  -3844456.54744  23332462.1024                   23332462.9384
  -9260335.23946  -7204590.05944  23354200.2114                   23354201.5664
 -15067485.57447 -11728781.13345  23315940.8834                   23315945.0004
 -18608304.32847 -14838041.80546  21369272.5634                   21369272.0864
 -25959141.61748 -20217708.56247  20458147.4534                   20458146.6604
  -6547493.55546  -5089849.41044  23724669.6484                   23724669.7074
 11  9 22  1 32  0.0000000  0 10G02G05G12G15G18G30G25G26G29G21
 -25125425.16846 -19572037.83644  23321116.6884                   23321114.6644
 -22869534.69547 -17808269.34845  22390923.5704                   22390922.6804
 -13211150.37546 -10279348.48044  24634366.4694                   24634370.7074
 -13476664.20748 -11154723.02346  21628033.8984                   21628033.2384
  -5042636.12547  -3918718.13344  23314326.4844                   23314326.6844
  -9224260.04346  -7176479.53144  23361065.5004                   23361066.1684
 -15011565.33247 -11685206.96544  23326581.6094                   23326585.6214
 -18660761.22747 -14878917.26246  21359290.0474                   21359289.2934
 -26012986.51248 -20259665.58647  20447901.1804                   20447899.8364
  -6632183.75046  -5155841.61344  23708553.6254                   23708553.2114
 11  9 22  1 32 30.0000000  0 10G02G05G12G15G18G30G25G26G29G21
 -25089117.57046 -19543746.19944  23328025.2734                   23328023.6564
 -22810538.87947 -17762298.60245  22402150.7194                   22402149.1564
 -13141320.03146 -10224935.34044  24647654.8754                   24647659.6094
 -13571652.23448 -11228739.57846  21609958.5004                   21609957.6094
  -5137684.17647  -3992781.36744  23296239.1254                   23296239.4024
  -9187863.84446  -7148118.87944  23367990.7734                   23367992.5124
 -14955483.57447 -11641506.95344  23337253.4694                   23337258.5594
 -18712562.42247 -14919281.78946  21349432.6644                   21349432.6294
 -26066339.33247 -20301239.19947  20437748.4774                   20437747.3134
  -6716896.51246  -5221851.42244  23692432.8524                   23692431.7734
 11  9 22  1 33  0.0000000  0 10G02G05G12G15G18G30G25G26G29G21
 -25052660.25846 -19515337.89544  23334962.7894                   23334961.4024
 -22751403.87548 -17716219.39846  22413403.7034                   22413402.1564
 -13071590.53146 -10170600.87544  24660924.3674                   24660928.6484
 -13666232.34448 -11302438.27746  21591960.0784                   21591959.0704
  -5232478.09447  -4066646.57444  23278200.5784                   23278201.0944
  -9151150.59846  -7119511.21944  23374977.8204                   23374980.2154
 -14899244.43747 -11597684.29745  23347956.0554                   23347961.2894
 -18763706.61748 -14959134.34045  21339699.9614                   21339699.4654
 -26119199.37948 -20342428.82047  20427689.5164                   20427688.3444
  -6801632.82847  -5287879.57044  23676309.1254                   23676307.3164
 11  9 22  1 33 30.0000000  0 10G02G05G12G15G18G30G25G26G29G21
 -25016052.71546 -19486812.54744  23341929.0634                   23341926.9384
 -22692131.94948 -17670033.49245  22424682.9774                   22424680.7274
 -13001965.56246 -10116347.75844  24674174.1804                   24674176.9694
 -13760401.85548 -11375817.02346  21574040.0554                   21574039.3404
  -5327017.38747  -4140313.35544  23260209.9064                   23260210.2934
  -9114123.54346  -7090659.02344  23382023.5944                   23382025.3874
 -14842851.21147 -11553741.58645  23358687.4454                   23358692.1804
 -18814192.49247 -14998473.92246  21330092.9064                   21330092.5004
 -26171564.86348 -20383233.07047  20417724.5634                   20417723.0234
  -6886392.86347  -5353926.20344  23660178.5314                   23660177.6724
 11  9 22  1 34  0.0000000  0 10G02G05G12G15G18G30G25G26G29G21
 -24979294.55146 -19458169.81244  23348923.7894                   23348921.7894
 -22632724.77048 -17623742.19145  22435988.1174                   22435984.9614
 -12932447.05546 -10062177.59044  24687403.3444                   24687405.5044
 -13854158.28947 -11448873.87946  21556198.5634                   21556198.2774
  -5421301.57847  -4213781.37144  23242268.3984                   23242267.6764
  -9076785.54346  -7061564.49644  23389128.7584                   23389130.2624
 -14786306.87947 -11509681.12145  23369447.3594                   23369451.4694
 -18864018.14547 -15037299.04346  21320611.3054                   21320611.7154
 -26223434.02748 -20423650.58647  20407854.5634                   20407852.9344
  -6971176.30947  -5419991.12144  23644044.6644                   23644043.9184
 11  9 22  1 34 30.0000000  0 10G02G05G12G15G18G30G25G26G29G21
 -24942385.59046 -19429409.57844  23355947.4614                   23355945.8524
 -22573184.72748 -17577347.36345  22447318.1804                   22447316.4104
 -12863037.00046 -10008091.96943  24700611.7034                   24700614.9024
 -13947498.66848 -11521606.55546  21538437.2114                   21538436.6374
  -5515330.18047  -4287050.21944  23224374.2584                   23224375.0084
  -9039139.68046  -7032230.11744  23396292.6094                   23396294.1054
 -14729614.57447 -11465505.34044  23380234.9224                   23380238.8984
 -18913181.78548 -15075608.32846  21311255.6724                   21311255.4064
 -26274805.32448 -20463680.15247  20398078.8984                   20398077.2154
  -7055983.25047  -5486074.32844  23627906.8134                   23627905.5664
 11  9 22  1 35  0.0000000  0 10G02G05G12G15G18G30G25G26G29G21
 -24905326.32846 -19400532.26644  23362999.4224                   23362998.3834
 -22513514.47747 -17530851.07445  22458672.5474                   22458671.6214
 -12793739.71545  -9954094.24643  24713797.7664                   24713802.1804
 -14040421.04748 -11594013.50446  21520754.5784                   21520754.5744
  -5609103.72347  -4360120.30144  23206529.2814                   23206530.7034
  -9001190.13746  -7002659.07044  23403514.3204                   23403516.7584
 -14672778.39847 -11421217.45344  23391050.9064                   23391054.8484
 -18961682.66848 -15113401.16446  21302025.9844                   21302026.6644
 -26325677.93048 -20503321.12547  20388398.0864                   20388396.7074
  -7140814.57847  -5552176.51644  23611763.7894                   23611762.0354
 11  9 22  1 35 30.0000000  0 10G02G05G12G15G18G30G25G26G29G21
 -24868115.08246 -19371536.50844  23370080.9614                   23370080.0234
 -22453714.69947 -17484253.85945  22470051.7034                   22470051.1604
 -12724556.00846  -9900185.05143  24726963.4144                   24726967.0474
 -14132921.42648 -11666091.61746  21503152.0004                   21503151.6484
  -5702619.96947  -4432989.93044  23188734.0314                   23188735.4574
  -8962938.21146  -6972852.39844  23410793.1564                   23410795.6684
 -14615799.80147 -11376818.62144  23401893.3284                   23401897.0824
 -19009517.46147 -15150674.99246  21292924.1644                   21292923.2464
 -26376048.50048 -20542570.89847  20378812.7274                   20378811.3404
  -7225668.50047  -5618296.33644  23595616.3134                   23595614.3284
 11  9 22  1 36  0.0000000  0 10G02G05G12G15G18G30G25G26G29G21
 -24830754.34847 -19342424.25844  23377191.3674                   23377189.3284
 -22393790.78547 -17437559.91845  22481455.3524                   22481454.4654
 -12655491.24245  -9846368.54743  24740106.3364                   24740110.1564
 -14225000.07448 -11737841.14146  21485629.8204                   21485629.9494
  -5795881.42247  -4505660.99244  23170986.9774                   23170987.6524
  -8924390.24646  -6942815.08244  23418129.0004                   23418130.4384
 -14558685.18747 -11332313.76644  23412761.9844                   23412765.8094
 -19056687.78148 -15187431.04346  21283948.1804                   21283946.9384
 -26425918.98448 -20581430.98047  20369322.4614                   20369321.4454
  -7310548.23847  -5684436.29744  23579463.9774                   23579462.9414
 11  9 22  1 36 30.0000000  0 10G02G05G12G15G18G30G25G26G29G21
 -24793241.69547 -19313193.57844  23384329.3834                   23384328.1334
 -22333742.51647 -17390769.05945  22492881.5474                   22492881.8094
 -12586545.91045  -9792645.07843  24753226.4614                   24753230.5044
 -14316652.18748 -11809258.29346  21468189.4614                   21468188.6644
  -5888886.03147  -4578131.94144  23153288.6254                   23153290.2194
  -8885547.06646  -6912547.67644  23425520.2664                   23425521.5044
 -14501435.36747 -11287703.54344  23423656.0944                   23423660.0204
 -19103190.03948 -15223666.50046  21275098.7114                   21275097.4884
 -26475285.12948 -20619898.08647  20359928.5944                   20359927.6484
  -7395451.75047  -5750594.78944  23563307.5634                   23563306.6684
 11  9 22  1 37  0.0000000  0  9G02G05G15G18G30G25G26G29G21
 -24755577.29746 -19283844.70344  23391495.8134                   23391495.2074
 -22273572.19947 -17343883.10245  22504331.6334                   22504331.5274
 -14407876.10548 -11880341.78546  21450829.9144                   21450829.0904
  -5981633.84847  -4650402.78144  23135639.5474                   23135640.8714
  -8846412.40246  -6882053.19144  23432968.7194                   23432969.6724
 -14444054.16047 -11242990.96545  23434576.1094                   23434580.3954
 -19149023.03948 -15259380.49246  21266376.8754                   21266375.7734
 -26524146.23448 -20657971.66047  20350630.7274                   20350629.2734
  -7480379.06647  -5816771.84044  23547146.3444                   23547144.4304
 11  9 22  1 37 30.0000000  0  9G02G05G15G18G30G25G26G29G21
 -24717759.48046 -19254376.28944  23398692.8204                   23398692.0944
 -22213280.48447 -17296902.53945  22515804.6724                   22515804.4024
 -14498666.96948 -11951087.82846  21433552.7734                   21433552.7934
  -6074122.66847  -4722471.84844  23118039.6414                   23118040.2384
  -8806987.68446  -6851332.70744  23440470.0554                   23440472.0004
 -14386542.93747 -11198177.07844  23445519.9774                   23445523.8794
 -19194183.70348 -15294570.58645  21257782.7114                   21257781.2154
 -26572499.03948 -20695649.14547  20341429.4774                   20341428.1294
  -7565328.62147  -5882966.25444  23530980.8754                   23530979.1884
 11  9 22  1 38  0.0000000  0  9G02G05G15G18G30G25G26G29G21
 -24679781.28947 -19224782.88744  23405921.1174                   23405919.2854
 -22152862.62947 -17249823.67645  22527301.2814                   22527301.6524
 -14589015.82047 -12021489.44946  21416359.8984                   21416359.8054
  -6166345.77346  -4794333.82444  23100490.0234                   23100490.2894
  -8767269.70747  -6820383.66444  23448028.5004                   23448030.6764
 -14328898.48847 -11153259.37544  23456489.0394                   23456493.5984
 -19238664.10948 -15329230.60246  21249318.6954                   21249317.6994
 -26620335.52748 -20732924.30147  20332326.1484                   20332325.0744
  -7650293.89547  -5949172.90244  23514812.3444                   23514811.5864
 11  9 22  1 38 30.0000000  0  9G02G05G15G18G30G25G26G29G21
 -24641636.94147 -19195059.99644  23413178.8134                   23413177.0944
 -22092315.45347 -17202644.04745  22538823.3054                   22538823.6174
 -14678914.75848 -12091540.48446  21399252.3054                   21399251.9654
  -6258297.16447  -4865984.09044  23082991.6414                   23082992.6684
  -8727255.91047  -6789204.14844  23455642.7194                   23455645.4964
 -14271118.35247 -11108235.95744  23467484.5004                   23467489.4064
 -19282457.32448 -15363355.14146  21240984.8524                   21240983.6484
 -26667648.55548 -20769791.55947  20323322.8834                   20323322.1724
  -7735269.10247  -6015387.28944  23498642.4924                   23498642.1914
 11  9 22  1 39  0.0000000  0  9G02G05G15G18G30G25G26G29G21
 -24603327.55547 -19165208.53544  23420468.6644                   23420467.7734
 -22031642.61347 -17155366.49645  22550369.7734                   22550369.4964
 -14768362.48047 -12161239.91846  21382231.1254                   21382230.6414
  -6349977.73047  -4937423.33644  23065545.5704                   23065546.8914
  -8686951.12547  -6757797.85544  23463312.3984                   23463315.5634
 -14213207.28547 -11063110.50844  23478504.7734                   23478510.3984
 -19325563.36748 -15396944.21946  21232782.2424                   21232781.0164
 -26714438.30948 -20806251.07847  20314419.1024                   20314418.1994
  -7820256.09047  -6081610.88344  23482469.6094                   23482468.7154
 11  9 22  1 39 30.0000000  0  9G02G05G15G18G30G25G26G29G21
 -24564856.13347 -19135230.82444  23427790.2584                   23427788.8714
 -21970849.05947 -17107994.88345  22561938.3364                   22561937.8674
 -14857359.89848 -12230588.47746  21365295.9454                   21365295.0234
  -6441390.72347  -5008654.09444  23048150.0474                   23048150.5864
  -8646361.78947  -6726169.86344  23471036.0084                   23471039.8914
 -14155171.70347 -11017888.03544  23489548.2734                   23489554.4104
 -19367984.40248 -15429999.53546  21224709.9304                   21224708.8364
 -26760706.68448 -20842304.32447  20305614.4064                   20305613.2344
  -7905257.77347  -6147845.92244  23466294.5634                   23466293.6804
 11  9 22  1 40  0.0000000  0  9G02G05G15G18G30G25G26G29G21
 -24526225.72747 -19105129.19144  23435141.1094                   23435139.7274
 -21909940.19147 -17060533.41445  22573528.9694                   22573529.3324
 -14945907.54748 -12299586.57046  21348445.6564                   21348444.5124
  -6532539.13347  -5079678.69544  23030804.7974                   23030804.3204
  -8605494.06647  -6694324.95344  23478813.4924                   23478817.3984
 -14097017.89147 -10972573.41044  23500615.2734                   23500620.4494
 -19409722.08648 -15462522.36346  21216766.9534                   21216766.2304
 -26806455.09848 -20877952.42247  20296908.8054                   20296907.9144
  -7990277.09047  -6214094.70344  23450116.8594                   23450114.5784
 11  9 22  1 40 30.0000000  0  9G02G05G15G18G30G25G26G29G21
 -24487437.42647 -19074904.53544  23442521.4224                   23442520.5824
 -21848919.27347 -17012984.64545  22585140.6174                   22585139.9694
 -15034004.46148 -12368233.44146  21331680.6884                   21331680.2734
  -6623423.73447  -5150497.74644  23013509.9694                   23013510.3244
  -8564352.70347  -6662266.78144  23486641.8754                   23486646.3164
 -14038750.43047 -10927170.23044  23511702.4304                   23511708.0744
 -19450776.48848 -15494512.78146  21208954.5704                   21208954.0944
 -26851683.67248 -20913195.44547  20288302.1094                   20288301.3634
  -8075315.68047  -6280358.49644  23433933.5864                   23433932.5594
 11  9 22  1 41  0.0000000  0  9G02G05G15G18G30G25G26G29G21
 -24448491.17647 -19044556.80544  23449932.8914                   23449931.4384
 -21787788.84047 -16965350.52345  22596773.8524                   22596772.7464
 -15121648.28947 -12436527.24646  21315002.7814                   21315002.2734
  -6714044.37947  -5221111.12144  22996265.4304                   22996265.1524
  -8522941.15247  -6629998.10544  23494522.3834                   23494526.9104
 -13980372.77747 -10881681.19544  23522811.6334                   23522816.6024
 -19491146.86348 -15525970.17646  21201271.9304                   21201271.5904
 -26896391.37948 -20948032.59847  20279794.6174                   20279792.7154
  -8160373.47747  -6346637.25444  23417747.9534                   23417746.0314
 11  9 22  1 41 30.0000000  0  9G02G05G15G18G30G25G26G29G21
 -24409386.32847 -19014085.51644  23457374.3284                   23457372.1954
 -21726550.33247 -16917632.18745  22608426.6804                   22608426.1484
 -15208835.75447 -12504465.45746  21298411.1254                   21298410.2894
  -6804400.36747  -5291518.26244  22979071.5164                   22979070.5274
  -8481261.80147  -6597520.77044  23502453.7894                   23502456.7464
 -13921887.36347 -10836108.17244  23533941.2034                   23533947.0704
 -19530831.13748 -15556892.93046  21193720.6954                   21193719.6484
 -26940576.05148 -20982462.18447  20271386.2584                   20271385.6954
  -8245449.78147  -6412930.41844  23401557.7814                   23401557.0474
 11  9 22  1 42  0.0000000  0  9G02G05G15G18G30G25G26G29G21
 -24370122.86347 -18983490.60944  23464846.0314                   23464843.4574
 -21665205.96547 -16869831.39145  22620099.8914                   22620099.0634
 -15295565.12147 -12572046.72746  21281907.6094                   21281905.9064
  -6894492.00847  -5361719.44144  22961927.2034                   22961927.2384
  -8439318.48847  -6564837.74244  23510435.5554                   23510438.8364
 -13863297.75847 -10790454.00444  23545090.0234                   23545095.2274
 -19569828.53148 -15587280.46146  21186299.5004                   21186297.9734
 -26984236.71948 -21016483.46947  20263077.9064                   20263077.0904
  -8330545.30947  -6479238.57444  23385364.7584                   23385363.9924
 11  9 22  1 42 30.0000000  0  9G02G05G15G18G30G25G26G29G21
 -24330701.50046 -18952772.68044  23472346.9774                   23472346.4734
 -21603758.65647 -16821950.35945  22631793.1804                   22631792.0434
 -15381834.82847 -12639269.80146  21265490.6804                   21265489.8594
  -6984319.66047  -5431714.88744  22944833.4924                   22944833.5124
  -8397115.24247  -6531952.13744  23518466.2814                   23518469.0394
 -13804608.14147 -10744721.91444  23556258.4774                   23556263.8874
 -19608138.94148 -15617132.69546  21179009.5704                   21179008.4264
 -27027373.06248 -21050096.17647  20254869.2274                   20254868.2894
  -8415660.44147  -6545561.98044  23369167.9924                   23369166.6764
 11  9 22  1 43  0.0000000  0  9G02G05G15G18G30G25G26G29G21
 -24291123.59047 -18921932.75844  23479878.7814                   23479878.2854
 -21542212.15247 -16773992.07845  22643504.9614                   22643503.9184
 -15467643.94148 -12706133.97746  21249161.7664                   21249161.2774
  -7073884.74647  -5501505.76644  22927789.6254                   22927789.7504
  -8354656.94146  -6498867.83644  23526546.2664                   23526548.6054
 -13745823.25847 -10698915.60944  23567445.7664                   23567450.5314
 -19645762.94948 -15646450.04345  21171849.8284                   21171848.1914
 -27069985.29348 -21083300.49647  20246760.2424                   20246759.8834
  -8500796.84447  -6611901.97745  23352967.3204                   23352966.1644
 11  9 22  1 43 30.0000000  0  9G02G05G15G18G30G25G26G29G21
 -24251388.80947 -18890970.58644  23487439.7034                   23487438.0554
 -21480568.35247 -16725957.95745  22655235.4774                   22655234.5354
 -15552990.09048 -12772637.40646  21232921.3674                   21232919.9264
  -7163186.87947  -5571091.74644  22910796.4224                   22910795.8204
  -8311946.77047  -6465587.24244  23534673.4224                   23534675.0634
 -13686946.25047 -10653037.48444  23578649.2114                   23578653.6724
 -19682699.38348 -15675231.64845  21164820.7504                   21164819.4804
 -27112072.27048 -21116095.52047  20238751.3984                   20238750.7624
  -8585954.37947  -6678258.41445  23336762.1094                   23336761.3954
 11  9 22  1 44  0.0000000  0  9G02G05G15G18G30G25G26G29G21
 -24211497.87547 -18859886.76644  23495031.1254                   23495030.6914
 -21418829.92647 -16677850.10545  22666983.6564                   22666982.5044
 -15637871.67648 -12838778.83246  21216768.4774                   21216767.4884
  -7252226.96147  -5640473.54344  22893852.3834                   22893852.4384
  -8268988.75447  -6432113.50844  23542848.6094                   23542849.7424
 -13627981.02047 -10607090.61344  23589871.1414                   23589873.3754
 -19718948.05548 -15703477.33646  21157923.2034                   21157921.8204
 -27153633.39148 -21148480.78547  20230842.8834                   20230841.9964
  -8671133.34047  -6744631.54745  23320552.8674                   23320552.8054
 11  9 22  1 44 30.0000000  0  9G02G05G15G18G30G25G26G29G21
 -24171449.27047 -18828680.05544  23502652.5234                   23502650.9844
 -21356997.64547 -16629669.10945  22678750.3834                   22678749.0704
 -15722284.95347 -12904555.32846  21200705.1334                   21200704.3874
  -7341003.34847  -5709649.83644  22876958.6334                   22876958.3014
  -8225784.73447  -6398448.08244  23551070.4614                   23551070.8404
 -13568929.39547 -10561076.43044  23601107.1644                   23601111.5704
 -19754506.49248 -15731185.15646  21151156.8754                   21151155.6844
 -27194666.23448 -21180454.41847  20223034.7344                   20223033.2854
  -8756332.66047  -6811020.54345  23304340.1024                   23304339.4144
 11  9 22  1 45  0.0000000  0  9G02G05G15G18G30G25G26G29G21
 -24131243.33247 -18797350.79344  23510303.4144                   23510301.1454
 -21295074.06247 -16581416.97745  22690533.8054                   22690532.8914
 -15806228.27347 -12969965.63346  21184730.8834                   21184730.4654
  -7429516.48847  -5778621.01244  22860115.1644                   22860114.1994
  -8182338.85247  -6364594.16444  23559338.1954                   23559338.1884
 -13509795.28547 -10514997.98844  23612359.8364                   23612363.9064
 -19789374.86748 -15758355.27346  21144521.3914                   21144520.9654
 -27235170.15248 -21212015.89147  20215326.7034                   20215326.0554
  -8841553.05147  -6877425.94545  23288123.5314                   23288122.3754
 11  9 22  1 45 30.0000000  0  9G02G05G15G18G30G25G26G29G21
 -24090878.65647 -18765897.85244  23517984.2034                   23517983.7114
 -21233060.00047 -16533094.34445  22702334.8914                   22702332.9144
 -15889698.35547 -13035007.19146  21168847.2584                   21168846.8634
  -7517764.99647  -5847386.00045  22843322.0474                   22843321.5984
  -8138652.89147  -6330553.18044  23567651.2974                   23567652.0354
 -13450580.56246 -10468856.72744  23623627.6724                   23623633.1134
 -19823550.62948 -15784985.69146  21138017.6954                   21138017.7774
 -27275142.73048 -21243163.34847  20207720.3204                   20207719.0164
  -8926792.78547  -6943846.42245  23271902.4064                   23271902.3244
 11  9 22  1 46  0.0000000  0  9G02G05G15G18G30G25G26G29G21
 -24050356.67647 -18734322.27744  23525694.9224                   23525693.4104
 -21170958.68047 -16484703.69145  22714152.0944                   22714150.9344
 -15972693.89147 -13099678.98046  21153053.9694                   21153053.1374
  -7605750.08247  -5915945.73044  22826578.5784                   22826578.4494
  -8094731.68747  -6296328.89844  23576008.9924                   23576009.5394
 -13391289.84447 -10422656.28944  23634910.5394                   23634915.7704
 -19857034.53548 -15811077.01646  21131646.0164                   21131645.5554
 -27314583.78948 -21273896.62147  20200215.1644                   20200213.6294
  -9012053.20347  -7010283.00844  23255677.8754                   23255676.7584
 11  9 22  1 46 30.0000000  0  9G02G05G15G18G30G25G26G29G21
 -24009675.28546 -18702622.49644  23533436.7814                   23533435.6954
 -21108770.57447 -16436245.41845  22725986.4774                   22725985.0084
 -16055210.93047 -13163977.89546  21137351.2504                   21137350.0234
  -7693469.82447  -5984298.67644  22809886.3364                   22809885.9614
  -8050576.60247  -6261922.35944  23584411.2814                   23584412.4844
 -13331924.49646 -10376397.69144  23646207.2734                   23646212.7734
 -19889823.58648 -15836626.87946  21125406.4844                   21125405.6804
 -27353490.96948 -21304213.88347  20192811.2274                   20192809.9344
  -9097332.18747  -7076734.04744  23239449.2734                   23239447.8134
 11  9 22  1 47  0.0000000  0  9G02G05G15G18G30G25G26G29G21
 -23968835.36347 -18670799.17244  23541208.0554                   23541207.2194
 -21046498.44547 -16387721.70345  22737836.6334                   22737835.2194
 -16137248.20348 -13227902.98846  21121740.4534                   21121738.5594
  -7780925.01247  -6052445.49244  22793244.4384                   22793243.7384
  -8006191.85947  -6227336.86744  23592857.5864                   23592859.0204
 -13272488.44147 -10330084.00044  23657518.1414                   23657522.8594
 -19921918.35948 -15861635.75446  21119299.2584                   21119297.8714
 -27391863.85248 -21334114.81247  20185508.9694                   20185507.5864
  -9182630.82447  -7143200.39844  23223217.7814                   23223216.2424
 11  9 22  1 47 30.0000000  0  9G02G05G15G18G30G25G26G29G21
 -23927836.19146 -18638851.77744  23549010.2114                   23549009.2114
 -20984143.66847 -16339133.55945  22749702.0164                   22749700.0554
 -16218803.05948 -13291452.18046  21106220.5944                   21106218.9924
  -7868115.21147  -6120385.80144  22776652.0554                   22776652.0704
  -7961580.46547  -6192574.77744  23601346.6564                   23601348.0864
 -13212984.65647 -10283717.52744  23668842.0634                   23668845.2664
 -19953317.43748 -15886102.52046  21113324.1024                   21113323.4454
 -27429700.84448 -21363598.16047  20178308.7424                   20178307.4654
  -9267948.55947  -7209681.61744  23206982.1254                   23206980.5474
 11  9 22  1 48  0.0000000  0  9G02G05G15G18G30G25G26G29G21
 -23886677.10547 -18606779.78144  23556842.4924                   23556841.6374
 -20921707.89847 -16290482.32445  22761582.9694                   22761581.7974
 -16299872.99248 -13354623.49646  21090793.5554                   21090792.4964
  -7955039.66447  -6188119.06645  22760110.9224                   22760111.2114
  -7916745.24247  -6157638.27344  23609878.4304                   23609880.2504
 -13153416.03547 -10237300.57044  23680177.1644                   23680180.8794
 -19984019.83248 -15910026.42646  21107481.4384                   21107480.0634
 -27467000.60948 -21392662.88747  20171210.9224                   20171209.8244
  -9353284.94147  -7276177.37144  23190743.4774                   23190741.2304
 11  9 22  1 48 30.0000000  0  9G02G05G15G18G30G25G26G29G21
 -23845359.89547 -18574584.55144  23564704.9304                   23564704.3284
 -20859194.80147 -16241770.83645  22773479.3834                   22773477.7934
 -16380457.39848 -13417416.46946  21075458.8674                   21075457.9574
  -8041700.07447  -6255646.57045  22743620.3204                   22743620.2894
  -7871690.99247  -6122531.07844  23618451.5704                   23618454.6134
 -13093786.85247 -10190836.40244  23691524.0634                   23691528.3524
 -20014026.33248 -15933408.09446  21101771.4384                   21101770.0824
 -27503763.62548 -21421309.37947  20164215.0634                   20164214.0514
  -9438641.09047  -7342688.52744  23174499.9144                   23174497.9454
 11  9 22  1 49  0.0000000  0  9G02G05G15G18G30G25G26G29G21
 -23803883.50047 -18542265.28144  23572597.3984                   23572597.3404
 -20796605.29347 -16192999.79745  22785389.5164                   22785387.9964
 -16460553.28548 -13479828.80146  21060217.1094                   21060215.8554
  -8128095.58647  -6322967.63345  22727179.4534                   22727180.1524
  -7826420.32847  -6087255.28144  23627066.4454                   23627070.3284
 -13034099.79747 -10144327.11344  23702882.1334                   23702886.6484
 -20043335.55148 -15956246.41446  21096193.9774                   21096193.3244
 -27539988.28148 -21449536.35547  20157321.6884                   20157319.9304
  -9524016.28146  -7409214.52344  23158253.5554                   23158252.7894
 11  9 22  1 49 30.0000000  0  9G02G05G15G18G30G25G26G29G21
 -23762246.74647 -18509821.05544  23580521.0164                   23580520.4694
 -20733940.50447 -16144170.07845  22797314.6724                   22797312.1414
 -16540157.23448 -13541857.79746  21045068.7504                   21045067.4654
  -8214225.14147  -6390081.45345  22710789.1954                   22710789.3594
  -7780935.53947  -6051812.64544  23635722.1564                   23635725.0394
 -12974357.02047 -10097774.41844  23714251.1804                   23714256.3674
 -20071946.02748 -15978540.26646  21090749.5704                   21090748.1524
 -27575672.26248 -21477342.03947  20150531.0164                   20150530.0514
  -9609409.29747  -7475754.40245  23142003.7194                   23142003.4224
 11  9 22  1 50  0.0000000  0  9G02G05G15G18G30G25G26G29G21
 -23720448.17246 -18477250.71544  23588474.6724                   23588474.1524
 -20671200.84047 -16095282.00445  22809253.3914                   22809251.0084
 -16619265.85548 -13603500.82446  21030014.7664                   21030013.5274
  -8300087.18047  -6456986.83245  22694450.1024                   22694449.8244
  -7735238.45747  -6016204.56644  23644417.8284                   23644421.1914
 -12914559.98047 -10051179.36744  23725630.1804                   23725635.9694
 -20099855.58648 -16000287.94946  21085438.9384                   21085436.8054
 -27610813.12548 -21504724.51247  20143844.3134                   20143842.9384
  -9694818.37947  -7542306.81244  23125751.1724                   23125750.2464
 11  9 22  1 50 30.0000000  0  9G02G05G15G18G30G25G26G29G21
 -23678488.69147 -18444555.01244  23596460.0784                   23596459.2814
 -20608389.19147 -16046337.86345  22821205.7424                   22821204.5984
 -16697878.07848 -13664757.03946  21015055.6644                   21015054.1524
  -8385682.54347  -6523684.40645  22678162.4774                   22678162.4804
  -7689333.36347  -5980434.42644  23653153.3674                   23653157.0824
 -12854713.01247 -10004545.44544  23737018.7424                   23737024.5084
 -20127064.75047 -16021489.85246  21080261.2664                   21080259.3014
 -27645411.02748 -21531683.89847  20137260.5944                   20137259.6844
  -9780244.43747  -7608872.44544  23109494.5234                   23109494.2504
 11  9 22  1 51  0.0000000  0  9G02G05G15G18G30G25G26G29G21
 -23636369.05546 -18411734.52344  23604474.2664                   23604473.5394
 -20545508.36747 -15997339.82845  22833171.9144                   22833170.2624
 -16775993.15248 -13725625.87546  21000190.6414                   21000189.9924
  -8471012.46547  -6590175.13744  22661924.4304                   22661924.2854
  -7643224.76647  -5944505.68744  23661927.5164                   23661931.8364
 -12794820.48847  -9957876.01644  23748416.2424                   23748421.0084
 -20153573.93447 -16042146.30546  21075215.9614                   21075214.6844
 -27679466.07848 -21558220.28547  20130780.1174                   20130779.2274
  -9865688.37947  -7675452.00045  23093235.5864                   23093234.3524
 11  9 22  1 51 30.0000000  0  9G02G05G15G18G30G25G26G29G21
 -23594088.40246 -18378788.55944  23612519.9844                   23612519.9614
 -20482559.47347 -15948288.75445  22845150.6484                   22845149.6644
 -16853607.95348 -13786104.89546  20985421.1254                   20985420.7894
  -8556076.06647  -6656458.32845  22645737.3594                   22645737.3134
  -7596915.12147  -5908420.31244  23670740.7584                   23670742.8484
 -12734884.64547  -9911172.86344  23759821.2734                   23759826.5904
 -20179382.07047 -16062256.52346  21070304.9774                   21070303.9304
 -27712976.55148 -21584332.31647  20124403.0944                   20124401.9804
  -9951149.52047  -7742044.98045  23076972.7344                   23076971.6024
 11  9 22  1 52  0.0000000  0  9G02G05G15G18G30G25G26G29G21
 -23551645.96546 -18345716.55544  23620596.3754                   23620596.2464
 -20419544.15647 -15899185.90245  22857141.8134                   22857140.9184
 -16930719.56648 -13846191.80146  20970747.0704                   20970746.5314
  -8640872.51647  -6722533.34844  22629600.8524                   22629600.2774
  -7550407.05147  -5872180.29344  23679591.1564                   23679593.2504
 -12674907.79747  -9864437.71144  23771234.8834                   23771240.8484
 -20204487.94947 -16081819.51646  21065527.5164                   21065526.6724
 -27745940.93748 -21610018.83247  20118130.5394                   20118129.3284
 -10036626.90247  -7808650.62945  23060706.4384                   23060705.3054
 11  9 22  1 52 30.0000000  0  9G02G05G15G18G30G25G26G29G21
 -23509042.61846 -18312519.09844  23628703.9694                   23628703.1134
 -20356465.02047 -15850033.31245  22869145.5634                   22869144.8484
 -17007326.84048 -13905885.73846  20956169.2894                   20956167.2034
  -8725403.07447  -6788401.17244  22613514.7114                   22613513.8324
  -7503704.77047  -5835788.94544  23688477.7734                   23688479.6524
 -12614894.10547  -9817673.87544  23782655.3524                   23782660.7034
 -20228892.22347 -16100835.81246  21060883.3984                   21060882.2814
 -27778358.99648 -21635279.64847  20111961.3834                   20111960.2504
 -10122120.75047  -7875269.09845  23044437.7274                   23044436.4454
 11  9 22  1 53  0.0000000  0  9G02G05G15G18G30G25G26G29G21
 -23466278.37546 -18279196.37544  23636841.7584                   23636840.6524
 -20293324.03147 -15800832.56245  22881160.5634                   22881160.3634
 -17083428.28548 -13965185.50846  20941687.3284                   20941686.2114
  -8809667.64847  -6854061.78144  22597479.7274                   22597479.2194
  -7456811.85947  -5799249.07844  23697400.9774                   23697402.1644
 -12554846.98447  -9770884.01244  23794081.7274                   23794087.3754
 -20252594.88347 -16119305.39146  21056373.1414                   21056371.5864
 -27810230.53548 -21660114.59447  20105896.5394                   20105894.7424
 -10207631.99246  -7941901.25744  23028164.9304                   23028163.3754
 11  9 22  1 53 30.0000000  0  9G02G05G15G18G30G25G26G29G21
 -23423353.98046 -18245748.81644  23645009.7344                   23645009.6294
 -20230123.61347 -15751585.48445  22893186.9844                   22893186.5084
 -17159022.39848 -14024089.94946  20927301.9064                   20927300.6564
  -8893666.87547  -6919515.60244  22581495.2664                   22581494.6054
  -7409732.10247  -5762563.57844  23706360.6644                   23706361.7384
 -12494769.94546  -9724070.87944  23805514.0084                   23805519.7974
 -20275595.78547 -16137228.14546  21051996.2894                   21051994.3444
 -27841554.99248 -21684523.23447  20099935.3524                   20099933.9144
 -10293160.32857  -8008546.73055  23011889.9694                   23011888.3794
 11  9 22  1 54  0.0000000  0  9G02G05G15G18G30G25G26G29G21
 -23380269.02746 -18212176.17244  23653208.6484                   23653207.9734
 -20166865.87147 -15702293.72745  22905224.7114                   22905224.7074
 -17234107.03948 -14082597.41046  20913014.2114                   20913013.2074
  -8977401.03147  -6984762.86744  22565560.9304                   22565559.8094
  -7362468.76647  -5725735.03944  23715354.5634                   23715355.6024
 -12434666.16447  -9677236.82844  23816951.2194                   23816957.7584
 -20297894.75448 -16154603.93446  21047752.8134                   21047751.2304
 -27872331.44148 -21708504.86747  20094078.9144                   20094078.1604
 -10378705.11747  -8075204.88745  22995610.9384                   22995609.7464
 11  9 22  1 54 30.0000000  0  9G02G05G15G18G30G25G26G29G21
 -23337022.92646 -18178477.91444  23661438.3524                   23661437.5394
 -20103551.40647 -15652957.78545  22917272.7664                   22917273.2074
 -17308679.58248 -14140705.84046  20898823.1414                   20898822.1764
  -9060869.10247  -7049802.82045  22549677.8674                   22549677.3054
  -7315024.54347  -5688765.55544  23724382.3914                   23724385.2304
 -12374538.06647  -9630383.85244  23828393.8444                   23828399.8914
 -20319491.04747 -16171432.17246  21043642.8674                   21043641.6524
 -27902558.52748 -21732058.41847  20088327.1564                   20088325.7854
 -10464265.62547  -8141875.32445  22979329.3984                   22979327.9774
 11  9 22  1 55  0.0000000  0  9G02G05G15G18G30G25G26G29G21
 -21718197.58646 -16917055.59444  23969490.5944                   23969489.3444
 -18464765.20347 -14375981.53545  23229123.4144                   23229124.1254
 -15807316.26248 -12970812.30946  21184523.0704                   21184521.9574
  -7568649.24247  -5887033.98844  22833637.4534                   22833637.1024
  -5691985.04746  -4424059.49243  24033236.3754                   24033238.3954
 -10738971.43447  -8355916.38344  24139632.5234                   24139635.4494
 -18764963.95747 -14960112.34046  21339459.7894                   21339458.1254
 -26356815.19948 -20527583.07447  20382472.1414                   20382471.1254
  -8974419.66447  -6980956.31244  23262837.4774                   23262835.7504
 11  9 22  1 55 30.0000000  0  9G02G05G15G18G30G25G26G29G21
 -21674628.08646 -16883105.34044  23977781.3444                   23977779.9064
 -18401342.48447 -14326561.22345  23241192.6804                   23241192.5004
 -15880857.91048 -13028117.42646  21170529.0004                   21170527.1764
  -7651584.75447  -5951658.93745  22817854.8914                   22817854.6644
  -5644188.15246  -4386815.23044  24042331.9614                   24042334.1334
 -10678803.16046  -8309032.03544  24151081.0704                   24151085.3634
 -18785153.10948 -14975844.10246  21335618.1414                   21335616.9414
 -26385940.48448 -20550278.07847  20376929.7504                   20376928.4184
  -9060010.39147  -7047650.33645  23246550.3444                   23246548.5784
 11  9 22  1 56  0.0000000  0  9G02G05G15G18G30G25G26G29G21
 -21630895.62946 -16849028.15243  23986103.3984                   23986102.0704
 -18337867.58646 -14277100.25445  23253271.0704                   23253271.3284
 -15953880.30148 -13085017.92646  21156632.8754                   21156632.0004
  -7734253.30147  -6016075.87945  22802123.3914                   22802123.4844
  -5596219.08246  -4349436.78144  24051460.1484                   24051462.6764
 -10618618.52346  -8262134.96544  24162534.1334                   24162539.6684
 -18804637.59448 -14991026.78546  21331909.9844                   21331909.1804
 -26414512.71548 -20572542.13747  20371492.4454                   20371491.3984
  -9145615.05947  -7114355.19945  23230260.4304                   23230259.5434
 11  9 22  1 56 30.0000000  0  9G02G05G15G18G30G25G26G29G21
 -21587001.79347 -16814825.20744  23994456.3984                   23994454.2854
 -18274343.28947 -14227600.80545  23265360.0314                   23265360.2274
 -16026382.86748 -13141513.37146  21142836.4454                   21142835.3244
  -7816656.14847  -6080285.80545  22786443.2034                   22786442.6804
  -5548082.25447  -4311927.60544  24060620.3984                   24060623.6054
 -10558421.80146  -8215228.51244  24173988.3054                   24173995.5634
 -18823418.38348 -15005661.14546  21328336.0784                   21328334.6564
 -26442532.39848 -20594375.64547  20366160.5784                   20366159.1684
  -9231234.51647  -7181071.60245  23213967.4064                   23213965.6804
 11  9 22  1 57  0.0000000  0  9G02G05G15G18G30G25G26G29G21
 -21542945.87946 -16780495.89844  24002840.0634                   24002837.7854
 -18210770.96547 -14178063.93745  23277457.3674                   23277456.9184
 -16098363.28148 -13197601.96546  21129138.6804                   21129137.3874
  -7898792.75047  -6144288.27045  22770812.7664                   22770812.3444
  -5499780.36746  -4274289.81244  24069811.9304                   24069814.6174
 -10498215.50047  -8168314.62144  24185446.2974                   24185453.3554
 -18841494.85248 -15019746.67646  21324896.3984                   21324895.0164
 -26469998.09848 -20615777.47347  20360934.0554                   20360932.6724
  -9316867.85547  -7247798.82045  23197671.6644                   23197669.7034
 11  9 22  1 57 30.0000000  0  9G02G05G15G18G30G25G26G29G21
 -21498726.95346 -16746039.60244  24011254.6174                   24011252.9734
 -18147151.94546 -14128490.66445  23289562.8284                   23289563.1524
 -16169818.89148 -13253281.62546  21115541.0474                   21115540.2234
  -7980662.61747  -6208082.88745  22755233.1094                   22755233.3714
  -5451316.22346  -4236525.57444  24079034.6024                   24079036.2034
 -10438002.14847  -8121395.19944  24196904.3284                   24196911.1024
 -18858866.38748 -15033282.91046  21321590.7424                   21321589.7424
 -26496909.42648 -20636747.34047  20355813.2194                   20355812.1054
  -9402514.19147  -7314536.17645  23181373.2584                   23181372.2274
 11  9 22  1 58  0.0000000  0  9G02G05G15G18G30G25G26G29G21
 -21454347.78546 -16711458.43044  24019699.5394                   24019698.0554
 -18083490.25847 -14078884.15645  23301678.2034                   23301678.2234
 -16240750.84448 -13308553.21946  21102043.1804                   21102042.2274
  -8062268.45347  -6271671.75845  22739704.2974                   22739703.9844
  -5402695.75847  -4198639.54344  24088287.4304                   24088289.0784
 -10377787.42247  -8074474.68744  24208364.0084                   24208368.3554
 -18875535.72748 -15046271.98446  21318418.5704                   21318417.7704
 -26523267.61748 -20657286.16047  20350797.2734                   20350796.1684
  -9488175.96147  -7381285.54345  23165072.5554                   23165071.3444
 11  9 22  1 58 30.0000000  0  9G02G05G15G18G30G25G26G29G21
 -21409805.93446 -16676750.48444  24028175.6564                   24028173.6214
 -18019785.48846 -14029244.08645  23313800.1174                   23313799.8794
 -16311154.61748 -13363413.25446  21088646.3524                   21088644.6724
  -8143607.81247  -6335053.00445  22724226.1644                   22724225.1414
  -5353919.89847  -4160632.38344  24097568.4774                   24097571.1914
 -10317571.95347  -8027553.60244  24219821.9694                   24219827.1054
 -18891500.35248 -15058711.89846  21315380.3984                   21315379.1764
 -26549069.73448 -20677391.70347  20345886.8754                   20345885.5824
  -9573850.33247  -7448044.76645  23148769.7734                   23148767.7584
 11  9 22  1 59  0.0000000  0  9G02G05G15G18G30G25G26G29G21
 -21365101.66846 -16641915.98844  24036682.5004                   24036681.0474
 -17956039.49246 -13979571.90245  23325930.6884                   23325929.7704
 -16381028.61348 -13417860.47746  21075349.5864                   21075348.0664
  -8224681.29347  -6398227.04745  22708798.2194                   22708796.9964
  -5304992.16846  -4122506.91844  24106879.1564                   24106882.4414
 -10257359.21547  -7980634.62143  24231280.2504                   24231284.6024
 -18906760.65248 -15070603.02746  21312476.4924                   21312475.8754
 -26574315.53548 -20697063.74247  20341083.0004                   20341081.2424
  -9659537.19547  -7514813.69945  23132463.7504                   23132462.6214
 11  9 22  1 59 30.0000000  0  9G02G05G15G18G30G25G26G29G21
 -21320233.50446 -16606953.81644  24045221.2114                   24045218.5434
 -17892252.86346 -13929868.03945  23338069.0394                   23338068.5704
 -16450370.03548 -13471892.69946  21062154.0474                   21062152.5124
  -8305487.61347  -6461192.90645  22693420.9384                   22693419.5664
  -5255914.58647  -4084264.66843  24116218.5944                   24116219.5904
 -10197150.67246  -7933718.98843  24242736.6954                   24242741.7034
 -18921315.51248 -15081944.43746  21309707.0314                   21309704.9884
 -26599003.19548 -20716300.87147  20336385.0784                   20336383.3754
  -9745235.08247  -7581591.23845  23116156.5084                   23116155.6524
 11  9 22  2  0  0.0000000  0  9G02G05G15G18G30G25G26G29G21
 -21275202.72746 -16571864.87144  24053789.8674                   24053787.9774
 -17828428.26647 -13880134.63744  23350215.1884                   23350213.5474
 -16519177.89548 -13525509.16046  21049060.3674                   21049058.7854
  -8386027.52347  -6523951.19145  22678094.7584                   22678093.7544
  -5206691.35547  -4045908.89843  24125584.9064                   24125586.0164
 -10136950.46546  -7886809.81243  24254192.9774                   24254197.9494
 -18935165.88348 -15092736.90646  21307071.1804                   21307069.9184
 -26623132.87948 -20735103.22347  20331793.4454                   20331792.2544
  -9830944.38747  -7648377.68045  23099845.9064                   23099845.5664
 11  9 22  2  0 30.0000000  0  9G02G05G15G18G30G25G26G29G21
 -21230008.61346 -16536648.67243  24062389.8444                   24062388.7114
 -17764566.81647 -13830372.45745  23362366.8754                   23362365.6844
 -16587450.40248 -13578708.46946  21036068.0004                   21036067.0204
  -8466301.84447  -6586502.51245  22662819.3594                   22662818.4574
  -5157325.61347  -4007442.10243  24134978.3984                   24134979.3634
 -10076761.36747  -7839909.31644  24265647.5474                   24265652.0124
 -18948311.53148 -15102980.25046  21304569.4694                   21304567.7194
 -26646703.82048 -20753470.17647  20327308.0164                   20327306.8364
  -9916664.33647  -7715172.39845  23083534.2664                   23083532.6994
 11  9 22  2  1  0.0000000  0  9G02G05G15G18G30G25G26G29G21
 -21184652.32847 -16501306.11343  24071021.7814                   24071018.9064
 -17700671.75447 -13780584.11744  23374525.4614                   23374524.8674
 -16655186.85548 -13631490.08646  21023178.2424                   21023177.0234
  -8546311.29747  -6648847.43045  22647593.4694                   22647592.9534
  -5107821.66446  -3968867.64843  24144399.2584                   24144401.3134
 -10016587.46947  -7793020.64544  24277097.8054                   24277103.1954
 -18960753.99648 -15112675.65246  21302201.7114                   21302200.7974
 -26669716.72748 -20771402.29747  20322928.7664                   20322927.7704
 -10002396.28147  -7781976.45745  23067219.8204                   23067219.3634
 11  9 22  2  1 30.0000000  0  9G02G05G15G18G30G25G26G29G21
 -21139132.03546 -16465835.77043  24079683.5554                   24079680.9224
 -17636742.69946 -13730769.29344  23386691.0004                   23386689.8834
 -16722383.50848 -13683851.07046  21010391.6254                   21010389.3324
  -8626054.10547  -6710984.59445  22632419.1564                   22632417.7544
  -5058180.96946  -3930186.62943  24153845.8754                   24153847.8444
  -9956429.92646  -7746144.75844  24288544.4614                   24288550.2504
 -18972491.60248 -15121821.82846  21299968.4924                   21299966.7934
 -26692169.08248 -20788897.62147  20318656.2344                   20318655.3204
 -10088137.40247  -7848787.67645  23050903.7894                   23050902.4964
 11  9 22  2  2  0.0000000  0  9G02G05G15G18G30G25G26G29G21
 -21093448.55547 -16430238.25043  24088377.3284                   24088374.1334
 -17572782.26647 -13680930.02344  23398862.4304                   23398860.4774
 -16789039.77048 -13735790.97746  20997707.5164                   20997705.3984
  -8705531.30547  -6772914.78145  22617295.0004                   22617293.8954
  -5008407.65646  -3891402.25843  24163317.2114                   24163319.3754
  -9896292.62147  -7699284.61344  24299988.8834                   24299993.2194
 -18983525.44148 -15130419.57846  21297868.5314                   21297866.3714
 -26714061.37948 -20805956.55147  20314490.1564                   20314488.6954
 -10173888.12547  -7915606.38345  23034585.9064                   23034584.3674
 11  9 22  2  2 30.0000000  0  9G02G05G15G18G30G25G26G29G21
 -21047600.85947 -16394512.77744  24097102.2194                   24097099.3954
 -17508791.38347 -13631067.01244  23411039.7194                   23411038.4184
 -16855153.00848 -13787307.73846  20985126.3134                   20985125.0474
  -8784741.99647  -6834637.30145  22602221.4774                   22602220.2894
  -4958503.97746  -3852516.26244  24172814.2034                   24172817.6914
  -9836177.42647  -7652441.70744  24311429.4384                   24311433.7074
 -18993854.60948 -15138468.24646  21295902.7974                   21295901.0004
 -26735392.19948 -20822577.95747  20310431.0944                   20310429.7854
 -10259647.39147  -7982431.72745  23018266.7274                   23018264.7734
 11  9 22  2  3  0.0000000  0  9G02G05G15G18G30G25G26G29G21
 -21001589.98847 -16358660.16044  24105857.4774                   24105855.1134
 -17444772.52347 -13581182.21544  23423221.6254                   23423219.8404
 -16920723.02348 -13838401.21946  20972648.4614                   20972647.3204
  -8863687.65247  -6896153.30145  22587198.6804                   22587197.4884
  -4908474.55146  -3813532.34843  24182334.3914                   24182338.3324
  -9776088.81247  -7605619.48444  24322863.6644                   24322868.8094
 -19003481.00048 -15145969.30945  21294070.8674                   21294069.0554
 -26756162.44148 -20838762.55147  20306478.8054                   20306477.5984
 -10345416.07847  -8049264.41845  23001945.1804                   23001942.5164
 11  9 22  2  3 30.0000000  0  9G02G05G15G18G30G25G26G29G21
 -20955415.36347 -16322679.91043  24114644.3754                   24114640.8404
 -17380726.29747 -13531276.07444  23435410.4064                   23435407.6644
 -16985746.93448 -13889069.15246  20960274.8524                   20960273.9454
  -8942367.72747  -6957462.35545  22572226.2664                   22572225.3164
  -4858321.47746  -3774452.07043  24191878.2504                   24191882.2154
  -9716028.46147  -7558819.30144  24334292.5314                   24334299.7304
 -19012403.73848 -15152922.07445  21292372.8444                   21292371.1954
 -26776370.10948 -20854508.77747  20302633.2974                   20302631.9804
 -10431192.35547  -8116103.02745  22985622.1884                   22985620.0204
 11  9 22  2  4  0.0000000  0  9G02G05G15G18G30G25G26G29G21
 -20909078.18047 -16286572.99643  24123461.7424                   24123458.3204
 -17316655.66447 -13481350.91844  23447601.9694                   23447600.4804
 -17050224.18048 -13939311.11746  20948005.3834                   20948004.3984
  -9020783.66047  -7018565.56245  22557304.1254                   22557302.3984
  -4808049.47746  -3735279.09043  24201444.6334                   24201447.7774
  -9656000.78146  -7512044.60243  24345715.3134                   24345722.9804
 -19020624.51248 -15159327.85946  21290808.5554                   21290806.7424
 -26796016.74648 -20869817.83247  20298894.7974                   20298893.4064
 -10516976.64147  -8182947.85945  22969298.3204                   22969296.5904
 11  9 22  2  4 30.0000000  0  9G02G05G15G18G30G25G26G29G21
 -20862576.43047 -16250337.86743  24132310.7114                   24132307.2854
 -17252560.75847 -13431406.86744  23459798.8134                   23459797.9534
 -17114151.69548 -13989124.73846  20935840.2194                   20935839.3094
  -9098933.51647  -7079461.45745  22542432.7734                   22542431.2664
  -4757659.91447  -3696014.52043  24211033.1024                   24211037.3284
  -9596006.81246  -7465296.18043  24357131.1644                   24357137.8714
 -19028141.86348 -15165185.52746  21289377.8284                   21289377.3244
 -26815100.02748 -20884687.91047  20295263.2894                   20295262.0984
 -10602767.80947  -8249798.07045  22952972.4534                   22952970.7304
 11  9 22  2  5  0.0000000  0  9G02G05G15G18G30G25G26G29G21
 -20815911.19146 -16213975.38343  24141190.7504                   24141188.1724
 -17188444.07047 -13381445.81644  23472000.1644                   23471999.3754
 -17177528.96148 -14038509.55946  20923780.1094                   20923778.4384
  -9176818.55547  -7140150.99245  22527611.3284                   22527610.1604
  -4707157.02046  -3656661.61743  24220643.3444                   24220646.8444
  -9536050.59046  -7418577.13743  24368541.2114                   24368544.3954
 -19034957.50048 -15170496.40246  21288081.3594                   21288080.0004
 -26833620.50048 -20899119.43047  20291738.8754                   20291737.7854
 -10688566.23047  -8316653.89145  22936645.4304                   22936643.4144
 11  9 22  2  5 30.0000000  0  9G02G05G15G18G30G25G26G29G21
 -20769081.40646 -16177484.62943  24150101.3054                   24150099.8094
 -17124305.59847 -13331467.79744  23484205.2894                   23484203.7114
 -17240353.24648 -14087463.51246  20911824.7814                   20911823.8054
  -9254437.87547  -7200633.46945  22512841.3284                   22512839.3014
  -4656542.91846  -3617222.09443  24230274.6334                   24230278.1374
  -9476133.80546  -7371888.81243  24379943.5004                   24379947.6254
 -19041070.51248 -15175259.77046  21286917.9144                   21286916.3834
 -26851576.69148 -20913111.25047  20288321.8754                   20288320.7464
 -10774369.81247  -8383513.74245  22920317.6024                   22920315.5744
 11  9 22  2  6  0.0000000  0  9G02G05G15G18G30G25G26G29G21
 -20722087.98046 -16140866.37943  24159043.4384                   24159040.8714
 -17060148.30547 -13281475.10944  23496414.1254                   23496413.1764
 -17302624.32848 -14135986.39146  20899974.9694                   20899973.5004
  -9331792.96547  -7260910.07445  22498120.7034                   22498118.6644
  -4605821.95346  -3577699.30143  24239926.2034                   24239928.3754
  -9416260.54347  -7325234.44544  24391337.9614                   24391342.8244
 -19046482.53548 -15179476.89546  21285888.2194                   21285886.4964
 -26868969.56248 -20926664.12547  20285012.1484                   20285010.6884
 -10860179.31647  -8450378.20745  22903989.0474                   22903987.2584
 11  9 22  2  6 30.0000000  0  9G02G05G15G18G30G25G26G29G21
 -20674931.97346 -16104121.47743  24168016.9614                   24168014.6254
 -16995974.75447 -13231469.75044  23508625.6094                   23508624.6764
 -17364341.73448 -14184077.83646  20888230.6024                   20888229.0664
  -9408885.02347  -7320981.68745  22483450.3444                   22483449.3714
  -4554998.48046  -3538096.60943  24249599.3054                   24249598.1724
  -9356434.79746  -7278617.11744  24402721.6024                   24402728.4844
 -19051195.22748 -15183149.10546  21284990.7734                   21284989.9964
 -26885799.64848 -20939778.47347  20281809.5704                   20281808.0594
 -10945995.46547  -8517247.82845  22887658.9064                   22887657.0274
 11  9 22  2  7  0.0000000  0  9G02G05G15G18G30G25G26G29G21
 -20627611.34446 -16067248.22743  24177022.0944                   24177019.3134
 -16931784.35946 -13181451.29344  23520840.5394                   23520839.8324
 -17425501.81248 -14231735.00046  20876591.9534                   20876590.2274
  -9485712.23047  -7380846.94945  22468830.6644                   22468829.4614
  -4504073.59847  -3498414.91843  24259289.1884                   24259290.0744
  -9296657.34446  -7232037.40644  24414095.8834                   24414104.1884
 -19055207.03948 -15186275.18746  21284227.8284                   21284226.5704
 -26902064.66048 -20952452.49247  20278714.2504                   20278713.1844
 -11031815.36747  -8584120.40645  22871327.3834                   22871325.4064
 11  9 22  2  7 30.0000000  0  9G02G05G15G18G30G25G26G29G21
 -20580124.53946 -16030245.51643  24186058.8594                   24186055.2584
 -16867577.30146 -13131419.80144  23533058.7894                   23533056.9264
 -17486101.07048 -14278955.16446  20865060.0234                   20865058.5124
  -9562273.04347  -7440504.63345  22454261.6174                   22454260.4024
  -4453048.83247  -3458655.35543  24268999.4224                   24269000.9144
  -9236929.25046  -7185496.30943  24425462.7664                   24425469.1484
 -19058516.90248 -15188854.28946  21283598.0864                   21283596.8954
 -26917762.39148 -20964684.46947  20275726.9694                   20275726.1024
 -11117636.91047  -8650994.24245  22854996.3914                   22854993.5744
 11  9 22  2  8  0.0000000  0  9G02G05G15G18G30G25G26G29G21
 -20532474.22746 -15993115.36743  24195126.3524                   24195122.5084
 -16803357.93446 -13081378.74244  23545278.8754                   23545277.4384
 -17546141.46948 -14325739.83246  20853634.8914                   20853633.5274
  -9638570.73847  -7499957.28945  22439742.7114                   22439741.0984
  -4401930.30547  -3418822.73443  24278726.7504                   24278728.1604
  -9177256.47746  -7138998.17243  24436819.4534                   24436820.7194
 -19061128.48448 -15190889.27746  21283100.3444                   21283100.1174
 -26932895.85248 -20976476.78147  20272847.3834                   20272846.4964
 -11203462.43447  -8717871.18445  22838663.7584                   22838661.7424
 11  9 22  2  8 30.0000000  0  9G02G05G15G18G30G25G26G29G21
 -20484659.72346 -15955857.27043  24204224.8594                   24204221.0784
 -16739126.60947 -13031328.37944  23557501.9144                   23557501.4534
 -17605620.58248 -14372087.14546  20842316.5084                   20842315.1764
  -9714604.25047  -7559204.08645  22425273.7344                   22425272.4774
  -4350720.23047  -3378918.78143  24288471.5394                   24288474.9884
  -9117640.93046  -7092544.58643  24448163.1884                   24448166.0824
 -19063041.32448 -15192379.79745  21282736.8204                   21282735.4454
 -26947464.02748 -20987828.59047  20270075.0164                   20270073.6684
 -11289290.62547  -8784750.21945  22822330.9304                   22822329.3164
 11  9 22  2  9  0.0000000  0  9G02G05G15G18G30G25G26G29G21
 -20436680.05946 -15918470.54343  24213355.4064                   24213353.0824
 -16674883.80546 -12981269.03143  23569727.0164                   23569725.3364
 -17664536.00048 -14417995.23046  20831104.9614                   20831104.0664
  -9790373.53947  -7618245.00045  22410854.7424                   22410854.1724
  -4299420.92646  -3338945.36343  24298233.0394                   24298237.1564
  -9058084.44946  -7046137.09043  24459495.2664                   24459500.8554
 -19064255.26648 -15193325.71546  21282505.7584                   21282504.6454
 -26961465.37948 -20998738.72747  20267410.6564                   20267409.2894
 -11375120.09047  -8851630.24645  22805998.3204                   22805996.0164
 11  9 22  2  9 30.0000000  0  9G02G05G15G18G30G25G26G29G21
 -20388535.75446 -15880955.52043  24222517.0234                   24222514.8054
 -16610631.73046 -12931202.48044  23581954.0634                   23581952.6134
 -17722886.78148 -14463463.33246  20820001.3364                   20819999.9574
  -9865879.00847  -7677080.34045  22396486.9064                   22396485.5904
  -4248036.02346  -3298905.23043  24308011.6724                   24308016.4144
  -8998590.28946  -6999778.16044  24470816.8524                   24470823.5634
 -19064771.47748 -15193727.94146  21282407.5394                   21282406.5164
 -26974900.16848 -21009207.37947  20264854.1954                   20264853.1484
 -11460950.38347  -8918510.91445  22789665.1644                   22789663.5664
 11  9 22  2 10  0.0000000  0  9G02G05G15G18G30G25G26G29G21
 -20340228.30946 -15843313.39843  24231709.5864                   24231707.2304
 -16546373.03546 -12881130.75043  23594181.5554                   23594181.0434
 -17780672.98848 -14508491.48846  20809005.3364                   20809003.8204
  -9941122.09047  -7735711.23045  22382168.8524                   22382167.6684
  -4196570.21546  -3258802.04743  24317804.9774                   24317809.2774
  -8939162.87946  -6953471.28544  24482126.8054                   24482133.4144
 -19064592.21147 -15193588.23046  21282441.7274                   21282440.5084
 -26987769.91048 -21019235.73847  20262404.8524                   20262403.8284
 -11546782.62147  -8985393.10545  22773331.7734                   22773330.2154
 11  9 22  2 10 30.0000000  0  9G02G05G15G18G30G25G26G29G21
 -20291755.07846 -15805542.03543  24240934.0314                   24240931.3324
 -16482106.84446 -12831053.23043  23606412.0634                   23606411.5084
 -17837890.93748 -14553076.86346  20798116.5944                   20798115.2544
 -10016100.82847  -7794136.13345  22367900.9924                   22367899.4734
  -4145024.24646  -3218636.38343  24327613.7114                   24327617.1804
  -8879802.47747  -6907216.58244  24493423.6334                   24493428.8874
 -19063715.86347 -15192905.34845  21282608.2974                   21282606.2074
 -27000072.10548 -21028821.85547  20260064.0084                   20260063.1524
 -11632613.82447  -9052274.49645  22756998.5084                   22756997.0744
 11  9 22  2 11  0.0000000  0  9G02G05G15G18G30G25G26G29G21
 -20243116.80946 -15767642.09843  24250188.5944                   24250187.1884
 -16417835.35246 -12780971.53143  23618640.9534                   23618642.3364
 -17894540.34048 -14597219.22746  20787336.8524                   20787335.6024
 -10090815.97748  -7852355.66045  22353682.7734                   22353681.6844
  -4093401.88746  -3178411.21943  24337437.3134                   24337440.7894
  -8820512.74647  -6861016.87944  24504706.3204                   24504709.8714
 -19062143.87547 -15191680.41045  21282907.6414                   21282906.0434
 -27011807.39148 -21037966.22347  20257830.6254                   20257829.6414
 -11718444.03147  -9119155.10945  22740666.0784                   22740663.9884
 11  9 22  2 11 30.0000000  0  9G02G05G15G18G30G25G26G29G21
 -20194313.54746 -15729613.55143  24259475.5234                   24259474.2034
 -16353559.89146 -12730886.76644  23630872.3134                   23630873.0514
 -17950619.22748 -14640917.01246  20776665.5084                   20776663.9184
 -10165268.19548  -7910370.30945  22339515.0554                   22339514.3054
  -4041706.29346  -3138128.99243  24347275.2584                   24347278.2934
  -8761296.23047  -6814874.25044  24515974.1724                   24515978.4264
 -19059876.91847 -15189913.94546  21283338.8284                   21283337.8754
 -27022975.52048 -21046668.63747  20255705.6644                   20255704.8834
 -11804271.99647  -9186033.98045  22724333.3674                   22724331.1174
 11  9 22  2 12  0.0000000  0  9G02G05G15G18G30G25G26G29G21
 -20145345.49645 -15691456.58243  24268794.2814                   24268792.2854
 -16289281.77046 -12680799.94943  23643104.4454                   23643104.1644
 -18006126.78947 -14684169.61346  20766102.3984                   20766100.5864
 -10239457.74248  -7968180.26645  22325397.0314                   22325395.9574
  -3989940.66046  -3097792.21543  24357125.9224                   24357128.4654
  -8702155.82447  -6768790.92244  24527227.1254                   24527232.0824
 -19056916.06647 -15187606.77346  21283902.3284                   21283901.8554
 -27033575.99248 -21054928.75047  20253688.0704                   20253687.2734
 -11890097.60247  -9252911.00045  22708001.2424                   22707999.5434
 11  9 22  2 12 30.0000000  0  9G02G05G15G18G30G25G26G29G21
 -20096215.28146 -15653173.33242  24278143.7504                   24278141.0554
 -16225005.34446 -12630714.39844  23655336.3444                   23655335.4734
 -18061064.43447 -14726978.12546  20755648.2274                   20755647.0394
 -10313387.55148  -8025787.84045  22311328.5784                   22311327.6684
  -3938110.75046  -3057405.33643  24366989.2504                   24366990.3484
  -8643096.85947  -6722771.09844  24538465.4144                   24538472.4884
 -19053264.87147 -15184761.66445  21284597.3444                   21284596.0904
 -27043611.97348 -21062748.97747  20251778.3834                   20251777.1844
 -11975922.93047  -9319787.81245  22691669.4454                   22691667.2544
 11  9 22  2 13  0.0000000  0  9G02G05G15G18G30G25G26G29G21
 -20046919.65646 -15614761.16043  24287523.6174                   24287523.3834
 -16160728.81646 -12580628.77044  23667567.8134                   23667566.0784
 -18115427.73447 -14769339.08246  20745303.0704                   20745301.6484
 -10387054.72348  -8083190.75045  22297310.4064                   22297309.1214
  -3886216.74646  -3016968.47343  24376863.4224                   24376864.2854
  -8584119.13347  -6676814.59044  24549690.1254                   24549695.3834
 -19048921.07847 -15181376.87946  21285423.7584                   21285422.4304
 -27053080.23448 -21070126.82447  20249976.6884                   20249976.0634
 -12061744.01647  -9386661.32045  22675337.5864                   22675335.9774
 11  9 22  2 13 30.0000000  0  9G02G05G15G18G30G25G26G29G21
 -19997458.21146 -15576219.79343  24296936.6644                   24296934.9774
 -16096452.73446 -12530543.50844  23679799.1174                   23679798.2584
 -18169214.89147 -14811251.11346  20735067.6954                   20735065.8554
 -10460458.61348  -8140388.51645  22283342.0554                   22283340.2774
  -3834260.98446  -2976483.53143  24386750.0474                   24386753.0004
  -8525224.70347  -6630922.97344  24560897.7504                   24560903.2664
 -19043885.12547 -15177452.74646  21286382.0634                   21286380.4614
 -27061980.09848 -21077061.78147  20248283.2894                   20248282.1644
 -12147559.48847  -9453530.45745  22659007.3754                   22659005.3634
 11  9 22  2 14  0.0000000  0  8G05G15G18G30G25G26G29G21
 -16032178.08246 -12480459.36744  23692030.4924                   23692029.2704
 -18222424.23848 -14852712.93446  20724942.3054                   20724940.8364
 -10533599.42647  -8197381.29345  22269423.2734                   22269421.5514
  -3782246.25446  -2935952.61743  24396648.8754                   24396652.5634
  -8466415.96147  -6585098.12144  24572088.7974                   24572094.3284
 -19038157.56647 -15172989.69946  21287472.1024                   21287470.9414
 -27070311.32848 -21083553.63747  20246697.7344                   20246696.3284
 -12233368.31247  -9520394.41845  22642678.3834                   22642676.1094
 11  9 22  2 14 30.0000000  0  8G05G15G18G30G25G26G29G21
 -15967909.81646 -12430380.20743  23704260.7584                   23704259.0274
 -18275058.19547 -14893726.35946  20714926.1254                   20714925.0594
 -10606480.80148  -8254171.88345  22255554.7664                   22255552.8554
  -3730179.08646  -2895380.89143  24406556.7734                   24406560.7304
  -8407699.09847  -6539344.84443  24583262.0634                   24583268.3594
 -19031742.86747 -15167991.21546  21288692.4064                   21288691.4804
 -27078077.25048 -21089604.99247  20245220.1564                   20245218.6804
 -12319173.34447  -9587255.41445  22626350.4064                   22626347.7814
 11  9 22  2 15  0.0000000  0  8G05G15G18G30G25G26G29G21
 -15903640.13346 -12380299.95743  23716491.0234                   23716489.2074
 -18327106.70347 -14934283.59846  20705021.6884                   20705019.9884
 -10679093.87948  -8310753.41445  22241736.5944                   22241735.1884
  -3678053.63746  -2854763.75444  24416476.0944                   24416480.6644
  -8349067.65246  -6493658.16043  24594418.1174                   24594424.0314
 -19024633.04347 -15162451.08246  21290045.6724                   21290044.0634
 -27085268.99248 -21095208.94547  20243851.6484                   20243850.3404
 -12404964.60547  -9654105.69545  22610024.9224                   22610022.0904
 11  9 22  2 15 30.0000000  0  8G05G15G18G30G25G26G29G21
 -15839366.54346 -12330216.65243  23728720.9774                   23728720.0124
 -18378564.54348 -14974380.58246  20695229.4924                   20695227.8714
 -10751435.76247  -8367123.64145  22227970.3204                   22227969.7894
  -3625869.06246  -2814100.53943  24426407.1804                   24426409.5274
  -8290520.55546  -6448037.22743  24605559.3754                   24605563.7384
 -19016825.34847 -15156367.15246  21291531.4224                   21291529.9454
 -27091882.75048 -21100362.51247  20242592.8984                   20242591.8164
 -12490738.03147  -9720942.07845  22593702.7974                   22593699.6954
 11  9 22  2 16  0.0000000  0  8G05G15G18G30G25G26G29G21
 -15775091.20746 -12280131.99643  23740952.5234                   23740951.6844
 -18429432.01648 -15014017.53146  20685550.0944                   20685548.5124
 -10823507.31648  -8423283.21145  22214255.4224                   22214254.7974
  -3573629.49646  -2773394.44143  24436347.8594                   24436350.3324
  -8232061.49446  -6402484.87943  24616684.2424                   24616688.7194
 -19008321.87147 -15149741.05146  21293149.4844                   21293148.3324
 -27097919.65248 -21105066.58647  20241444.1334                   20241442.8404
 -12576493.81248  -9787764.68045  22577383.4614                   22577380.9614
 11  9 22  2 16 30.0000000  0  8G05G15G18G30G25G26G29G21
 -15710816.80546 -12230048.07443  23753184.0554                   23753182.1214
 -18479708.97348 -15053194.35246  20675982.9064                   20675981.0314
 -10895310.35248  -8479233.55945  22200591.8984                   22200590.4534
  -3521339.24246  -2732648.83643  24446297.8594                   24446301.5164
  -8173694.56646  -6357004.28143  24627791.8444                   24627798.1524
 -18999125.08247 -15142574.70345  21294899.4064                   21294898.1094
 -27103380.66448 -21109321.91047  20240404.9774                   20240403.8244
 -12662232.44548  -9854573.94145  22561067.9144                   22561065.6254
 11  9 22  2 17  0.0000000  0  8G05G15G18G30G25G26G29G21
 -15646548.54746 -12179968.85543  23765413.2274                   23765412.1604
 -18529398.40648 -15091913.36347  20666527.0234                   20666525.5474
 -10966849.06248  -8534977.92245  22186978.8284                   22186976.9454
  -3469005.40247  -2691869.27743  24456257.2664                   24456259.3524
  -8115426.20746  -6311600.48843  24638880.4614                   24638887.4184
 -18989240.06248 -15134872.06245  21296780.7974                   21296779.4104
 -27108270.38348 -21113132.07047  20239474.3524                   20239473.5474
 -12747955.81648  -9921371.32845  22544755.8984                   22544753.8054
 11  9 22  2 17 30.0000000  0  8G05G15G18G30G25G26G29G21
 -15582286.75846 -12129894.77743  23777641.1254                   23777642.4654
 -18578498.41848 -15130173.08646  20657183.8134                   20657182.2304
 -11038122.77348  -8590515.78945  22173415.8054                   22173413.9224
  -3416630.06246  -2651057.34043  24466223.4924                   24466224.8054
  -8057258.20345  -6266274.97743  24649948.9844                   24649956.7384
 -18978667.18048 -15126633.43045  21298792.3364                   21298791.5664
 -27112587.69948 -21116496.18747  20238652.7814                   20238650.8954
 -12833663.68048  -9988156.62145  22528445.9384                   22528443.7934
 11  9 22  2 18  0.0000000  0  7G05G15G18G30G26G29G21
 -15518034.98046 -12079828.47344  23789868.4224                   23789868.6054
 -18627010.33248 -15167974.54346  20647951.9614                   20647950.6994
 -11109133.81648  -8645848.98445  22159902.3284                   22159900.6134
  -3364218.72346  -2610217.34843  24476196.8984                   24476198.3954
 -18967409.84848 -15117861.47345  21300935.2034                   21300933.4414
 -27116335.39148 -21119416.45747  20237939.4534                   20237938.0474
 -12919357.57847 -10054931.02745  22512138.9694                   22512136.7234
 11  9 22  2 18 30.0000000  0  7G05G15G18G30G26G29G21
 -15453794.51646 -12029770.96943  23802092.8834                   23802093.5004
 -18674933.20348 -15205317.00846  20638832.4454                   20638830.9494
 -11179883.14548  -8700978.25045  22146438.9304                   22146438.0084
  -3311774.24646  -2569351.56243  24486177.0084                   24486179.0984
 -18955469.14847 -15108557.01245  21303207.0784                   21303204.9884
 -27119513.50448 -21121892.92647  20237335.0944                   20237333.3634
 -13005036.09447 -10121693.45745  22495834.4924                   22495832.4804
 11  9 22  2 19  0.0000000  0  7G05G15G18G30G26G29G21
 -15389561.60246 -11979719.34843  23814316.4384                   23814316.6804
 -18722260.81648 -15242195.63346  20629826.8054                   20629824.8634
 -11250365.69548  -8755899.63345  22133027.0634                   22133025.4964
  -3259294.73446  -2528458.52043  24496163.7584                   24496167.5594
 -18942841.71948 -15098717.43745  21305609.9224                   21305608.6054
 -27122117.32848 -21123921.87547  20236839.3594                   20236838.3014
 -13090693.30148 -10188439.27045  22479534.5394                   22479532.6414
 11  9 22  2 19 30.0000000  0  7G05G15G18G30G26G29G21
 -15325332.16446 -11929670.43043  23826538.7344                   23826539.1724
 -18768987.38348 -15278605.90246  20620934.3054                   20620932.5784
 -11320576.58647  -8810609.32445  22119665.8134                   22119664.6374
  -3206777.98046  -2487536.43443  24506157.9924                   24506161.0164
 -18929523.49248 -15088339.57846  21308144.6884                   21308143.2704
 -27124141.89548 -21125499.46947  20236453.9384                   20236452.8364
 -13176323.71147 -10255164.21945  22463239.4694                   22463237.4384
 11  9 22  2 20  0.0000000  0  7G05G15G18G30G26G29G21
 -15261108.73846 -11879626.23043  23838759.7734                   23838760.4534
 -18815113.03148 -15314547.92646  20612157.0164                   20612155.0354
 -11390517.84848  -8865108.93045  22106356.6954                   22106355.1844
  -3154228.41446  -2446588.81243  24516156.5704                   24516159.7544
 -18915517.15647 -15077425.53145  21310809.4924                   21310808.2624
 -27125589.03148 -21126627.11347  20236178.6724                   20236177.9924
 -13261927.24647 -10321868.22745  22446950.0554                   22446947.2624
 11  9 22  2 20 30.0000000  0  7G05G15G18G30G26G29G21
 -15196896.24646 -11829590.52743  23850978.0234                   23850979.1524
 -18860640.86748 -15350024.14546  20603493.3054                   20603491.6214
 -11460193.52748  -8919401.59445  22093097.4384                   22093096.0634
  -3101652.68746  -2405620.82444  24526161.3984                   24526165.8284
 -18900827.62948 -15065979.14145  21313604.8054                   21313603.6134
 -27126462.22748 -21127307.53147  20236012.3834                   20236011.4264
 -13347507.16048 -10388553.82045  22430664.5784                   22430661.4844
 11  9 22  2 21  0.0000000  0  7G05G15G18G30G26G29G21
 -15132697.39545 -11779565.47743  23863194.6884                   23863195.4734
 -18905571.15648 -15385034.73046  20594943.5554                   20594941.8554
 -11529605.20348  -8973488.53945  22079888.7584                   22079887.2424
  -3049055.27046  -2364635.93443  24536170.5314                   24536175.1684
 -18885458.00847 -15054002.79345  21316529.3524                   21316528.6334
 -27126763.36348 -21127542.18747  20235955.0004                   20235954.0004
 -13433064.19547 -10455221.60245  22414383.4614                   22414380.5514
 11  9 22  2 21 30.0000000  0  7G05G15G18G30G26G29G21
 -15068514.32845 -11729552.71943  23875409.2034                   23875408.1254
 -18949904.44548 -15419580.10947  20586507.1024                   20586505.0554
 -11598754.55948  -9027371.07445  22066730.4694                   22066729.1764
  -2996440.29746  -2323637.39143  24546183.4144                   24546188.1484
 -18869410.81247 -15041498.45345  21319583.2814                   21319581.9184
 -27126494.23048 -21127332.47747  20236006.7814                   20236005.0084
 -13518598.16048 -10521871.40645  22398107.1484                   22398103.9414
 11  9 22  2 22  0.0000000  0  7G05G15G18G30G26G29G21
 -15004349.03545 -11679553.82842  23887620.0944                   23887617.6914
 -18993640.71948 -15453660.31246  20578184.5394                   20578182.3634
 -11667642.73048  -9081050.09445  22053621.5864                   22053619.9454
  -2943811.68746  -2282628.19943  24556199.1564                   24556201.1844
 -18852688.26248 -15028467.89546  21322765.3914                   21322764.6844
 -27125655.83648 -21126679.16447  20236166.2664                   20236164.5744
 -13604109.08648 -10588503.25045  22381834.5314                   22381832.0634
 11  9 22  2 22 30.0000000  0  7G05G15G18G30G26G29G21
 -14940203.82846 -11629570.62542  23899827.0084                   23899824.1374
 -19036780.10948 -15487275.38347  20569975.3984                   20569973.4104
 -11736271.48448  -9134526.97745  22040562.1414                   22040559.6804
  -2891173.36346  -2241611.44143  24566215.4694                   24566217.8554
 -18835293.03947 -15014913.15645  21326075.5634                   21326074.7464
 -27124249.64548 -21125583.41447  20236433.7424                   20236432.4614
 -13689597.31648 -10655117.41045  22365567.1024                   22365564.3634
 11  9 22  2 23  0.0000000  0  7G05G15G18G30G26G29G21
 -14876080.68045 -11579604.48442  23912028.2114                   23912025.2624
 -19079322.89848 -15520425.57847  20561879.5554                   20561877.8914
 -11804641.42647  -9187802.18445  22027551.2584                   22027549.4224
  -2838529.10946  -2200590.07843  24576233.3444                   24576235.5514
 -18817227.18747 -15000835.85245  21329513.2974                   21329512.5514
 -27122276.77748 -21124046.10247  20236808.7974                   20236807.6724
 -13775062.57847 -10721713.68445  22349303.2194                   22349300.8914
 11  9 22  2 23 30.0000000  0  7G05G15G18G30G26G29G21
 -14811981.82045 -11529657.38342  23924225.5084                   23924220.4024
 -19121269.77048 -15553111.42646  20553897.1954                   20553895.6524
 -11872754.68448  -9240877.38745  22014589.6724                   22014588.2034
  -2785883.46546  -2159567.60543  24586251.1884                   24586253.4264
 -18798494.24247 -14986238.72745  21333078.0784                   21333077.0554
 -27119739.22748 -21122068.78147  20237292.1024                   20237290.4224
 -13860505.55547 -10788292.59045  22333044.1644                   22333041.3014
 11  9 22  2 24  0.0000000  0  7G05G15G18G30G26G29G21
                                  23936418.602
 -19162617.83248 -15585330.66446  20546029.1024                   20546027.2194
 -11940609.83248  -9293751.46545  22001676.7974                   22001675.7734
  -2733237.01646  -2118544.53943  24596269.5164                   24596272.2194
 -18779093.16847 -14971120.99245  21336769.8444                   21336768.8244
 -27116635.22748 -21119650.07847  20237882.7734                   20237881.5824
 -13945923.09047 -10854851.66045  22316789.1564                   22316787.8054
 11  9 22  2 24 30.0000000  0  7G05G15G18G30G26G29G21
                                  23948607.430
 -19203368.81248 -15617084.63746  20538274.2034                   20538272.4694
 -12008209.10948  -9346426.14145  21988813.0314                   21988811.4774
  -2680595.09046  -2077524.98843  24606287.0474                   24606289.9414
 -18759027.89547 -14955485.71545  21340588.5784                   21340587.4454
 -27112967.50448 -21116792.08247  20238580.6724                   20238579.2774
 -14031316.84847 -10921392.19945  22300539.5314                   22300537.4384
 11  9 22  2 25  0.0000000  0  7G05G15G18G30G26G29G21
 -14619837.99615                  23960789.281
 -19243522.44148 -15648373.14146  20530633.5164                   20530631.7774
 -12075554.07047  -9398902.66445  21975997.9614                   21975996.3244
  -2627961.55146  -2036512.01643  24616302.7504                   24616305.6414
 -18738300.89147 -14939334.78145  21344532.3364                   21344531.7274
 -27108737.57448 -21113496.03547  20239385.3054                   20239384.0944
 -14116686.21547 -10987913.73445  22284294.6094                   22284292.4844
 11  9 22  2 25 30.0000000  0  7G05G15G18G30G26G29G21
 -14555847.191 5                  23972966.000
 -19283077.41848 -15679195.17247  20523106.3134                   20523104.0084
 -12142644.05547  -9451180.50045  21963231.1954                   21963229.6954
  -2575338.32846  -1995507.04343  24626317.5554                   24626319.5634
 -18716912.82847 -14922668.72745  21348602.4454                   21348601.9344
 -27103944.85248 -21109761.43747  20240297.1564                   20240296.4144
 -14202029.32047 -11054414.79345  22268053.5394                   22268051.8094
 11  9 22  2 26  0.0000000  0  7G05G15G18G30G26G29G21
 -14491884.898 5                  23985140.031
 -19322032.14148 -15709549.47746  20515693.2504                   20515691.8754
 -12209478.19147  -9503258.99245  21950512.5944                   21950511.0434
  -2522726.94546  -1954511.31643  24636329.0554                   24636331.8444
 -18694864.18747 -14905487.95745  21352798.2194                   21352797.1524
 -27098588.43748 -21105587.60947  20241316.8754                   20241315.3914
 -14287344.04347 -11120893.74645  22251819.2114                   22251817.2304
 11  9 22  2 26 30.0000000  0  7G05G15G18G30G26G29G21
 -14427953.793 6                  23997305.047
 -19360387.24248 -15739436.53147  20508394.5634                   20508393.0084
 -12276058.02347  -9555139.32045  21937843.4774                   21937840.9384
  -2470131.92646  -1913528.35943  24646337.8284                   24646341.3014
 -18672158.07047 -14887794.85545  21357118.9844                   21357117.9694
 -27092670.64548 -21100976.32047  20242442.9384                   20242441.5124
 -14372630.95347 -11187351.02045  22235589.3284                   22235587.3244
 11  9 22  2 27  0.0000000  0  7G05G15G18G30G26G29G21
 -14364056.39546 -11180624.54752  24009463.7274                   24009460.7194
 -19398143.47748 -15768856.95347  20501209.9304                   20501208.1914
 -12342386.13347  -9606823.48845  21925221.4924                   21925219.5084
  -2417557.54346  -1872561.48844  24656343.1254                   24656348.1024
 -18648797.77347 -14869592.00045  21361564.7504                   21361563.0314
 -27086193.24247 -21095928.99247  20243675.8134                   20243674.3594
 -14457890.25847 -11253786.77045  22219365.0864                   22219363.0124
 11  9 22  2 27 30.0000000  0  7G05G15G18G30G26G29G21
 -14300192.49645 -11130860.46542  24021616.5474                   24021612.5274
 -19435299.48848 -15797809.65247  20494139.1174                   20494137.9804
 -12408461.82447  -9658310.97745  21912647.5634                   21912645.5004
  -2365005.95046  -1831612.34844  24666342.6954                   24666348.4614
 -18624783.94547 -14850879.92645  21366134.1954                   21366132.7544
 -27079156.11348 -21090445.50847  20245014.6254                   20245012.8324
 -14543120.03148 -11320199.52045  22203146.2814                   22203144.1174
 11  9 22  2 28  0.0000000  0  6G05G15G18G26G29G21
                                  24033762.2814                   24033758.8244
 -19471853.84847 -15826293.54747  20487183.1884                   20487181.9064
 -12474284.93747  -9709601.64145  21900121.3594                   21900120.1524
 -18600117.99247 -14831659.68045  21370827.6484                   21370826.1024
 -27071559.11748 -21084525.77047  20246460.2504                   20246458.8484
 -14628318.66048 -11386587.97745  22186933.9144                   22186931.0554
 11  9 22  2 28 30.0000000  0  5G15G18G26G29G21
 -19507807.21948 -15854309.12947  20480341.4304                   20480339.7934
 -12539856.46947  -9760696.28545  21887644.0314                   21887642.0274
 -18574802.10547 -14811933.01245  21375645.8284                   21375643.7974
 -27063403.66448 -21078170.87947  20248012.1564                   20248011.1644
 -14713486.12548 -11452952.16445  22170726.5784                   22170724.8794
 11  9 22  2 29  0.0000000  0  6G05G15G18G26G29G21
   6357372.41415                  24058037.703
 -19543153.03548 -15881851.28146  20473615.1024                   20473613.2424
 -12605170.87147  -9811590.54345  21875215.1564                   21875212.9494
 -18548832.42247 -14791696.85945  21380587.5864                   21380586.5984
 -27054684.31248 -21071376.57447  20249671.7974                   20249669.9924
 -14798614.89548 -11519286.20745  22154527.1094                   22154525.1564
 11  9 22  2 29 30.0000000  0  5G15G18G26G29G21
 -18002466.17648 -14681316.03547  20766798.1414                   20766796.5984
 -11094802.95747  -8634680.41845  22162628.2424                   22162626.2774
 -16946788.05947 -13543350.59845  21685446.0944                   21685445.2384
 -25469978.85248 -19836541.13347  20551231.0314                   20551230.1994
 -13308277.72348 -10357984.45745  22438128.8834                   22438126.4964
 11  9 22  2 30  0.0000000  0  5G15G18G26G29G21
 -18036588.09048 -14707904.50847  20760305.0394                   20760303.6994
 -11159597.14147  -8685169.33645  22150298.4534                   22150296.8874
 -16919508.73447 -13522093.96945  21690637.0394                   21690636.3554
 -25460126.73048 -19828864.15247  20553105.7114                   20553104.0944
 -13393318.71948 -10424250.09045  22421946.0634                   22421943.3594
 11  9 22  2 30 30.0000000  0  5G15G18G26G29G21
 -18070100.57048 -14734018.10546  20753927.7034                   20753926.3014
 -11224135.00448  -8735458.51245  22138016.9924                   22138015.3834
 -16891580.55547 -13500331.73845  21695951.7974                   21695950.2934
 -25449712.11748 -19820748.87947  20555087.9304                   20555086.0864
 -13478317.49248 -10490482.82845  22405771.4144                   22405768.6914
 11  9 22  2 31  0.0000000  0  5G15G18G26G29G21
 -18103004.18048 -14759657.25447  20747666.3054                   20747664.7194
 -11288418.07047  -8785549.14145  22125784.3754                   22125782.4774
 -16863006.50847 -13478066.22745  21701389.8524                   21701387.6644
 -25438736.93048 -19812196.77047  20557176.0784                   20557174.3954
 -13563273.85548 -10556682.52045  22389604.3834                   22389601.9304
 11  9 22  2 31 30.0000000  0  5G15G18G26G29G21
 -18135301.23048 -14784823.75447  20741520.5004                   20741518.2894
 -11352449.81648  -8835443.94145  22113599.4144                   22113597.3834
 -16833791.18747 -13455301.02745  21706948.8754                   21706946.6684
 -25427204.81648 -19803210.71547  20559370.5314                   20559369.5164
 -13648189.33248 -10622850.35545  22373445.3054                   22373443.1054
 11  9 22  2 32  0.0000000  0  5G15G18G26G29G21
 -18166991.02048 -14809517.05146  20735489.9454                   20735487.5664
 -11416229.77047  -8885142.54345  22101462.4224                   22101460.5864
 -16803935.83247 -13432037.09045  21712630.4454                   21712628.9614
 -25415116.07848 -19793790.91847  20561670.7894                   20561669.4694
 -13733062.24647 -10688985.01645  22357294.4614                   22357291.7504
 11  9 22  2 32 30.0000000  0  5G15G18G26G29G21
 -18198074.73448 -14833738.10246  20729574.9454                   20729572.6054
 -11479760.01648  -8934646.55545  22089372.9384                   22089371.4614
 -16773444.17247 -13408277.32445  21718432.0944                   21718431.1604
 -25402472.81248 -19783939.01647  20564076.8284                   20564075.5164
 -13817893.11348 -10755086.92645  22341151.6564                   22341148.9224
 11  9 22  2 33  0.0000000  0  5G15G18G26G29G21
 -18228553.53948 -14857487.82047  20723775.1024                   20723773.5634
 -11543042.36748  -8983957.39545  22077330.9144                   22077328.7464
 -16742319.36347 -13384024.21145  21724355.3524                   21724353.8324
 -25389277.42648 -19773656.90247  20566588.0084                   20566586.4614
 -13902682.08248 -10821156.20745  22325017.1094                   22325014.3634
 11  9 22  2 33 30.0000000  0  5G15G18G26G29G21
 -18258426.21948 -14880765.20346  20718090.4144                   20718088.9924
 -11606076.36748  -9033074.74645  22065335.7114                   22065333.7074
 -16710562.87547 -13359278.90645  21730398.4224                   21730397.5354
 -25375529.53148 -19762944.25047  20569204.0864                   20569202.5204
 -13987426.87548 -10887191.06245  22308890.5864                   22308887.9344
 11  9 22  2 34  0.0000000  0  5G15G18G26G29G21
 -18287694.13748 -14903571.33247  20712521.1954                   20712518.8714
 -11668863.99648  -9082000.09845  22053387.6334                   22053385.3914
 -16678178.39147 -13334044.20345  21736560.5784                   21736559.4734
 -25361231.94548 -19751803.28147  20571924.9224                   20571923.4734
 -14072128.25048 -10953192.08645  22292772.5634                   22292770.2774
 11  9 22  2 34 30.0000000  0  5G15G18G26G29G21
 -18316356.63748 -14925905.72347  20707067.0634                   20707065.3364
 -11731405.84048  -9130733.94145  22041486.4224                   22041483.9384
 -16645167.39147 -13308321.31645  21742842.1804                   21742841.4454
 -25346384.69148 -19740233.98447  20574750.1094                   20574748.5904
 -14156783.94947 -11019157.50045  22276662.7424                   22276660.4734
 11  9 22  2 35  0.0000000  0  5G15G18G26G29G21
 -18344413.73848 -14947768.35947  20701727.3594                   20701725.4144
 -11793702.15248  -9179276.46545  22029631.2584                   22029628.6844
 -16611532.03147 -13282111.95345  21749242.9774                   21749241.7774
 -25330989.10548 -19728237.41847  20577679.9614                   20577678.3054
 -14241393.80948 -11085087.20745  22260561.9694                   22260559.3484
 11  9 22  2 35 30.0000000  0  5G15G18G26G29G21
 -18371866.16448 -14969159.84846  20696503.2664                   20696501.4144
 -11855754.20348  -9227628.66045  22017823.4694                   22017821.1954
 -16577275.31247 -13255418.39545  21755761.6564                   21755761.1604
 -25315046.91448 -19715814.93447  20580713.3284                   20580712.0784
 -14325956.72347 -11150980.35245  22244470.3524                   22244467.2384
 11  9 22  2 36  0.0000000  0  5G15G18G26G29G21
 -18398713.17248 -14990079.56647  20691394.8364                   20691392.6374
 -11917562.06648  -9275790.56645  22006061.4924                   22006059.7234
 -16542398.93047 -13228241.98045  21762398.2424                   21762397.4844
 -25298558.43748 -19702966.77047  20583851.0314                   20583849.7814
 -14410471.18748 -11216835.73445  22228387.9454                   22228385.0124
 11  9 22  2 36 30.0000000  0  5G15G18G26G29G21
 -18424956.21148 -15010528.64547  20686400.4144                   20686399.1484
 -11979127.42648  -9323763.51245  21994346.2114                   21994344.4844
 -16506906.36347 -13200585.44545  21769153.0004                   21769151.7424
 -25281526.22748 -19689694.91047  20587092.3674                   20587091.5354
 -14494937.25047 -11282653.40645  22212314.1644                   22212311.4184
 11  9 22  2 37  0.0000000  0  5G15G18G26G29G21
 -18450595.81247 -15030507.53546  20681521.1884                   20681520.4884
 -12040452.39548  -9371549.14545  21982676.5704                   21982673.8794
 -16470800.99647 -13172451.37145  21776023.4454                   21776022.6954
 -25263952.34448 -19676000.99247  20590436.6024                   20590435.0824
 -14579355.05947 -11348433.47746  22196250.3754                   22196247.2114
 11  9 22  2 37 30.0000000  0  5G15G18G26G29G21
 -18475631.32447 -15050015.69547  20676757.2504                   20676755.9064
 -12101535.92648  -9419146.63746  21971052.2504                   21971050.2974
 -16434083.91847 -13143840.64845  21783010.3284                   21783009.6454
 -25245836.54348 -19661884.77347  20593883.9614                   20593882.3444
 -14663721.82847 -11414173.78146  22180195.9224                   22180193.1414
 11  9 22  2 38  0.0000000  0  5G15G18G26G29G21
 -18500062.31247 -15069052.80146  20672108.3674                   20672106.5904
 -12162378.28148  -9466556.18446  21959474.3204                   21959472.7074
 -16396756.93447 -13114754.67645  21790113.4844                   21790112.3554
 -25227179.79748 -19647347.04747  20597433.8444                   20597432.5434
 -14748036.04347 -11479873.13346  22164151.2034                   22164149.2074
 11  9 22  2 38 30.0000000  0  5G15G18G26G29G21
 -18523887.19148 -15087617.61346  20667574.6334                   20667572.7734
 -12222978.87548  -9513777.35545  21947942.2194                   21947940.9344
 -16358821.17647 -13085194.31645  21797331.9144                   21797331.0594
 -25207981.81248 -19632387.59047  20601087.5084                   20601086.0664
 -14832295.37947 -11545529.74246  22148117.2194                   22148114.8594
 11  9 22  2 39  0.0000000  0  6G22G15G18G26G29G21
   7694460.67656   6006967.84852  24743971.1804                   24743970.7304
 -18547109.84847 -15105713.15647  20663155.3444                   20663153.9964
 -12283341.99248  -9560813.48846  21936455.4384                   21936454.3914
 -16320282.69947 -13055164.34045  21804666.2194                   21804664.5784
 -25188247.31648 -19617010.04347  20604842.8444                   20604841.8134
 -14916502.29747 -11611145.48446  22132093.1254                   22132090.7814
 11  9 22  2 39 30.0000000  0  6G22G15G18G26G29G21
   7598384.05546   5932103.27042  24725687.8444                   24725686.5204
 -18569739.29347 -15123346.46547  20658848.9694                   20658847.7664
 -12343476.49648  -9607671.48446  21925012.3594                   21925010.6294
 -16281152.34047 -13024673.14545  21812112.5394                   21812110.7974
 -25167985.80148 -19601221.84047  20608698.2274                   20608697.3954
 -15000663.53547 -11676725.63746  22116077.6954                   22116075.0274
 11  9 22  2 40  0.0000000  0  6G22G15G18G26G29G21
   7502456.85246   5857355.08642  24707433.6254                   24707431.2704
 -18591776.27748 -15140518.11747  20654655.8054                   20654653.2424
 -12403383.84848  -9654352.46946  21913612.4384                   21913610.5514
 -16241433.25847 -12993723.20745  21819670.4924                   21819670.1564
 -25147199.59448 -19585024.80547  20612654.0234                   20612652.0704
 -15084779.00848 -11742270.11346  22100071.4534                   22100068.1994
 11  9 22  2 40 30.0000000  0  6G22G15G18G26G29G21
   7406682.97746   5782726.34842  24689208.8984                   24689205.3634
 -18613217.24648 -15157225.34047  20650576.1174                   20650573.5394
 -12463061.25848  -9700854.27745  21902256.1804                   21902253.9064
 -16201124.20747 -12962313.53945  21827341.1724                   21827339.8244
 -25125885.96948 -19568416.78547  20616709.7734                   20616707.9494
 -15168843.60248 -11807774.96146  22084073.9454                   22084071.2034
 11  9 22  2 41  0.0000000  0  6G22G15G18G26G29G21
   7311062.41446   5708217.06342  24671011.8754                   24671008.7774
 -18634062.49248 -15173468.36347  20646609.4064                   20646607.1174
 -12522509.16048  -9747177.25846  21890944.0944                   21890941.5664
 -16160227.60947 -12930446.05945  21835123.4144                   21835121.2034
 -25104046.25048 -19551398.81647  20620865.7664                   20620863.9024
 -15252856.53148 -11873239.55546  22068087.0634                   22068084.5744
 11  9 22  2 41 30.0000000  0  6G22G15G18G26G29G21
   7215598.40246   5633829.75042  24652845.9304                   24652843.0164
 -18654309.43748 -15189245.19146  20642756.0164                   20642753.3554
 -12581725.60248  -9793319.88346  21879675.3594                   21879672.5004
 -16118743.59047 -12898120.84845  21843017.8444                   21843015.9224
 -25081679.39848 -19533970.11747  20625122.2504                   20625120.6254
 -15336813.71548 -11938660.70346  22052109.9774                   22052107.4184
 11  9 22  2 42  0.0000000  0  6G22G15G18G26G29G21
   7120292.54346   5559565.74642  24634709.3914                   24634706.7734
 -18673956.79748 -15204554.80546  20639016.9844                   20639014.9344
 -12640709.31648  -9839281.16845  21868450.8444                   21868448.3954
 -16076672.31647 -12865338.03145  21851023.4924                   21851021.6484
 -25058784.43448 -19516129.89147  20629478.6954                   20629477.2234
 -15420711.80148 -12004035.80946  22036145.3984                   22036142.8054
 11  9 22  2 42 30.0000000  0  6G22G15G18G26G29G21
   7025143.18846   5485423.57042  24616602.2344                   24616599.9184
 -18693006.69148 -15219398.85547  20635392.6804                   20635389.5274
 -12699463.07848  -9885063.26645  21857270.4144                   21857268.0354
 -16034018.46547 -12832101.25045  21859139.8284                   21859138.8554
 -25035364.96948 -19497880.97347  20633935.3444                   20633933.4804
 -15504551.32448 -12069365.28946  22020191.1414                   22020187.9654
 11  9 22  2 43  0.0000000  0  6G22G15G18G26G29G21
   6930154.63346   5411406.72342  24598526.7114                   24598524.0274
 -18711455.02048 -15233774.15246  20631881.4384                   20631879.1954
 -12757983.06248  -9930663.19546  21846134.1804                   21846131.9344
 -15990780.35547 -12798409.24245  21867368.2424                   21867366.5434
 -25011417.71548 -19479220.78546  20638492.3524                   20638490.4774
 -15588326.76648 -12134644.83246  22004249.6334                   22004245.8834
 11  9 22  2 43 30.0000000  0  6G22G15G18G26G29G21
   6835324.77046   5337513.58243  24580481.2894                   24580479.4844
 -18729304.35248 -15247682.70746  20628485.2034                   20628482.5084
 -12816271.99648  -9976083.09846  21835042.1804                   21835039.8324
 -15946962.59047 -12764265.50045  21875706.1094                   21875704.3094
 -24986946.34848 -19460152.20746  20643148.9924                   20643147.4614
 -15672039.52748 -12199875.52346  21988319.0864                   21988316.2194
 11  9 22  2 44  0.0000000  0  6G22G15G18G26G29G21
   6740654.39846   5263744.64843  24562465.8834                   24562463.5904
 -18746554.71548 -15261124.52747  20625202.4064                   20625200.2894
 -12874330.24248 -10021323.25046  21823994.1724                   21823991.7504
 -15902567.66847 -12729672.04745  21884154.3134                   21884152.7154
 -24961951.83248 -19440675.96947  20647905.2584                   20647903.8204
 -15755687.69548 -12265055.88346  21972401.1804                   21972398.2464
 11  9 22  2 44 30.0000000  0  6G22G15G18G26G29G21
   6646143.75846   5190100.18443  24544480.6414                   24544478.6134
 -18763206.07448 -15274099.59047  20622033.4224                   20622031.4494
 -12932158.28148 -10066384.02746  21812989.8914                   21812987.6604
 -15857597.46547 -12694630.34045  21892712.1804                   21892709.4774
 -24936435.29348 -19420792.96146  20652760.7584                   20652759.5824
 -15839269.30548 -12330184.36746  21956496.0394                   21956493.8444
 11  9 22  2 45  0.0000000  0  6G22G15G18G26G29G21
   6551792.06646   5116579.55943  24526526.8134                   24526524.1254
 -18779259.99648 -15286609.12547  20618978.7194                   20618976.7304
 -12989757.37948 -10111266.39146  21802029.3524                   21802026.2664
 -15812055.52747 -12659143.11345  21901378.6414                   21901376.1804
 -24910399.09448 -19400505.02047  20657715.3204                   20657713.9024
 -15922783.81247 -12395260.57046  21940603.7194                   21940601.3594
 11  9 22  2 45 30.0000000  0  6G22G15G18G26G29G21
   6457600.34046   5043183.62943  24508602.3134                   24508599.7034
 -18794715.79748 -15298652.58247  20616037.4224                   20616035.6954
 -13047126.99248 -10155969.94146  21791111.8134                   21791108.9024
 -15765943.69947 -12623211.82445  21910152.8134                   21910151.8204
 -24883843.23848 -19379812.15646  20662768.7894                   20662767.5744
 -16006229.18047 -12460282.89546  21924724.9224                   21924721.7544
 11  9 22  2 46  0.0000000  0  6G22G15G18G26G29G21
   6363567.94146   4969911.83243  24490707.4844                   24490705.9494
 -18809574.40648 -15310230.68747  20613209.9304                   20613208.0664
 -13104269.02748 -10200496.16046  21780237.9774                   21780235.5664
 -15719265.14147 -12586838.93445  21919035.8134                   21919034.4574
 -24856770.28548 -19358716.33647  20667920.5944                   20667919.6374
 -16089604.44948 -12525250.60546  21908859.0234                   21908855.7814
 11  9 22  2 46 30.0000000  0  6G22G15G18G26G29G21
   6269695.83246   4896764.93043  24472844.0864                   24472840.7034
 -18823836.02048 -15321343.60947  20610496.2344                   20610494.5434
 -13161183.59848 -10244845.13346  21769407.3984                   21769405.6884
 -15672021.86347 -12550026.00445  21928025.4844                   21928024.7344
 -24829180.90648 -19337218.13346  20673170.6564                   20673169.5984
 -16172907.52348 -12590162.03546  21893006.6644                   21893003.7274
 11  9 22  2 47  0.0000000  0  6G22G15G18G26G29G21
   6175985.32846   4823743.90643  24455011.3834                   24455008.4694
 -18837499.73448 -15331990.63747  20607896.0474                   20607894.6294
 -13217869.65648 -10289016.05146  21758620.7034                   21758618.4734
 -15624215.43447 -12512774.25445  21937122.9614                   21937120.9734
 -24801075.59048 -19315317.90247  20678519.1884                   20678517.7384
 -16256136.25848 -12655015.55545  21877168.5314                   21877165.3954
 11  9 22  2 47 30.0000000  0  6G22G15G18G26G29G21
   6082434.03146   4750847.00443  24437209.0234                   24437205.6954
 -18850568.34448 -15342173.95747  20605408.9694                   20605407.3714
 -13274330.06648 -10333011.14146  21747876.4304                   21747874.2384
 -15575850.56247 -12475087.34445  21946326.5474                   21946325.3364
 -24772457.91048 -19293018.41846  20683964.9614                   20683963.4844
 -16339290.69547 -12719811.18746  21861344.7814                   21861341.7034
 11  9 22  2 48  0.0000000  0  6G22G15G18G26G29G21
   5989046.44546   4678077.65643  24419437.9384                   24419435.2584
 -18863038.19948 -15351890.71147  20603036.2274                   20603034.1954
 -13330561.60548 -10376827.88346  21737176.0084                   21737173.4144
 -15526925.85247 -12436964.20745  21955637.2194                   21955635.5084
 -24743325.14848 -19270317.58246  20689508.7424                   20689507.6174
 -16422366.18048 -12784545.28546  21845536.5634                   21845533.2774
 11  9 22  2 48 30.0000000  0  6G22G15G18G26G29G21
   5895821.53947   4605435.07443  24401698.0084                   24401694.9964
 -18874910.87548 -15361142.12147  20600776.9924                   20600774.6454
 -13386565.67248 -10420467.38346  21726518.9614                   21726515.9804
 -15477445.05547 -12398407.71545  21965052.7344                   21965051.3634
 -24713679.67248 -19247217.21947  20695150.0004                   20695149.0084
 -16505361.90248 -12849217.22746  21829742.6254                   21829740.0124
 11  9 22  2 49  0.0000000  0  6G22G15G18G26G29G21
   5802763.83246   4532922.76243  24383990.2274                   24383986.4924
 -18886182.58648 -15369925.25847  20598631.7894                   20598630.4304
 -13442339.00848 -10463927.09046  21715905.6804                   21715903.2034
 -15427406.66447 -12359416.77345  21974574.8834                   21974573.9104
 -24683519.05548 -19223715.43746  20700889.4384                   20700887.9844
 -16588272.37148 -12913822.73446  21813965.3444                   21813962.4494
 11  9 22  2 49 30.0000000  0  6G22G15G18G26G29G21
   5709877.34446   4460543.89543  24366313.8054                   24366310.1454
 -18896849.85248 -15378237.39547  20596601.8204                   20596599.9344
 -13497877.76648 -10507204.01646  21705336.6094                   21705334.4304
 -15376808.92247 -12319989.96545  21984202.4844                   21984201.9264
 -24652840.33648 -19199809.93746  20706727.3444                   20706726.1094
 -16671091.18447 -12978356.84446  21798205.3984                   21798202.5864
 11  9 22  2 50  0.0000000  0  6G22G15G18G26G29G21
   5617158.24646   4388295.47343  24348670.1254                   24348667.5864
 -18906917.19148 -15386082.06247  20594686.1884                   20594683.6724
 -13553186.64148 -10550301.79346  21694811.9064                   21694809.4844
 -15325658.73447 -12280132.67645  21993936.2734                   21993935.1954
 -24621649.14148 -19175505.12146  20712662.6414                   20712661.2934
 -16753820.45348 -13042821.15646  21782462.7504                   21782459.5944
 11  9 22  2 50 30.0000000  0  6G22G15G18G26G29G21
   5524606.30546   4316177.30143  24331056.6954                   24331055.9534
 -18916385.56248 -15393459.98847  20592884.6094                   20592882.1414
 -13608266.56648 -10593221.19546  21684330.0944                   21684327.8954
 -15273958.95347 -12239847.13745  22003774.5234                   22003773.2934
 -24589947.58648 -19150802.61346  20718695.4774                   20718694.1294
 -16836460.39847 -13107215.86346  21766736.2194                   21766733.9924
 11  9 22  2 51  0.0000000  0  6G22G15G18G26G29G21
   5432220.78146   4244188.78943  24313476.3754                   24313475.5904
 -18925256.53548 -15400372.41446  20591196.3834                   20591194.1254
 -13663119.05148 -10635963.35546  21673892.1414                   21673889.3594
 -15221713.55947 -12199136.44945  22013717.3134                   22013716.0864
 -24557738.05148 -19125704.28146  20724824.6804                   20724823.1414
 -16919009.94548 -13171540.13346  21751027.9774                   21751025.3404
 11  9 22  2 51 30.0000000  0  6G22G15G18G26G29G21
   5339999.74646   4172328.43443  24295927.1804                   24295925.9024
 -18933533.15648 -15406821.71547  20589621.3284                   20589619.6764
 -13717746.74248 -10678530.35246  21663496.8134                   21663494.7304
 -15168927.36747 -12158004.35545  22023761.7664                   22023760.1684
 -24525024.26248 -19100213.03946  20731049.8674                   20731048.5124
 -17001469.32448 -13235794.16846  21735336.5314                   21735334.0594
 11  9 22  2 52  0.0000000  0  6G22G15G18G26G29G21
   5247943.75846   4100596.70344  24278409.6954                   24278407.8874
 -18941215.46148 -15412807.91047  20588159.4694                   20588156.9924
 -13772149.89147 -10720922.37946  21653144.1884                   21653141.3244
 -15115602.44147 -12116452.44945  22033908.9774                   22033907.0984
 -24491806.92648 -19074329.41846  20737371.0004                   20737369.8014
 -17083836.18448 -13299976.10546  21719662.6484                   21719660.0944
 11  9 22  2 52 30.0000000  0  6G22G15G18G26G29G21
   5156051.35946   4028992.43043  24260922.6884                   24260921.1214
 -18948305.33648 -15418332.46547  20586810.4144                   20586808.1724
 -13826330.44947 -10763140.94946  21642833.8444                   21642831.2154
 -15061742.90247 -12074483.98045  22044158.1174                   22044157.1094
 -24458089.37148 -19048056.00046  20743787.1954                   20743785.4064
 -17166110.55948 -13364085.98046  21704006.4064                   21704003.1214
 11  9 22  2 53  0.0000000  0  6G22G15G18G26G29G21
   5064320.55547   3957514.08244  24243467.1094                   24243464.8134
 -18954805.73848 -15423397.69947  20585573.1954                   20585571.0204
 -13880290.94547 -10805188.05546  21632565.7504                   21632562.9694
 -15007353.86747 -12032102.93445  22054508.0864                   22054507.2384
 -24423875.42248 -19021395.80546  20750298.0394                   20750296.0904
 -17248293.27748 -13428124.41446  21688367.3284                   21688364.3444
 11  9 22  2 53 30.0000000  0  6G22G15G18G26G29G21
   4972754.63347   3886164.16044  24226042.6414                   24226040.6644
 -18960714.41048 -15428001.84046  20584448.4924                   20584446.2814
 -13934029.28147 -10847062.02046  21622339.3594                   21622336.8674
 -14952434.91447 -11989308.94145  22064958.8364                   22064957.2424
 -24389163.71947 -18994347.73446  20756903.4614                   20756902.2074
 -17330379.66448 -13492087.79746  21672746.8594                   21672742.9064
 11  9 22  2 54  0.0000000  0  6G22G15G18G26G29G21
   4881352.70747   3814942.06644  24208649.6884                   24208648.3324
 -18966032.98048 -15432146.16846  20583436.3984                   20583434.2464
 -13987546.87947 -10888763.99646  21612155.1564                   21612152.4344
 -14896989.78947 -11946104.94945  22075509.5634                   22075507.9144
 -24353956.59447 -18966913.63746  20763602.8444                   20763601.7774
 -17412368.90247 -13555975.49246  21657144.3204                   21657140.8754
 11  9 22  2 54 30.0000000  0  6G22G15G18G26G29G21
   4790114.52347   3743847.53144  24191287.4694                   24191286.0394
 -18970762.63348 -15435831.59447  20582536.8054                   20582534.3014
 -14040844.61747 -10930294.65246  21602013.2814                   21602010.9884
 -14841021.83647 -11902493.59045  22086160.4304                   22086159.5004
 -24318256.15247 -18939095.12146  20770396.6024                   20770395.3984
 -17494259.77047 -13619786.53546  21641560.9534                   21641558.3324
 11  9 22  2 55  0.0000000  0  6G22G15G18G26G29G21
   4699038.02047   3672878.94944  24173956.0164                   24173954.9924
 -18974906.25448 -15439060.37147  20581748.3674                   20581746.0904
 -14093925.33247 -10971656.20346  21591912.3364                   21591909.8444
 -14784535.94547 -11858478.59445  22096908.7114                   22096908.9024
 -24282066.32448 -18910895.26646  20777283.6174                   20777282.0004
 -17576052.35947 -13683521.00046  21625996.8914                   21625993.7544
 11  9 22  2 55 30.0000000  0  7G22G09G15G18G26G29G21
   4608123.47747   3602036.56344  24156655.4924                   24156654.2114
   7713928.18415                  24797921.281
 -18978464.69148 -15441833.16047  20581071.2274                   20581068.5044
 -14146789.43747 -11012848.96146  21581852.3444                   21581850.2814
 -14727534.56647 -11814061.91845  22107756.6564                   22107755.2154
 -24245388.66047 -18882315.27746  20784263.0084                   20784260.9964
 -17657744.87547 -13747177.49246  21610451.0234                   21610447.9734
 11  9 22  2 56  0.0000000  0  7G22G09G15G18G26G29G21
   4517363.65647   3531314.74644  24139385.4064                   24139383.9844
                                  24777326.953
 -18981445.65648 -15444155.96947  20580503.9454                   20580501.9104
 -14199444.50047 -11053878.82446  21571832.5314                   21571830.0944
 -14670027.94547 -11769251.57445  22118699.0234                   22118697.9264
 -24208231.99647 -18853362.05546  20791333.8364                   20791332.4924
 -17739343.19547 -13810760.58646  21594923.4304                   21594920.5204
 11  9 22  2 56 30.0000000  0  7G22G09G15G18G26G29G21
   4426754.18847   3460710.10244  24122141.9694                   24122140.8204
                                  24756716.141
 -18983854.70748 -15446033.13746  20580045.3204                   20580043.1484
 -14251895.69947 -11094749.81646  21561851.2034                   21561848.7894
 -14612023.21947 -11724053.10244  22129736.6804                   22129735.5354
 -24170602.41448 -18824040.34047  20798494.1024                   20798493.5944
 -17820850.35947 -13874272.64146  21579413.1884                   21579409.9774
 11  9 22  2 57  0.0000000  0  6G22G15G18G26G29G21
   4336299.01246   3390225.64844  24104928.9144                   24104927.0864
 -18985689.27748 -15447462.66046  20579696.0474                   20579693.7974
 -14304140.46947 -11135459.98446  21551909.4844                   21551907.1914
 -14553519.85947 -11678466.08244  22140869.7584                   22140868.2274
 -24132498.28148 -18794348.82446  20805745.2894                   20805743.9224
 -17902260.13347 -13937708.81646  21563921.1884                   21563918.4574
 11  9 22  2 57 30.0000000  0  6G22G15G18G26G29G21
   4245999.77747   3319862.67644  24087745.8914                   24087743.5234
 -18986948.04348 -15448443.50046  20579456.8834                   20579453.8284
 -14356177.16047 -11176007.98446  21542007.1564                   21542004.2974
 -14494518.69547 -11632491.16444  22152097.4614                   22152095.1414
 -24093919.28547 -18764287.28146  20813086.4224                   20813085.6454
 -17983569.50447 -14001066.74246  21548448.8054                   21548445.7814
 11  9 22  2 58  0.0000000  0  6G22G15G18G26G29G21
   4155859.52047   3249623.61744  24070592.2664                   24070590.9694
 -18987629.09448 -15448974.16446  20579326.9924                   20579324.5634
 -14408003.48047 -11216392.09046  21532144.8914                   21532142.5234
 -14435019.69547 -11586128.28144  22163419.4534                   22163417.7114
 -24054864.42647 -18733854.93446  20820518.6094                   20820517.3054
 -18064774.25848 -14064343.15246  21532996.0554                   21532992.8324
 11  9 22  2 58 30.0000000  0  6G22G15G18G26G29G21
   4065878.69946   3179508.78144  24053469.5314                   24053468.4414
 -18987733.41848 -15449055.45346  20579307.2344                   20579304.9344
 -14459619.96547 -11256612.67246  21522322.5704                   21522319.8284
 -14375025.42247 -11539379.49644  22174836.1024                   22174834.8244
 -24015335.29747 -18703053.03946  20828040.7274                   20828038.8794
 -18145871.62947 -14127535.88746  21517563.6094                   21517560.6564
 11  9 22  2 59  0.0000000  0  6G22G15G18G26G29G21
   3976058.25446   3109518.88344  24036377.0394                   24036375.9734
 -18987260.76648 -15448687.13346  20579397.1804                   20579394.5004
 -14511026.00447 -11296669.28146  21512540.1024                   21512537.9454
 -14314537.93747 -11492246.38745  22186346.7274                   22186345.0514
 -23975332.48847 -18671882.03146  20835653.2344                   20835651.4384
 -18226859.05147 -14190642.93046  21502151.8834                   21502148.8404
 11  9 22  2 59 30.0000000  0  6G22G15G18G26G29G21
   3886398.81647   3039654.44544  24019315.4064                   24019314.3204
 -18986211.85248 -15447869.78546  20579596.6724                   20579594.2544
 -14562221.94148 -11336562.18046  21502797.9224                   21502795.5784
 -14253559.92247 -11444731.04745  22197949.9534                   22197948.4414
 -23934857.56247 -18640343.13346  20843355.3204                   20843354.0904
 -18307734.71147 -14253662.90646  21486762.0784                   21486758.7624
 11  9 22  3  0  0.0000000  0  6G22G15G18G26G29G21
   3796899.61746   2969914.86344  24002283.9614                   24002282.8204
 -18984588.10248 -15446604.52346  20579905.6954                   20579903.3674
 -14613208.87147 -11376292.19546  21493095.4534                   21493092.9694
 -14192094.73846 -11396836.12944  22209646.4924                   22209645.0864
 -23893913.14547 -18608438.41846  20851146.2734                   20851145.4774
 -18388497.27347 -14316594.75046  21471393.3594                   21471390.1884
 11  9 22  3  0 30.0000000  0  6G22G15G18G26G29G21
   3707560.16847   2900299.74644  23985283.6334                   23985281.7424
 -18982391.40648 -15444892.79346  20580323.3204                   20580321.4654
 -14663988.57847 -11415860.75046  21483432.1644                   21483430.3284
 -14130145.95347 -11348564.34844  22221435.0314                   22221432.9694
 -23852501.71947 -18576169.78946  20859027.0164                   20859025.9844
 -18469145.52747 -14379437.52046  21456046.4924                   21456043.5124
 11  9 22  3  1  0.0000000  0  6G22G15G18G26G29G21
   3618381.26647   2830809.71944  23968313.5554                   23968312.4494
 -18979621.77348 -15442734.62946  20580850.6334                   20580848.0084
 -14714560.14147 -11455267.10546  21473808.7344                   21473806.6954
 -14067715.54747 -11299917.30544  22233314.3914                   22233312.8674
 -23810623.95348 -18543537.76646  20866996.2114                   20866994.6524
 -18549676.84448 -14442189.18046  21440721.7974                   21440719.0864
 11  9 22  3  1 30.0000000  0  6G22G15G18G26G29G21
   3529361.36347   2761443.62144  23951373.1024                   23951372.3594
 -18976282.00848 -15440132.19546  20581486.2814                   20581483.7304
 -14764925.98848 -11494513.18746  21464224.4924                   21464221.4534
 -14004808.08247 -11250898.50444  22245285.6884                   22245285.0434
 -23768283.44148 -18510545.15646  20875053.1094                   20875051.8954
 -18630091.19548 -14504849.68746  21425419.6024                   21425417.0634
 11  9 22  3  2  0.0000000  0  6G22G15G18G26G29G21
   3440501.43447   2692202.17244  23934464.1254                   23934462.6604
 -18972372.43748 -15437085.76646  20582230.2664                   20582228.1134
 -14815086.09048 -11533598.93446  21454679.5314                   21454676.7854
 -13941425.70347 -11201509.64544  22257347.5394                   22257346.2074
 -23725481.39548 -18477192.92646  20883198.1644                   20883196.6564
 -18710385.80948 -14567416.90246  21410140.2664                   21410136.7074
 11  9 22  3  2 30.0000000  0  6G22G15G18G26G29G21
   3351800.23447   2623084.41044  23917584.4304                   23917582.7344
 -18967895.35948 -15433597.11746  20583082.1884                   20583080.1914
 -14865042.08648 -11572525.65246  21445173.2274                   21445169.9924
 -13877572.58247 -11151753.96544  22269497.8134                   22269497.0784
 -23682220.47348 -18443483.14146  20891430.4384                   20891428.8444
 -18790559.82848 -14629890.12946  21394883.5784                   21394880.2814
 11  9 22  3  3  0.0000000  0  6G22G15G18G26G29G21
   3263260.05547   2554092.16044  23900735.7194                   23900734.6524
 -18962849.95348 -15429665.62146  20584042.2814                   20584039.6414
 -14914792.50047 -11611292.16046  21435705.7664                   21435703.6994
 -13813250.06247 -11101632.52744  22281738.3914                   22281736.2194
 -23638501.60948 -18409416.51646  20899749.8754                   20899748.4144
 -18870609.73448 -14692266.65246  21379650.4614                   21379647.3634
 11  9 22  3  3 30.0000000  0  7G22G06G15G18G26G29G21
   3174878.90247   2485223.79344  23883917.7424                   23883916.0084
   7729478.72355   6041365.04353  24698045.9224                   24698045.3244
 -18957238.80548 -15425293.30146  20585110.2814                   20585107.8054
 -14964339.59448 -11649900.25046  21426277.2584                   21426274.6334
 -13748462.25847 -11051148.53544  22294066.9534                   22294065.7704
 -23594327.64548 -18374995.25046  20908156.2194                   20908154.9414
 -18950535.36348 -14754546.33646  21364441.2194                   21364438.2194
 11  9 22  3  4  0.0000000  0  8G22G09G06G15G18G26G29G21
   3086653.00047   2416476.41844  23867128.4224                   23867126.7814
   7720315.98815                  24445730.281
   7621428.08245   5957169.80143  24677484.6024                   24677484.6174
 -18951067.37147 -15420484.37146  20586284.2814                   20586281.9024
 -15013687.72747 -11688353.30146  21416886.4774                   21416883.9024
 -13683216.19547 -11000307.44544  22306482.8754                   22306481.8594
 -23549704.75048 -18340224.18446  20916647.5234                   20916646.4144
 -19030338.57847 -14816730.64146  21349255.1024                   21349252.3524
 11  9 22  3  4 30.0000000  0  8G22G09G06G15G18G26G29G21
   2998574.95747   2347844.25044  23850367.8134                   23850366.2544
   7610871.46515                  24424903.953
   7513624.82046   5873167.34843  24656971.4534                   24656970.0164
 -18944344.04748 -15415245.41046  20587563.8134                   20587561.3954
 -15062845.35548 -11726657.91046  21407532.1804                   21407529.2584
 -13617522.26647 -10949117.37944  22318983.8984                   22318983.2304
 -23504641.88748 -18305110.28946  20925222.4844                   20925220.9844
 -19110025.02348 -14878823.94946  21334091.4384                   21334088.3204
 11  9 22  3  5  0.0000000  0  8G22G09G06G15G18G26G29G21
   2910646.30147   2279328.50844  23833634.9534                   23833633.7384
   7501373.95715                  24404066.914
   7406072.59046   5789360.46942  24636504.8834                   24636501.7624
 -18937068.63348 -15409576.23446  20588948.0864                   20588945.6994
 -15111811.78948 -11764813.53146  21398213.8284                   21398211.4964
 -13551382.21147 -10897579.66844  22331570.5084                   22331570.1174
 -23459140.02748 -18269654.33646  20933881.5084                   20933880.0354
 -19189591.37148 -14940823.67246  21318949.8284                   21318946.9734
 11  9 22  3  5 30.0000000  0  8G22G09G06G15G18G26G29G21
   4398292.57847   3438533.48844  24116724.5004   24116723.2194   24683014.570
   8874200.20745
   6933356.05142                  24915878.6644                   24915876.5864
 -17353820.06648 -14175876.05546  20890230.2114                   20890228.2774
 -13585162.74248 -10575216.84446  21688725.8204                   21688722.4344
 -11909378.59447  -9618096.33244  22644033.0864                   22644032.7274
 -21837779.99648 -17006256.92646  21242416.0474                   21242415.0204
 -17693609.82048 -13775123.73046  21603625.7194                   21603622.9224
 11  9 22  3  6  0.0000000  0  8G22G09G06G15G18G26G29G21
   4310670.40647   3370256.59844  24100050.8754   24100049.1884   24662160.336
   8767165.63745   6849952.55542  24895510.4534                   24895507.3054
 -17345436.53148 -14169343.41847  20891825.8914                   20891823.6604
 -13633739.78947 -10613069.04746  21679481.9454                   21679479.0784
 -11842347.42247  -9565864.28144  22656788.7504                   22656787.7584
 -21791398.19548 -16970115.26246  21251241.8984                   21251241.0704
 -17772922.37547 -13836925.71146  21588532.5004                   21588530.0234

 11  9 22  3  6 30.0000000  0  8G22G09G06G15G18G26G29G21
   4223203.25847   3302100.49244  24083406.1484   24083404.8094   24641300.172
   8660395.16446   6766754.83242  24875193.9774                   24875190.8364
 -17336499.15648 -14162379.21546  20893526.4694                   20893524.1454
 -13682121.59047 -10650769.11346  21670275.3594                   21670273.0124
 -11774873.32847  -9513287.05144  22669628.7274                   22669626.7424
 -21744577.58248 -16933631.67646  21260151.5004                   21260150.6684
 -17852103.75447 -13898625.46546  21573465.3204                   21573462.9804

 11  9 22  3  7  0.0000000  0  7G22G06G15G18G26G29G21
   4135891.81347   3234065.68844  24066791.6954   24066789.9454
   8553891.99246   6683765.41043  24854928.0554                   24854925.5164
 -17327008.58247 -14154983.95746  20895332.4924                   20895329.5164
 -13730307.99647 -10688316.93046  21661105.7424                   21661103.1414
 -11706958.94146  -9460366.78544  22682552.2974                   22682551.1334
 -21697319.52048 -16896807.22746  21269144.8834                   21269143.5274
 -17931150.67647 -13960220.44146  21558423.2894                   21558420.0784
 11  9 22  3  7 30.0000000  0  7G22G06G15G18G26G29G21
   4048736.17247   3166152.31644  24050205.5084   24050204.7774
   8447658.42646   6600986.09043  24834711.3594                   24834710.1954
 -17316965.75047 -14147158.35946  20897243.4534                   20897240.7504
 -13778299.71947 -10725713.05546  21651973.1174                   21651970.5904
 -11638607.23046  -9407105.71544  22695559.2734                   22695557.9774
 -21649625.99248 -16859643.45346  21278220.1484                   21278218.8794
 -18010062.13747 -14021709.87946  21543406.9844                   21543403.8634
 11  9 22  3  8  0.0000000  0  7G22G06G15G18G26G29G21
   3961738.14847   3098361.76644  24033650.4774   24033648.6294
   8341699.30546   6518420.64843  24814548.3444                   24814547.2384
 -17306370.39147 -14138902.22747  20899259.5634                   20899257.3094
 -13826095.02347 -10762956.10946  21642877.6174                   21642875.0594
 -11569818.93446  -9353504.44544  22708649.1414                   22708647.8054
 -21601497.31248 -16822140.60546  21287378.7734                   21287377.7034
 -18088833.57047 -14083090.21146  21528417.1094                   21528413.9804
 11  9 22  3  8 30.0000000  0  7G22G06G15G18G26G29G21
   3874896.74647   3030693.25044  24017125.3594   24017122.5514
   8236015.79346   6436069.96143  24794435.8594                   24794435.2344
 -17295224.73848 -14130217.28946  20901380.3444                   20901377.9144
 -13873695.62547 -10800047.45746  21633819.6724                   21633816.8874
 -11500598.19147  -9299566.22744  22721821.7034                   22721820.3984
 -21552936.57448 -16784301.10546  21296619.7194                   21296618.6994
 -18167463.57048 -14144360.32846  21513454.6414                   21513450.9304
 11  9 22  3  9  0.0000000  0  8G22G09G06G15G18G26G29G21
   3788212.70747   2963147.34444  24000630.0164   24000626.8754
                                  24536913.492
   8130610.90646   6353936.42643  24774377.8134                   24774378.5864
 -17283529.37148 -14121104.01646  20903605.9774                   20903604.1954
 -13921101.27347 -10836986.89146  21624798.6564                   21624795.6524
 -11430947.57846  -9245293.02044  22735075.3204                   22735073.7584
 -21503945.09048 -16746125.93746  21305942.8754                   21305941.0594
 -18245950.74247 -14205519.13346  21498518.4144                   21498515.7664
 11  9 22  3  9 30.0000000  0  8G22G09G06G15G18G26G29G21
   3701687.51647   2895725.22344  23984164.8524   23984161.7034
   9268838.738 4                  24516027.359
   8025489.00046   6272023.37543  24754374.6174                   24754375.7154
 -17271284.05148 -14111562.19546  20905936.3754                   20905933.8794
 -13968311.32447 -10873773.91046  21615814.7424                   21615812.0354
 -11360868.27046  -9190685.78544  22748411.3444                   22748409.9614
 -21454523.21548 -16707615.39846  21315347.1484                   21315345.6334
 -18324290.99647 -14266563.46146  21483610.8674                   21483608.0824
 11  9 22  3 10  0.0000000  0  8G22G09G06G15G18G26G29G21
   3615320.64147   2828426.49644  23967729.8364   23967726.4384
   9159057.27045   6118173.46552  24495133.5634                   24495135.7894
   7920651.62946   6190332.03144  24734424.9224                   24734424.7854
 -17258491.08247 -14101593.63346  20908370.8364                   20908368.1994
 -14015327.14847 -10910409.59446  21606868.3054                   21606865.1334
 -11290364.24246  -9135747.60244  22761828.1724                   22761826.0124
 -21404673.72748 -16668771.66846  21324833.8834                   21324832.0514
 -18402482.89547 -14327492.17646  21468731.4694                   21468728.6994
 11  9 22  3 10 30.0000000  0  8G22G09G06G15G18G26G29G21
   3529110.63747   2761249.97744  23951323.5784   23951321.1374
   9049266.12146   6032622.03542  24474242.4454                   24474242.2584
   7816100.10546   6108863.37143  24714529.8284                   24714528.2734
 -17245153.13748 -14091200.41846  20910908.8914                   20910906.4494
 -14062150.28547 -10946895.12946  21597957.6804                   21597955.0394
 -11219439.74646  -9080481.77344  22775324.4924                   22775322.9184
 -21354400.38748 -16629597.63346  21334400.1094                   21334398.6214
 -18480525.81247 -14388304.79346  21453880.3594                   21453876.8914
 11  9 22  3 11  0.0000000  0  8G22G09G06G15G18G26G29G21
   3443057.77047   2694195.91444  23934948.7734   23934945.9384
   8939469.00846   5947065.95343  24453349.4304                   24453348.5904
   7711836.95746   6027619.46944  24694688.9304                   24694687.8634
 -17231271.29747 -14080383.40246  20913550.6564                   20913547.9884
 -14108781.34447 -10983230.98446  21589084.0704                   21589081.4064
 -11148097.43446  -9024890.36744  22788899.9774                   22788898.4384
 -21303704.36348 -16590094.25446  21344046.9224                   21344045.8594
 -18558417.39547 -14448999.50446  21439058.5474                   21439055.3364
 11  9 22  3 11 30.0000000  0  8G22G09G06G15G18G26G29G21
   3357160.12947   2627262.78144  23918603.1334   23918599.7154
   8829667.40245   5861506.29342  24432452.6174                   24432452.6914
   7607862.95346   5946600.89143  24674902.7194                   24674901.5474
 -17216849.17248 -14069145.37546  20916294.9534                   20916292.5084
 -14155222.13347 -11019418.57046  21580246.9144                   21580243.8364
 -11076342.14846  -8968977.18044  22802554.7584                   22802553.3594
 -21252590.31648 -16550265.12146  21353774.0234                   21353773.1334
 -18636157.44148 -14509576.14846  21424264.4924                   21424261.6174
 11  9 22  3 12  0.0000000  0  8G22G09G06G15G18G26G29G21
   3271419.96547   2560452.36744  23902287.5314   23902283.8594
   8719866.39845   5775947.16042  24411558.7734                   24411558.3754
   7504182.30945   5865810.93443  24655171.8674                   24655172.4104
 -17201885.68048 -14057485.49646  20919142.5314                   20919140.3754
 -14201471.67647 -11055457.15246  21571445.7424                   21571442.8164
 -11004175.30546  -8912743.30144  22816288.1094                   22816286.3594
 -21201058.21148 -16510110.26246  21363580.4614                   21363579.2234
 -18713741.93448 -14570031.56646  21409501.0634                   21409498.0594
 11  9 22  3 12 30.0000000  0  8G22G09G06G15G18G26G29G21
   3185836.73047   2493764.23444  23886001.2894   23885998.3204
   8610069.03545   5690390.77342  24390665.7274                   24390663.2814
   7400797.49646   5785251.43043  24635499.0474                   24635498.0864
 -17186382.71147 -14045405.25446  20922092.4064                   20922090.3984
 -14247531.18747 -11091347.65246  21562680.7194                   21562678.2504
 -10931600.27346  -8856191.29744  22830098.9064                   22830097.9344
 -21149110.39148 -16469631.43746  21373465.7424                   21373464.5234
 -18791169.13348 -14630364.44146  21394767.0004                   21394763.9454
 11  9 22  3 13  0.0000000  0  8G22G09G06G15G18G26G29G21
   3100410.03147   2427198.07444  23869745.1564   23869742.2384
   8500278.14145   5604839.57442  24369770.1254                   24369769.0704
   7297710.38746   5704923.95743  24615882.2894                   24615880.7664
 -17170342.45348 -14032906.35546  20925144.4924                   20925143.1174
 -14293401.19147 -11127090.48446  21553952.0314                   21553949.0784
 -10858620.05146  -8799323.60944  22843985.6484                   22843985.8914
 -21096749.37148 -16428830.65646  21383429.3364                   21383428.7464
 -18868437.60548 -14690573.63746  21380063.3914                   21380060.1294
 11  9 22  3 13 30.0000000  0  8G22G09G06G15G18G26G29G21
   3015139.04347   2360753.24244  23853518.0634   23853514.4534
                                  24348877.5234                   24348876.7624
   7194922.61346   5624829.71143  24596322.1254                   24596320.6884
 -17153767.35548 -14019990.68047  20928299.3204                   20928296.7274
 -14339083.24647 -11162686.87146  21545258.9614                   21545256.3014
 -10785238.83246  -8742143.43744  22857949.7974                   22857949.5394
 -21043978.46148 -16387710.46546  21393471.5704                   21393469.9304
 -18945546.16447 -14750658.21546  21365389.8914                   21365387.1564
 11  9 22  3 14  0.0000000  0  8G22G09G06G15G18G26G29G21
   2930026.56647   2294431.93844  23837321.6484   23837318.3284
   8280730.02345   5433763.35542  24327993.4694                   24327989.5514
   7092439.28946   5544972.68843  24576820.8524                   24576819.4924
 -17136655.94548 -14006657.09846  20931555.0474                   20931552.9884
 -14384575.02747 -11198134.98846  21536602.2894                   21536599.1334
 -10711456.99646  -8684651.09844  22871990.4924                   22871988.8554
 -20990796.92648 -16346270.31246  21403591.6484                   21403590.1724
 -19022489.83248 -14810614.28946  21350748.4064                   21350744.7074
 11  9 22  3 14 30.0000000  0  8G22G09G06G15G18G26G29G21
   2845071.42247   2228233.21144  23821155.1024   23821152.4494
   8170981.17246   5348244.87542  24307108.7424                   24307105.5944
   6990261.64546   5465353.88343  24557375.6254                   24557376.2424
 -17119011.05148 -13992907.81246  20934913.0474                   20934910.7114
 -14429878.39847 -11233436.28546  21527981.2664                   21527978.4964
 -10637278.72746  -8626849.86744  22886106.3834                   22886104.2504
 -20937208.13348 -16304512.82446  21413789.4304                   21413788.1054
 -19099267.98048 -14870441.39546  21336137.8594                   21336134.1914
 11  9 22  3 15  0.0000000  0  8G22G09G06G15G18G26G29G21
   2760270.43847   2162154.62944  23805017.8674   23805015.3954
   8061250.06345   5262740.25842  24286227.6884                   24286225.0474
   6888389.03546   5385972.78143  24537989.4224                   24537989.0314
 -17100837.23848 -13978746.40246  20938371.2734                   20938369.1484
 -14474996.86347 -11268593.51246  21519395.1564                   21519392.7114
 -10562710.11346  -8568744.48044  22900295.8054                   22900294.4694
 -20883217.27348 -16262442.05146  21424062.8444                   21424062.3204
 -19175881.12148 -14930139.94146  21321559.0314                   21321555.4224
 11  9 22  3 15 30.0000000  0  8G22G09G06G15G18G26G29G21
   2675626.05147   2096198.03144  23788911.3444   23788907.8874
   7951542.90245   5177254.21142  24265351.3594                   24265348.3204
   6786826.78946   5306833.44143  24518662.9454                   24518661.9534
 -17082133.30148 -13964171.89547  20941930.3984                   20941928.4964
 -14519928.64848 -11303605.27046  21510845.0084                   21510842.3444
 -10487751.54746  -8510335.20344  22914559.9694                   22914558.8204
 -20828824.16448 -16220057.82446  21434414.4454                   21434412.7304
 -19252324.80948 -14989706.42646  21307012.0474                   21307008.7154
 11  9 22  3 16  0.0000000  0  8G22G09G06G15G18G26G29G21
   2591137.38347   2030362.82844  23772832.5944   23772830.0044
   7841862.07846   5091788.60242  24244479.8134                   24244474.9694
   6685576.07846   5227936.82843  24499395.9144                   24499394.9384
 -17062901.98448 -13949186.44147  20945590.0474                   20945588.5084
 -14564674.86747 -11338472.41446  21502330.3674                   21502327.5314
 -10412407.16446  -8451625.28143  22928898.1024                   22928896.6214
 -20774031.93048 -16177362.57846  21444840.8674                   21444839.2894
 -19328597.68047 -15049139.82046  21292498.0394                   21292494.6884
 11  9 22  3 16 30.0000000  0  8G22G09G06G15G18G26G29G21
   2506803.56647   1964648.25444  23756784.6334   23756781.5824
   7732210.27346   5006345.71142  24223612.3204                   24223608.9454
   6584638.64146   5149284.33643  24480188.3524                   24480187.3244
 -17043145.75048 -13933791.96946  20949349.6644                   20949347.5944
 -14609236.91047 -11373196.07446  21493850.6024                   21493847.1564
 -10336680.72746  -8392617.68743  22943307.8054                   22943306.6214
 -20718843.32448 -16134358.47746  21455342.4614                   21455341.7194
 -19404698.69148 -15108439.30146  21278016.2504                   21278013.0204
 11  9 22  3 17  0.0000000  0  8G22G09G06G15G18G26G29G21
   2422625.55547   1899055.06344  23740766.1804   23740763.3874
   7622591.62946   4920928.68442  24202753.9454                   24202752.1374
   6484017.86746   5070878.59443  24461041.4144                   24461041.2734
 -17022865.10248 -13917988.85246  20953208.7734                   20953206.7504
 -14653614.74647 -11407776.18046  21485405.4614                   21485403.0434
 -10260574.57846  -8333314.21943  22957790.5394                   22957789.3634
 -20663260.00048 -16091046.80146  21465919.8524                   21465918.9184
 -19480625.07048 -15167602.70746  21263568.1724                   21263564.4454
 11  9 22  3 17 30.0000000  0  8G22G09G06G15G18G26G29G21
   2338601.37547   1833581.77344  23724776.7274   23724773.3984
   7513007.50846   4835538.51243  24181900.2194                   24181900.9574
   6383714.05946   4992719.81343  24441954.5004                   24441953.6054
 -17002063.73048 -13901779.98446  20957167.2344                   20957165.0434
 -14697810.82848 -11442214.67246  21476995.0634                   21476992.1954
 -10184093.79746  -8273718.79744  22972344.7504                   22972342.9224
 -20607285.99248 -16047430.70346  21476571.3364                   21476570.2194
 -19556376.32848 -15226629.66046  21249152.9384                   21249149.9224
 11  9 22  3 18  0.0000000  0  8G22G09G06G15G18G26G29G21
   2254731.19147   1768228.45345  23708816.3914   23708814.4734
   7403461.66046   4750178.17643  24161054.3754                   24161055.8674
   6283729.98046   4914810.23843  24422926.6414                   24422928.1024
 -16980743.10548 -13885166.51246  20961224.6724                   20961222.2234
 -14741825.37147 -11476511.69546  21468619.7114                   21468616.5744
 -10107241.05546  -8213833.54743  22986968.4454                   22986967.6994
 -20550923.16048 -16003511.61346  21487296.7034                   21487295.0904
 -19631949.96147 -15285518.19146  21234771.5784                   21234768.4964
 11  9 22  3 18 30.0000000  0  8G22G09G06G15G18G26G29G21
   2171015.07847   1702995.19544  23692886.0554   23692883.4574
   7293957.93046   4664850.71943  24140215.3834                   24140216.8524
   6184068.05546   4837151.71144  24403961.2894                   24403962.3484
 -16958904.89148 -13868149.71146  20965380.0554                   20965378.3164
 -14785658.82448 -11510667.61346  21460278.4224                   21460275.3134
 -10030019.03946  -8153660.60543  23001663.2504                   23001662.7704
 -20494173.93748 -15959291.46146  21498096.0704                   21498095.0474
 -19707343.80148 -15344266.62546  21220424.6564                   21220421.3984
 11  9 22  3 19  0.0000000  0  8G22G09G06G15G18G26G29G21
   2087453.40247   1637882.26244  23676984.4924   23676981.8204
   7184500.21946   4579559.02042  24119386.7114                   24119385.8404
   6084731.60246   4759746.74644  24385059.2734                   24385058.6024
 -16936549.85948 -13850730.19946  20969634.2344                   20969631.8444
 -14829310.52747 -11544681.90246  21451971.5944                   21451968.7704
  -9952430.64146  -8093202.10543  23016428.0314                   23016426.2974
 -20437039.81248 -15914771.39546  21508968.2504                   21508967.2544
 -19782554.92248 -15402872.67646  21206112.6094                   21206109.2894
 11  9 22  3 19 30.0000000  0  8G22G09G06G15G18G26G29G21
   2004045.96547   1572889.52044  23661112.4454   23661110.1254
   7075091.75846   4494305.75442  24098566.6884                   24098566.1214
   5985722.48047   4682596.84444  24366218.5084                   24366217.3014
 -16913680.17648 -13832909.65246  20973985.9694                   20973983.1954
 -14872781.93748 -11578555.70746  21443699.6334                   21443696.6484
  -9874478.99646  -8032460.60243  23031262.3364                   23031260.6454
 -20379523.68448 -15869953.64546  21519913.2344                   21519911.9454
 -19857581.81648 -15461335.19146  21191835.4694                   21191832.4104
 11  9 22  3 20  0.0000000  0  8G22G09G06G15G18G26G29G21
   1920791.01247   1508015.60245  23645269.7424   23645266.8054
   6965734.13346   4409092.05543  24077758.0084                   24077756.7114
   5887041.21147   4605702.40644  24347440.8914                   24347438.6844
 -16890299.30548 -13814690.78146  20978434.8984                   20978433.2774
 -14916075.60948 -11612291.03146  21435460.9454                   21435458.0514
  -9796169.16446  -7971439.96943  23046163.2504                   23046162.3014
 -20321629.50848 -15824841.30146  21530930.3594                   21530929.0314
 -19932423.96147 -15519653.73846  21177593.3834                   21177590.1374
 11  9 22  3 20 30.0000000  0  8G22G09G06G15G18G26G29G21
   1837689.59847   1443261.32845  23629455.6024   23629452.6454
   6856431.69546   4323921.39543  24056958.1334                   24056954.9924
   5788690.99247   4529065.91844  24328724.9694                   24328722.7074
 -16866408.49248 -13796074.56646  20982981.2974                   20982980.1374
 -14959191.05148 -11645887.45746  21427256.2584                   21427253.6604
  -9717503.43746  -7910142.01243  23061133.2424                   23061132.3834
 -20263358.62948 -15779435.42646  21542018.8984                   21542017.9614
 -20007078.48448 -15577826.10246  21163387.2424                   21163383.5824
 11  9 22  3 21  0.0000000  0  8G22G09G06G15G18G26G29G21
   1754740.97746   1378626.08244  23613671.1564   23613668.1804
   6747187.76246   4238796.38743  24036168.5314                   24036167.2464
   5690674.25446   4452689.32444  24310072.5394                   24310071.5204
 -16842009.32048 -13777062.21946  20987624.3524                   20987622.4964
 -15002128.72347 -11679345.36346  21419085.8674                   21419082.7584
  -9638484.70746  -7848568.97343  23076170.2344                   23076168.5984
 -20204713.59048 -15733738.00446  21553178.5474                   21553177.4384
 -20081543.31647 -15635850.65646  21149216.8444                   21149213.4304
 11  9 22  3 21 30.0000000  0  8G22G09G06G15G18G26G29G21
   1671945.49647   1314110.19145  23597915.8364   23597913.8204
   6638006.35246   4153720.04743  24015393.2114                   24015391.8674
   5592993.37146   4376574.44543  24291484.3134                   24291483.1174
 -16817103.33648 -13757654.95346  20992364.0314                   20992361.5164
 -15044889.19548 -11712665.20746  21410947.9614                   21410945.5704
  -9559116.18746  -7786723.37944  23091272.6024                   23091272.4384
 -20145696.53948 -15687750.68746  21564408.9924                   21564407.7114
 -20155815.76248 -15693725.30146  21135083.3204                   21135079.8794
 11  9 22  3 22  0.0000000  0  8G22G09G06G15G18G26G29G21
   1589305.02047   1249715.05944  23582189.2584   23582187.3984
   6528892.57846   4068696.35543  23994629.2814                   23994627.7074
   5495652.91046   4300724.78943  24272960.1644                   24272959.4924
 -16791690.41048 -13737852.67246  20997199.6024                   20997197.2194
 -15087470.63347 -11745845.51646  21402845.4304                   21402842.6914
  -9479398.91446  -7724606.02343  23106442.2814                   23106442.9264
 -20086308.12948 -15641474.02046  21575710.1884                   21575708.4844
 -20229891.99248 -15751447.04346  21120987.0084                   21120983.8134
 11  9 22  3 22 30.0000000  0  8G22G09G06G15G18G26G29G21
   1506817.59847   1185439.20345  23566493.0864   23566490.3984
   6419848.12546   3983726.75043  23973877.6954                   23973876.5824
   5398653.25846   4225140.68043  24254502.8594                   24254501.3404
 -16765774.05948 -13717658.10246  21002131.6174                   21002129.3134
 -15129875.94947 -11778888.59846  21394775.9304                   21394773.1804
  -9399337.75846  -7662220.75444  23121678.2894                   23121677.9804
 -20026552.25848 -15594911.02046  21587080.9694                   21587080.2234
 -20303771.63348 -15809015.56246  21106928.2274                   21106924.6174
 11  9 22  3 23  0.0000000  0  8G22G09G06G15G18G26G29G21
   1424482.54747   1121282.04744  23550825.2274   23550821.9774
   6310876.00046   3898813.44143  23953141.2274                   23953138.6024
   5301996.21546   4149823.52043  24236108.9614                   24236107.4144
 -16739356.65248 -13697073.11346  21007158.9924                   21007156.2194
 -15172105.78148 -11811794.94546  21386739.8674                   21386736.9344
  -9318936.34046  -7599570.30943  23136977.8204                   23136977.8134
 -19966431.70748 -15548063.86746  21598522.0554                   21598521.3324
 -20377452.66848 -15866429.34046  21092907.0864                   21092903.9804
 11  9 22  3 23 30.0000000  0  8G22G09G06G15G18G26G29G21
   1342298.83247   1057242.83244  23535186.3754   23535182.2974
   6201979.09846   3813958.74643  23932418.9064                   23932418.0744
   5205683.14546   4074774.43043  24217780.6884                   24217780.0004
 -16712441.12948 -13676099.98446  21012280.3834                   21012278.0784
 -15214161.59047 -11844565.68046  21378736.8204                   21378733.7384
  -9238198.61746  -7536657.84443  23152341.8524                   23152340.6764
 -19905949.95748 -15500935.24646  21610031.6024                   21610030.2664
 -20450934.09047 -15923687.56646  21078924.1094                   21078920.3524
 11  9 22  3 24  0.0000000  0  8G22G09G06G15G18G26G29G21
   1260269.23447    993323.71944  23519575.9384   23519572.1214
   6093163.12946   3729167.12143  23911711.7814                   23911711.3524
   5109718.94946   3999997.18443  24199519.8674                   24199518.3954
 -16685026.66048 -13654738.05146  21017497.3524                   21017494.8674
 -15256041.72748 -11877199.53146  21370767.0634                   21370764.5044
  -9157125.27346  -7473483.79343  23167769.7344                   23167767.9384
 -19845106.85548 -15453525.04346  21621609.4224                   21621608.8634
 -20524211.32848 -15980786.69946  21064979.8834                   21064976.5944
 11  9 22  3 24 30.0000000  0  8G22G09G06G15G18G26G29G21
   1178391.55147    929522.96544  23503995.3984   23503991.5784
   5984429.76646   3644439.88743  23891021.2504                   23891020.6914
   5014103.96946   3925492.02743  24181324.3754                   24181323.3524
 -16657117.49248 -13632990.64146  21022808.1724                   21022805.9184
 -15297748.60947 -11909698.38746  21362831.0164                   21362827.8524
  -9075721.19146  -7410052.01643  23183259.5554                   23183259.7234
 -19783906.78548 -15405836.66846  21633255.4144                   21633254.5274
 -20597284.07847 -16037726.49246  21051074.5164                   21051071.2814
 11  9 22  3 25  0.0000000  0  8G22G09G06G15G18G26G29G21
   1096665.48847    865840.37944  23488442.8984   23488439.3834
   5875782.41446   3559779.65643  23870345.6174                   23870346.1884
   4918840.34847   3851260.68444  24163197.3754                   24163196.5394
 -16628714.93748 -13610858.78546  21028212.8284                   21028211.0234
 -15339282.54748 -11942062.48046  21354926.8984                   21354924.0634
  -8993989.74646  -7346365.25043  23198813.3054                   23198812.8094
 -19722352.25848 -15357872.11746  21644968.4224                   21644967.8204
 -20670150.32448 -16094505.38746  21037208.5634                   21037205.2504
 11  9 22  3 25 30.0000000  0  8G22G09G06G15G18G26G29G21
   1015091.21547    802276.05944  23472919.7974   23472916.7424
   5767225.00046   3475189.53543  23849688.1414                   23849686.9734
   4823930.95747   3777305.33644  24145136.7814                   24145136.8954
 -16599820.87148 -13588343.92246  21033711.3754                   21033708.8674
 -15380644.33247 -11974292.41446  21347056.0634                   21347052.8404
  -8911933.72346  -7282425.52743  23214427.6024                   23214426.3014
 -19660445.32448 -15309632.96946  21656749.3204                   21656748.3914
 -20742807.26648 -16151121.16846  21023382.1884                   21023378.9184
 11  9 22  3 26  0.0000000  0  8G22G09G06G15G18G26G29G21
    933668.59047    738829.91044  23457426.2894   23457422.4734
   5658760.63746   3390671.93843  23829048.3754                   23829046.5634
   4729377.39547   3703627.31343  24127143.0944                   24127143.1414
 -16570437.80548 -13565448.02746  21039302.8754                   21039300.5434
 -15421834.22747 -12006388.39846  21339217.8834                   21339215.1644
  -8829556.45346  -7218235.42243  23230103.4224                   23230101.8874
 -19598188.87148 -15261121.46546  21668596.4454                   21668594.7274
 -20815252.95748 -16207572.32446  21009596.5864                   21009593.0204
 11  9 22  3 26 30.0000000  0  8G22G09G06G15G18G26G29G21
    852395.08647    675499.96944  23441960.1884   23441956.0164
   5550391.20346   3306228.28143  23808425.7114                   23808424.2854
   4635180.71947   3630227.33643  24109219.0164                   24109215.9884
 -16540568.96147 -13542173.59046  21044986.5704                   21044984.5704
 -15462854.87947 -12038352.52046  21331412.0634                   21331409.1254
  -8746862.66446  -7153798.75043  23245840.0864                   23245838.4804
 -19535586.85247 -15212340.67246  21680509.1174                   21680508.0084
 -20887487.13347 -16263858.67246  20995850.0704                   20995847.4844
 11  9 22  3 27  0.0000000  0  8G22G09G06G15G18G26G29G21
    771272.72347    612287.78544  23426523.1414   23426519.1644
   5442121.93046   3221862.67643  23787822.0084                   23787821.2584
   4541344.37547   3557108.11743  24091361.8914                   24091357.9964
 -16510214.47748 -13518520.73846  21050762.9534                   21050760.9924
 -15503704.98847 -12070183.76246  21323638.7974                   21323635.2974
  -8663853.87946  -7089116.58243  23261636.1564                   23261635.2544
 -19472640.17248 -15163291.31646  21692487.8524                   21692486.3874
 -20959505.46948 -16319976.84846  20982146.0634                   20982142.5944
 11  9 22  3 27 30.0000000  0  8G22G09G06G15G18G26G29G21
    690299.20747    549191.57844  23411114.4224   23411109.7544
   5333954.10546   3137576.09843  23767239.0784                   23767237.9964
   4447868.68447   3484269.93843  24073573.4534                   24073571.3874
 -16479379.06248 -13494493.13746  21056630.7504                   21056628.1414
 -15544387.40647 -12101884.32046  21315896.9694                   21315893.4144
  -8580535.53146  -7024193.20343  23277491.4844                   23277489.9774
 -19409353.48848 -15113977.01646  21704530.2664                   21704528.7624
 -21031308.56247 -16375927.29346  20968482.3284                   20968479.4064
